     2              OBSERVATION DATA    M (MIXED)           RINEX VERSION / TYPE
CCRINEXO V2.4.1 UX AIUB/CODE 01-OCT-05 02:00                PGM / RUN BY / DATE
CONCATENATED OBSERVATION FILES                              COMMENT
JPS2RIN 1.40 M AIUB/CODE 30-SEP-05 02:48                    COMMENT
BUILD FEB 6 2004 (C) JAVAD NAVIGATION SYSTEMS               COMMENT
RECEIVER COURTESY OF JAVAD                                  COMMENT
ZIMJ0926.JPS                                                COMMENT
SE TPS AA6C18EF                                             COMMENT
ZIMJ                                                        MARKER NAME
14001M006                                                   MARKER NUMBER
AUTOMATIC AIUB/CODE                                         OBSERVER / AGENCY
MT300342503 JPS LEGACY 2.3 APR,28,2004 P4                   REC # / TYPE / VERS
RA 0059 JPSREGANT_SD_E NONE                                 ANT # / TYPE
  4331294.0430   567541.9820  4633135.6250                  APPROX POSITION XYZ
        0.0770        0.0000        0.0000                  ANTENNA: DELTA H/E/N
     1     1                                                WAVELENGTH FACT L1/2
     9    C1    P1    P2    L1    L2    D1    D2    S1    S2# / TYPES OF OBSERV
    30                                                      INTERVAL
  2005     9    30     0     0    0.000000      GPS         TIME OF FIRST OBS
                                                            END OF HEADER
 05  9 30  0  0  0.0000000  1 15G01G03G11G14G19G20G22G28G31R01R02R08
                                R17R23R24
  21945930.884    21945931.0924   21945938.3174  115326672.983 7  89864937.18744
      2454.659        1912.717          46.000          34.000
  23862078.124    23862076.8874   23862085.9514  125396099.563 5  97711268.71142
     -3248.300       -2531.144          38.000          20.000
  20446048.016    20446048.0624   20446053.6424  107444719.192 8  83723199.39246
      1613.017        1256.897          51.000          42.000
  21937297.705    21937297.4564   21937303.6634  115281292.528 7  89829615.73544
       238.742         186.026          46.000          32.000
  21239078.803    21239078.3274   21239083.6104  111612110.508 7  86970509.23145
     -1888.299       -1471.400          49.000          39.000
  22816064.993    22816065.8514   22816072.4304  119899213.758 6  93428004.26943
      3557.845        2772.355          41.000          25.000
  24327845.879    24327846.0774   24327851.4734  127843720.381 5  99618521.92941
     -2910.588       -2267.991          38.000          17.000
  23569488.964    23569488.4784   23569494.9204  123858505.449 5  96513142.24641
       335.568         261.466          38.000          17.000
  23375936.299    23375935.8274   23375942.7684  122841379.380 5  95720576.54342
      3592.658        2799.458          39.000          21.000
  19239453.965    19239454.934    19239454.837   102882033.232 8  80019380.553 7
       313.780         244.047          54.000          46.000
  21517743.531    21517743.077    21517744.247   115024618.672 7  89463698.826 6
      3660.227        2846.840          45.000          40.000
  21363550.964    21363552.195    21363552.241   114400848.505 6  88978464.695 6
     -2899.532       -2255.187          44.000          41.000
  21212867.212    21212868.429    21212869.079   113554143.700 7  88319933.600 5
      3696.999        2875.443          46.000          35.000
  21708928.937    21708929.703    21708929.537   116454000.773 7  90575357.647 5
     -3634.157       -2826.559          45.000          38.000
  19233025.157    19233025.801    19233026.486   102883741.317 8  80020721.641 7
      -298.525        -232.182          50.000          46.000
 05  9 30  0  0 30.0000000  0 15G01G03G11G14G19G20G22G28G31R01R02R08
                                R17R23R24
  21931963.735    21931963.4204   21931971.0564  115253274.649 7  89807743.68944
      2438.625        1900.228          47.000          34.000
  23880633.839    23880631.8754   23880640.9024  125493608.688 5  97787249.82342
     -3252.094       -2534.091          38.000          21.000
  20436872.301    20436872.2104   20436877.9434  107396500.195 8  83685626.14946
      1601.671        1248.055          52.000          42.000
  21935993.643    21935993.7804   21936000.1614  115274440.601 7  89824276.57744
       218.197         170.029          46.000          32.000
  21249900.745    21249900.1334   21249905.4164  111668978.899 7  87014822.24845
     -1902.810       -1482.711          49.000          39.000
  22795778.203    22795778.2494   22795784.7394  119792601.511 6  93344929.79643
      3549.785        2766.058          43.000          25.000
  24344468.368    24344469.1814   24344472.0234  127931070.374 5  99686586.85241
     -2912.633       -2269.571          39.000          17.000
  23567626.990    23567625.8654   23567632.1004  123848718.814 5  96505516.29041
       317.073         247.066          39.000          17.000
  23355456.689    23355456.4884   23355462.6124  122733753.514 6  95636712.22242
      3582.525        2791.603          40.000          20.000
  19237747.099    19237747.798    19237747.359   102872902.299 8  80012278.718 7
       295.047         229.479          54.000          46.000
  21497235.252    21497235.313    21497235.879   114914992.766 7  89378434.253 6
      3648.287        2837.557          45.000          40.000
  21379814.892    21379815.841    21379816.134   114487938.389 6  89046201.276 6
     -2906.257       -2260.419          44.000          41.000
  21192191.178    21192192.544    21192193.488   113443464.228 7  88233849.585 5
      3681.790        2863.607          47.000          35.000
  21729286.802    21729286.434    21729287.250   116563201.005 7  90660291.159 5
     -3645.739       -2835.572          45.000          38.000
  19234773.325    19234773.177    19234773.894   102893086.980 8  80027990.480 7
      -324.384        -252.297          50.000          46.000
 05  9 30  0  1  0.0000000  0 14G01G03G11G14G19G20G22G28G31R02R08R17
                                R23R24
  21918087.493    21918087.7704   21918095.0414  115180355.518 7  89750923.59944
      2422.693        1887.812          47.000          34.000
  23899209.038    23899208.5474   23899216.8004  125591228.000 5  97863316.77541
     -3255.710       -2536.916          38.000          19.000
  20427760.779    20427760.9114   20427766.5444  107348619.345 8  83648316.39846
      1590.439        1239.304          52.000          42.000
  21934806.796    21934806.4034   21934812.7454  115268201.252 7  89819414.75844
       197.847         154.173          46.000          32.000
  21260804.656    21260803.9074   21260809.2174  111726278.180 7  87059471.02245
     -1917.071       -1493.818          49.000          39.000
  22775536.395    22775536.3314   22775542.3034  119686228.916 6  93262042.06143
      3541.774        2759.816          43.000          26.000
  24361101.678    24361102.0944   24361106.7564  128018480.009 5  99754698.25941
     -2914.554       -2271.072          38.000          16.000
  23565868.199    23565870.0654   23565874.5674  123839483.204 5  96498319.69241
       298.729         232.786          38.000          18.000
  23335033.008    23335032.6914   23335039.5764  122626430.178 6  95553083.63442
      3572.454        2783.747          40.000          21.000
  21476793.480    21476793.398    21476794.075   114805721.817 7  89293445.766 6
      3636.502        2828.395          45.000          40.000
  21396114.558    21396115.794    21396116.016   114575224.850 6  89114090.731 6
     -2912.754       -2265.472          44.000          41.000
  21171600.353    21171601.276    21171601.816   113333237.920 7  88148118.006 5
      3666.639        2851.821          47.000          35.000
  21749708.062    21749707.263    21749708.224   116672744.295 7  90745491.462 5
     -3657.027       -2844.356          45.000          39.000
  19236664.399    19236664.959    19236665.757   102903206.089 8  80035860.889 7
      -350.171        -272.358          50.000          46.000
 05  9 30  0  1 30.0000000  0 15G01G03G11G14G19G20G22G28G31R01R02R08
                                R17R23R24
  21904303.688    21904303.9934   21904311.1414  115107920.332 7  89694480.60644
      2406.371        1875.099          47.000          34.000
  23917805.371    23917805.9874   23917812.5914  125688958.196 5  97939470.15841
     -3259.522       -2539.889          38.000          19.000
  20418714.219    20418714.5374   20418720.1214  107301080.515 8  83611273.15446
      1578.908        1230.322          51.000          42.000
  21933736.096    21933736.3144   21933743.0244  115262576.877 7  89815032.14444
       177.210         138.092          46.000          32.000
  21271789.756    21271789.6864   21271794.6894  111784009.112 7  87104456.15245
     -1931.593       -1505.136          49.000          39.000
  22755340.476    22755340.3124   22755347.0884  119580100.286 6  93179344.45043
      3533.546        2753.423          43.000          25.000
  24377746.926    24377747.0254   24377751.0124  128105950.195 5  99822856.84841
     -2916.661       -2272.710          38.000          18.000
  23564217.041    23564216.5254   23564221.8874  123830800.514 5  96491553.94341
       280.151         218.297          38.000          18.000
  23314668.753    23314668.3694   23314675.4134  122519414.363 6  95469694.71442
      3561.990        2775.583          40.000          21.000
  19234644.414    19234645.197    19234644.858   102856313.309 8  79999376.185 7
       257.836         200.536          54.000          46.000
  21456419.665    21456419.140    21456420.497   114696810.379 7  89208736.875 6
      3624.322        2818.919          45.000          40.000
  21412451.794    21412452.743    21412452.977   114662708.013 6  89182133.183 6
     -2919.393       -2270.638          44.000          41.000
  21151094.155    21151095.942    21151096.651   113223472.496 7  88062744.885 5
      3651.131        2839.767          46.000          35.000
  21770192.817    21770192.397    21770192.019   116782628.769 7  90830957.153 5
     -3668.490       -2853.268          46.000          38.000
  19238701.439    19238701.773    19238702.343   102914100.655 8  80044334.426 7
      -376.114        -292.526          50.000          46.000
 05  9 30  0  2  0.0000000  0 15G01G03G11G14G19G20G22G28G31R01R02R08
                                R17R23R24
  21890611.857    21890611.9534   21890619.3594  115035969.801 7  89638415.25644
      2390.046        1862.377          47.000          34.000
  23936424.194    23936423.6644   23936430.6324  125786795.653 5  98015707.15941
     -3263.221       -2542.812          38.000          17.000
  20409732.884    20409733.0804   20409738.5774  107253882.830 8  83574495.74346
      1567.341        1221.303          52.000          42.000
  21932782.612    21932782.3434   21932789.0674  115257565.912 7  89811127.50244
       156.618         122.038          46.000          32.000
  21282857.521    21282856.8184   21282862.3014  111842168.502 7  87149775.14945
     -1945.967       -1516.339          48.000          39.000
  22735191.100    22735190.8014   22735198.4434  119474215.134 6  93096836.55943
      3525.278        2746.965          42.000          26.000
  24394403.045    24394403.9354   24394406.5054  128193477.909 5  99891060.23041
     -2918.677       -2274.313          38.000          18.000
  23562669.749    23562670.0944   23562675.4394  123822668.800 5  96485217.56841
       261.654         203.888          39.000          18.000
  23294362.131    23294362.6534   23294369.2114  122412707.278 5  95386546.35242
      3551.544        2767.437          39.000          20.000
  19233249.450    19233249.981    19233249.737   102848853.391 8  79993574.033 7
       239.217         186.051          54.000          46.000
  21436112.708    21436111.971    21436114.038   114588258.099 7  89124307.339 6
      3612.206        2809.492          45.000          40.000
  21428824.374    21428825.682    21428826.117   114750383.870 6  89250325.515 6
     -2925.916       -2275.712          44.000          41.000
  21130675.610    21130677.203    21130678.454   113114168.966 7  87977731.047 5
      3635.495        2827.611          47.000          36.000
  21790738.377    21790738.782    21790739.262   116892850.733 7  90916685.337 5
     -3679.821       -2862.079          45.000          38.000
  19240881.534    19240882.523    19240882.868   102925769.349 8  80053410.065 7
      -402.039        -312.690          50.000          46.000
 05  9 30  0  2 30.0000000  0 15G01G03G11G14G19G20G22G28G31R01R02R08
                                R17R23R24
  21877011.255    21877011.1894   21877019.1584  114964499.320 7  89582723.98644
      2374.337        1850.133          47.000          34.000
  23955059.814    23955062.1884   23955068.6934  125884730.984 5  98092020.45441
     -3266.123       -2545.040          39.000          18.000
  20400815.535    20400815.4204   20400821.0964  107207020.544 8  83537979.67546
      1556.509        1212.865          52.000          42.000
  21931944.418    21931944.2514   21931950.6134  115253161.235 7  89807695.29644
       136.731         106.542          46.000          32.000
  21294004.827    21294004.2814   21294009.7044  111900748.281 7  87195421.71845
     -1959.625       -1526.983          48.000          39.000
  22715086.942    22715087.2244   22715094.0164  119368567.969 6  93014514.10643
      3517.588        2740.984          42.000          26.000
  24411068.027    24411068.2424   24411072.7974  128281054.314 5  99959301.56941
     -2919.994       -2275.361          38.000          17.000
  23561226.628    23561225.2904   23561230.4334  123815080.740 5  96479304.77641
       243.916         190.060          38.000          18.000
  23274114.586    23274114.3594   23274120.7694  122306304.612 5  95303635.18542
      3541.649        2759.729          39.000          20.000
  19231956.189    19231956.918    19231956.957   102841940.110 8  79988197.040 7
       221.382         172.179          54.000          46.000
  21415871.059    21415871.607    21415871.761   114480059.173 7  89040152.629 6
      3600.776        2800.604          46.000          40.000
  21445232.054    21445233.321    21445233.037   114838242.815 6  89318660.243 6
     -2931.644       -2280.168          44.000          41.000
  21110343.245    21110344.451    21110345.572   113005325.878 7  87893075.326 5
      3620.431        2815.886          47.000          36.000
  21811348.369    21811348.072    21811348.501   117003399.074 7  91002667.358 5
     -3690.295       -2870.224          46.000          38.000
  19243205.902    19243206.930    19243207.758   102938204.334 8  80063081.706 7
      -427.235        -332.286          50.000          46.000
 05  9 30  0  3  0.0000000  0 15G01G03G11G14G19G20G22G28G31R01R02R08
                                R17R23R24
  21863503.528    21863503.4484   21863510.9274  114893513.868 7  89527410.65044
      2357.827        1837.273          48.000          34.000
  23973716.654    23973716.1214   23973723.8604  125982765.174 5  98168410.72041
     -3269.736       -2547.854          38.000          18.000
  20391962.335    20391962.2974   20391967.9594  107160497.254 8  83501727.76346
      1544.846        1203.778          52.000          42.000
  21931222.086    21931222.0704   21931228.4474  115249365.215 7  89804737.36244
       116.107          90.476          46.000          32.000
  21305232.238    21305231.8244   21305237.1364  111959749.532 7  87241396.70545
     -1973.983       -1538.166          48.000          38.000
  22695029.473    22695028.7534   22695036.1714  119263162.812 6  92932380.23443
      3509.187        2734.432          44.000          26.000
  24427742.520    24427743.9124   24427748.6134  128368680.873 5 100027581.98741
     -2921.962       -2276.823          39.000          17.000
  23559884.988    23559885.3974   23559892.5794  123808038.450 5  96473817.28641
       225.424         175.682          38.000          18.000
  23253924.921    23253925.7494   23253933.5234  122200212.055 5  95220965.66641
      3530.966        2751.395          39.000          19.000
  19230766.345    19230767.088    19230766.806   102835575.327 8  79983246.653 7
       202.755         157.698          54.000          46.000
  21395697.426    21395697.664    21395698.743   114372218.323 7  88956276.423 5
      3588.415        2790.990          46.000          39.000
  21461672.683    21461674.175    21461673.982   114926284.739 6  89387137.291 6
     -2938.021       -2285.123          44.000          40.000
  21090097.528    21090099.122    21090099.480   112896948.355 7  87808781.691 5
      3604.579        2803.563          48.000          35.000
  21832017.336    21832016.916    21832016.914   117114273.592 7  91088903.090 5
     -3701.464       -2878.914          46.000          38.000
  19245675.437    19245675.513    19245676.428   102951408.211 8  80073351.381 7
      -453.272        -352.540          50.000          46.000
 05  9 30  0  3 30.0000000  0 15G01G03G11G14G19G20G22G28G31R01R02R08
                                R17R23R24
  21850088.843    21850088.9734   21850096.5564  114823021.899 7  89472481.85344
      2341.474        1824.531          48.000          34.000
  23992391.167    23992392.3224   23992399.6614  126080902.791 5  98244881.55541
     -3272.951       -2550.320          38.000          18.000
  20383175.255    20383175.1914   20383180.8554  107114320.288 8  83465745.71446
      1533.441        1194.893          51.000          42.000
  21930616.823    21930616.4524   21930623.1344  115246184.038 7  89802258.53344
        95.787          74.633          45.000          32.000
  21316541.239    21316540.5374   21316546.0034  112019177.198 7  87287703.97245
     -1988.021       -1549.107          48.000          38.000
  22675019.271    22675018.2104   22675025.1644  119158007.384 6  92850440.94243
      3500.980        2728.034          43.000          26.000
  24444428.888    24444428.7284   24444433.1984  128456362.117 5 100095905.03441
     -2923.681       -2278.207          39.000          18.000
  23558650.521    23558649.2714   23558655.5344  123801547.297 5  96468759.20741
       207.140         161.412          37.000          17.000
  23233797.510    23233797.7234   23233807.0824  122094438.524 5  95138544.74142
      3520.434        2743.211          39.000          21.000
  19229680.226    19229680.707    19229680.143   102829764.136 8  79978726.839 7
       184.504         143.502          54.000          46.000
  21375593.241    21375592.783    21375593.022   114264743.144 7  88872684.630 6
      3576.403        2781.656          46.000          40.000
  21478148.615    21478150.107    21478150.469   115014514.269 6  89455760.263 6
     -2944.068       -2289.826          43.000          40.000
  21069938.890    21069941.481    21069941.724   112789046.177 7  87724857.780 5
      3588.827        2791.304          48.000          35.000
  21852745.813    21852746.184    21852746.707   117225477.969 7  91175395.357 5
     -3712.289       -2887.317          45.000          38.000
  19248289.052    19248289.393    19248289.940   102965388.015 7  80084224.546 7
      -478.903        -372.469          46.000          46.000
 05  9 30  0  4  0.0000000  0 15G01G03G11G14G19G20G22G28G31R01R02R08
                                R17R23R24
  21836768.710    21836768.9974   21836776.0714  114753023.062 7  89417937.31744
      2324.858        1811.572          47.000          34.000
  24011086.275    24011087.2074   24011091.1514  126179138.927 6  98321429.18142
     -3276.352       -2553.012          40.000          20.000
  20374453.657    20374453.7504   20374459.1714  107068488.122 8  83430032.34246
      1521.792        1185.812          52.000          42.000
  21930127.529    21930128.1624   21930134.2414  115243614.841 7  89800256.57044
        75.274          58.655          46.000          32.000
  21327930.097    21327929.9574   21327934.9814  112079027.353 7  87334340.44445
     -2002.212       -1560.168          48.000          39.000
  22655055.122    22655054.8674   22655062.7154  119053100.333 6  92768695.20843
      3492.563        2721.471          44.000          26.000
  24461123.015    24461124.3704   24461127.9984  128544093.882 5 100164267.44641
     -2925.401       -2279.507          38.000          19.000
  23557518.672    23557518.0494   23557525.4184  123795604.372 5  96464128.32641
       188.787         147.079          38.000          17.000
  23213730.246    23213730.3484   23213737.5174  121988984.082 5  95056372.44842
      3509.647        2734.781          39.000          21.000
  19228695.607    19228696.417    19228695.878   102824502.181 8  79974634.220 7
       166.035         129.133          54.000          46.000
  21355556.493    21355555.642    21355555.253   114157632.426 7  88789376.310 6
      3564.071        2772.053          46.000          40.000
  21494658.958    21494660.398    21494660.818   115102925.832 6  89524524.810 6
     -2950.276       -2294.666          43.000          40.000
  21049873.094    21049873.894    21049874.353   112681619.374 7  87641303.598 5
      3572.691        2778.763          48.000          35.000
  21873536.640    21873536.967    21873537.180   117337005.653 7  91262139.109 5
     -3723.142       -2895.781          45.000          38.000
  19251046.443    19251046.960    19251047.884   102980139.643 8  80095698.025 7
      -504.815        -392.630          50.000          46.000
 05  9 30  0  4 30.0000000  0 15G01G03G11G14G19G20G22G28G31R01R02R08
                                R17R23R24
  21823542.257    21823542.2944   21823549.3414  114683516.908 7  89363776.68344
      2308.526        1798.852          48.000          34.000
  24029797.427    24029796.4864   24029803.2734  126277468.886 5  98398049.90941
     -3279.304       -2555.311          38.000          19.000
  20365797.489    20365797.4684   20365802.8154  107022999.244 8  83394586.46546
      1510.446        1176.969          51.000          42.000
  21929754.452    21929754.6674   21929760.9744  115241654.891 7  89798729.34344
        55.086          42.931          46.000          32.000
  21339398.863    21339398.3054   21339403.7124  112139295.681 7  87381302.76845
     -2015.990       -1570.901          49.000          38.000
  22635140.083    22635139.7954   22635146.1214  118948440.488 6  92687142.10243
      3484.439        2715.141          43.000          27.000
  24477826.523    24477826.2964   24477832.8974  128631872.116 5 100232666.04241
     -2926.783       -2280.613          38.000          18.000
  23556492.597    23556491.0824   23556497.3124  123790206.492 5  96459922.18241
       170.716         133.017          38.000          17.000
  23193724.475    23193723.0064   23193730.0804  121883849.285 6  94974449.25042
      3499.101        2726.563          40.000          20.000
  19227813.956    19227814.687    19227813.856   102819785.761 8  79970965.898 7
       148.032         115.132          54.000          46.000
  21335587.185    21335586.082    21335586.346   114050885.239 7  88706350.730 6
      3552.055        2762.711          46.000          40.000
  21511201.895    21511203.481    21511203.529   115191513.978 6  89593426.693 6
     -2955.948       -2299.068          43.000          40.000
  21029894.091    21029895.857    21029896.324   112574674.286 7  87558124.089 5
      3556.714        2766.329          48.000          35.000
  21894388.244    21894387.737    21894387.759   117448851.584 7  91349130.383 5
     -3733.521       -2903.847          45.000          38.000
  19253948.578    19253948.650    19253949.410   102995660.803 8  80107770.026 7
      -530.262        -412.424          50.000          46.000
 05  9 30  0  5  0.0000000  0 15G01G03G11G14G19G20G22G28G31R01R02R08
                                R17R23R24
  21810410.696    21810410.6954   21810418.5134  114614510.526 7  89310005.48345
      2291.859        1785.866          48.000          35.000
  24048526.038    24048525.7824   24048533.0474  126375895.622 5  98474746.09941
     -3282.574       -2557.855          38.000          18.000
  20357207.632    20357207.7034   20357212.9344  106977859.733 8  83359412.82346
      1498.788        1167.887          52.000          42.000
  21929498.481    21929498.8664   21929504.7124  115240308.645 7  89797680.33244
        34.630          26.981          45.000          32.000
  21350947.594    21350947.3134   21350952.5174  112199985.048 7  87428593.16845
     -2029.994       -1581.817          48.000          38.000
  22615271.555    22615271.0934   22615278.4584  118844034.071 6  92605786.45943
      3475.969        2708.548          43.000          27.000
  24494540.044    24494540.4744   24494544.1304  128719700.259 5 100301103.52741
     -2928.424       -2281.893          39.000          18.000
  23555569.608    23555568.7234   23555576.6834  123785358.049 5  96456144.14641
       152.448         118.773          38.000          17.000
  23173780.871    23173779.8664   23173786.5854  121779041.456 6  94892780.79742
      3488.158        2718.029          40.000          20.000
  19227034.469    19227034.920    19227034.757   102815618.413 8  79967724.630 7
       129.781         100.934          54.000          46.000
  21315684.798    21315685.382    21315686.382   113944507.883 7  88623612.800 6
      3539.716        2753.105          46.000          40.000
  21527779.378    21527780.351    21527780.426   115280281.145 6  89662467.819 6
     -2961.897       -2303.701          43.000          40.000
  21010008.298    21010008.658    21010009.498   112468216.556 7  87475323.632 5
      3540.396        2753.637          47.000          36.000
  21915296.490    21915296.201    21915296.822   117561016.852 7  91436370.026 5
     -3744.127       -2912.101          45.000          38.000
  19256994.658    19256994.544    19256995.442   103011955.880 8  80120443.962 7
      -556.045        -432.484          50.000          46.000
 05  9 30  0  5 30.0000000  0 15G01G03G11G14G19G20G22G28G31R01R02R08
                                R17R23R24
  21797375.288    21797375.1894   21797382.4164  114546007.796 7  89256626.74445
      2274.953        1772.689          48.000          35.000
  24067274.517    24067273.6434   24067282.8714  126474418.745 5  98551517.36141
     -3285.796       -2560.354          36.000          17.000
  20348684.783    20348684.9044   20348690.2394  106933072.129 8  83324513.39146
      1487.000        1158.703          52.000          42.000
  21929359.963    21929359.6624   21929365.0024  115239577.489 7  89797110.60744
        14.062          10.956          46.000          32.000
  21362576.482    21362576.4634   21362581.5214  112261096.079 7  87476212.14045
     -2044.094       -1592.802          48.000          38.000
  22595452.098    22595451.9674   22595459.4564  118739883.857 6  92524630.46843
      3467.332        2701.802          43.000          26.000
  24511262.221    24511262.7894   24511266.3904  128807577.995 5 100369579.66741
     -2930.114       -2283.188          39.000          18.000
  23554749.642    23554750.5774   23554757.5594  123781060.155 5  96452795.11441
       134.021         104.415          37.000          18.000
  23153899.947    23153900.1624   23153905.3294  121674565.276 6  94811370.80142
      3476.873        2709.208          40.000          22.000
  19226357.405    19226358.218    19226358.014   102811999.823 8  79964910.173 7
       111.450          86.680          54.000          46.000
  21295856.433    21295855.934    21295856.138   113838503.222 7  88541164.746 6
      3527.210        2743.383          47.000          40.000
  21544388.833    21544389.835    21544390.704   115369226.969 6  89731647.890 6
     -2967.869       -2308.339          42.000          40.000
  20990211.631    20990213.180    20990213.365   112362250.873 7  87392905.872 5
      3523.919        2740.817          48.000          36.000
  21936264.628    21936264.763    21936265.723   117673500.167 7  91523857.031 5
     -3754.772       -2920.373          45.000          38.000
  19260184.537    19260185.230    19260186.128   103029026.222 8  80133720.881 7
      -581.976        -452.645          50.000          46.000
 05  9 30  0  6  0.0000000  0 15G01G03G11G14G19G20G22G28G31R01R02R08
                                R17R23R24
  21784433.747    21784433.8554   21784441.2994  114478000.471 7  89203634.03045
      2258.285        1759.705          48.000          35.000
  24086039.619    24086038.5174   24086044.5754  126573025.691 5  98628353.91441
     -3288.602       -2562.555          38.000          19.000
  20340227.044    20340227.3914   20340232.6154  106888626.942 8  83289880.77846
      1475.453        1149.704          52.000          42.000
  21929335.605    21929335.4584   21929341.4994  115239450.880 7  89797011.97244
        -6.173          -4.812          46.000          32.000
  21374283.611    21374283.2724   21374288.7014  112322616.719 7  87524150.28745
     -2057.823       -1603.498          49.000          38.000
  22575679.697    22575680.2164   22575687.1904  118635980.675 6  92443666.97643
      3458.934        2695.270          43.000          27.000
  24527992.514    24527993.6564   24527995.1904  128895493.728 5 100438085.44041
     -2931.507       -2284.236          38.000          16.000
  23554037.182    23554036.3224   23554041.4664  123777301.342 5  96449866.18541
       115.984          90.356          39.000          17.000
  23134080.003    23134079.9874   23134085.9524  121570413.195 6  94730213.33542
      3465.960        2700.731          40.000          22.000
  19225781.360    19225781.931    19225781.683   102808918.141 8  79962513.312 7
        93.422          72.659          54.000          46.000
  21276093.020    21276093.229    21276094.556   113732862.515 7  88458999.764 6
      3514.917        2733.823          47.000          40.000
  21561030.336    21561031.233    21561031.591   115458338.163 6  89800956.593 6
     -2973.453       -2312.681          43.000          40.000
  20970507.363    20970508.910    20970509.397   112256771.731 7  87310866.535 5
      3507.509        2728.068          48.000          36.000
  21957290.300    21957290.408    21957290.269   117786287.446 7  91611580.453 5
     -3764.958       -2928.296          45.000          37.000
  19263519.431    19263519.886    19263520.924   103046860.348 8  80147591.858 7
      -607.496        -472.499          50.000          46.000
 05  9 30  0  6 30.0000000  0 15G01G03G11G14G19G20G22G28G31R01R02R08
                                R17R23R24
  21771588.736    21771588.3944   21771596.6054  114410498.924 7  89151035.43945
      2241.388        1746.535          48.000          35.000
  24104819.021    24104820.3714   24104827.4984  126671722.679 5  98705260.62141
     -3291.556       -2564.816          37.000          18.000
  20331836.648    20331836.6404   20331841.8304  106844533.640 8  83255522.36146
      1463.709        1140.553          51.000          42.000
  21929427.612    21929427.9154   21929434.1634  115239936.563 7  89797390.43244
       -26.594         -20.723          46.000          32.000
  21386069.836    21386069.5764   21386074.7024  112384553.569 7  87572412.75245
     -2071.689       -1614.301          49.000          38.000
  22555956.763    22555956.7194   22555962.7584  118532334.672 6  92362903.86443
      3450.369        2688.602          43.000          27.000
  24544729.011    24544729.8814   24544735.4844  128983454.144 5 100506626.07041
     -2932.961       -2285.446          37.000          14.000
  23553425.191    23553424.9034   23553433.4324  123774089.210 5  96447363.20141
        97.776          76.202          39.000          19.000
  23114323.556    23114323.8744   23114329.3824  121466596.221 6  94649316.96742
      3454.699        2691.988          40.000          21.000
  19225306.705    19225307.500    19225307.515   102806381.223 8  79960540.155 7
        75.306          58.568          54.000          46.000
  21256401.186    21256401.248    21256402.096   113627595.540 7  88377125.466 6
      3502.461        2724.138          47.000          41.000
  21577702.273    21577703.584    21577704.247   115547620.750 6  89870398.589 6
     -2979.144       -2317.112          43.000          40.000
  20950896.653    20950897.599    20950898.179   112151791.248 7  87229215.052 5
      3490.788        2715.061          48.000          36.000
  21978375.456    21978374.790    21978374.113   117899384.452 7  91699544.810 5
     -3775.247       -2936.300          45.000          36.000
  19266998.040    19266998.044    19266999.296   103065467.018 8  80162063.694 7
      -633.294        -492.552          50.000          46.000
 05  9 30  0  7  0.0000000  0 15G01G03G11G14G19G20G22G28G31R01R02R08
                                R17R23R24
  21758839.176    21758839.5594   21758847.1204  114343501.389 7  89098829.58045
      2224.910        1733.698          47.000          35.000
  24123616.540    24123615.3154   24123623.4394  126770503.717 5  98782232.87741
     -3293.965       -2566.707          37.000          17.000
  20323512.279    20323512.4414   20323517.5954  106800789.142 8  83221435.73946
      1452.443        1131.776          51.000          42.000
  21929636.156    21929636.1214   21929642.1644  115241030.421 7  89798242.79544
       -46.452         -36.195          46.000          32.000
  21397934.440    21397934.0364   21397939.1574  112446901.737 7  87620995.73045
     -2084.946       -1624.630          48.000          38.000
  22536282.046    22536281.5084   22536288.4844  118428942.997 6  92282338.93343
      3442.234        2682.266          43.000          27.000
  24561477.975    24561476.4254   24561481.3654  129071454.012 5 100575197.33241
     -2933.900       -2286.146          37.000          14.000
  23552916.013    23552915.7204   23552925.8524  123771419.397 5  96445282.80841
        80.086          62.389          37.000          18.000
  23094630.718    23094630.3784   23094638.4294  121363112.997 5  94568680.70742
      3443.965        2683.616          39.000          21.000
  19224933.195    19224933.912    19224933.604   102804382.675 8  79958985.737 7
        57.796          44.949          54.000          46.000
  21236777.496    21236777.706    21236779.397   113522699.367 7  88295539.571 6
      3490.466        2714.805          46.000          41.000
  21594406.733    21594407.707    21594408.166   115637068.334 6  89939968.931 5
     -2984.153       -2321.004          43.000          39.000
  20931377.434    20931379.206    20931380.108   112047309.024 7  87147951.109 5
      3474.529        2702.401          48.000          36.000
  21999512.761    21999512.801    21999513.155   118012783.113 6  91787743.770 5
     -3784.800       -2943.723          44.000          37.000
  19270620.092    19270620.142    19270620.885   103084842.104 8  80177133.193 7
      -658.521        -512.174          50.000          46.000
 05  9 30  0  7 30.0000000  0 15G01G03G11G14G19G20G22G28G31R01R02R08
                                R17R23R24
  21746187.850    21746187.6204   21746195.0784  114277016.169 7  89047022.92145
      2207.670        1720.269          47.000          35.000
  24142431.371    24142431.5214   24142438.8914  126869372.855 5  98859273.76641
     -3297.040       -2569.088          36.000          15.000
  20315255.476    20315255.6074   20315260.9264  106757400.330 8  83187626.27646
      1440.375        1122.370          51.000          42.000
  21929961.011    21929960.8334   21929966.9124  115242737.869 7  89799573.27844
       -67.118         -52.299          45.000          32.000
  21409877.807    21409877.4184   21409882.7974  112509664.951 7  87669902.12145
     -2098.959       -1635.547          48.000          38.000
  22516657.272    22516656.4764   22516663.5104  118325813.066 6  92201977.94743
      3433.284        2675.280          43.000          28.000
  24578230.959    24578230.5634   24578236.4894  129159497.588 5 100643802.66841
     -2935.434       -2287.379          36.000          16.000
  23552513.466    23552513.7854   23552519.0724  123769297.203 5  96443629.13141
        61.605          47.990          38.000          18.000
  23075005.097    23075004.5294   23075011.3084  121259972.414 6  94488311.40642
      3432.342        2674.559          40.000          22.000
  19224661.248    19224661.833    19224661.347   102802927.491 8  79957853.932 7
        39.483          30.706          54.000          46.000
  21217224.956    21217225.237    21217227.206   113418181.781 7  88214248.135 6
      3477.636        2704.827          46.000          41.000
  21611141.023    21611142.615    21611142.259   115726684.822 6  90009670.645 5
     -2989.953       -2325.517          42.000          39.000
  20911954.960    20911955.848    20911956.930   111943337.161 7  87067084.111 5
      3457.103        2688.861          48.000          36.000
  22020709.336    22020709.073    22020709.308   118126486.810 6  91876179.961 5
     -3795.158       -2951.789          44.000          37.000
  19274386.490    19274386.734    19274387.457   103104990.616 8  80192804.247 7
      -684.497        -532.381          50.000          46.000
 05  9 30  0  8  0.0000000  0 15G01G03G11G14G19G20G22G28G31R01R02R08
                                R17R23R24
  21733633.570    21733633.2804   21733641.0894  114211043.250 7  88995615.46345
      2190.915        1707.207          47.000          35.000
  24161262.058    24161262.8604   24161269.5594  126968325.781 5  98936379.94441
     -3299.342       -2570.934          38.000          16.000
  20307066.587    20307066.6184   20307071.8574  106714366.541 8  83154093.45146
      1428.921        1113.448          51.000          42.000
  21930402.047    21930402.1374   21930408.5814  115245056.548 7  89801380.04344
       -87.073         -67.848          46.000          32.000
  21421899.638    21421899.1184   21421904.4104  112572839.791 7  87719129.26345
     -2112.280       -1645.930          48.000          38.000
  22497082.165    22497082.0104   22497089.0414  118222943.817 6  92121820.10543
      3425.007        2668.839          44.000          27.000
  24594993.160    24594993.4244   24594995.6894  129247581.486 5 100712439.43941
     -2936.351       -2288.081          37.000          15.000
  23552211.410    23552211.9554   23552219.0374  123767719.530 5  96442399.76241
        43.913          34.258          38.000          19.000
  23055442.641    23055442.5994   23055450.5924  121157175.123 6  94408209.65242
      3421.221        2665.900          41.000          22.000
  19224490.330    19224490.821    19224490.166   102802012.453 8  79957142.244 7
        21.909          17.034          54.000          46.000
  21197743.952    21197744.062    21197745.043   113314042.167 7  88133250.674 6
      3465.397        2695.308          47.000          41.000
  21627907.843    21627909.067    21627908.799   115816465.116 6  90079499.762 6
     -2994.945       -2329.405          43.000          40.000
  20892628.019    20892629.032    20892630.090   111839877.115 7  86986615.189 5
      3440.570        2675.998          48.000          36.000
  22041961.467    22041961.041    22041961.262   118240490.344 6  91964849.371 5
     -3804.651       -2959.176          44.000          37.000
  19278296.920    19278297.150    19278297.956   103125909.587 8  80209074.545 7
      -709.745        -552.022          50.000          46.000
 05  9 30  0  8 30.0000000  0 16G01G03G11G14G19G20G22G24G28G31R01R02
                                R08R17R23R24
  21721176.188    21721176.0574   21721183.3194  114145577.469 7  88944603.18045
      2173.779        1693.860          49.000          35.000
  24180106.546    24180108.6624   24180112.9794  127067353.600 5  99013544.46341
     -3302.082       -2573.067          39.000          19.000
  20298944.252    20298943.8824   20298949.2094  106671681.577 8  83120832.44246
      1417.076        1104.215          52.000          43.000
  21930958.373    21930958.5824   21930964.5684  115247978.816 7  89803657.15244
      -107.413         -83.708          46.000          32.000
  21433997.767    21433997.5224   21434002.8334  112636417.424 7  87768670.26245
     -2125.868       -1656.520          48.000          38.000
  22477554.638    22477554.7924   22477561.7074  118120329.701 6  92041861.05843
      3416.273        2662.030          44.000          28.000
  24611761.264    24611761.5194   24611760.3024  129335696.778 5 100781100.66641
     -2937.676       -2289.103          38.000          13.000
  24979192.958                                   131266576.215 4
      3420.990                          32.000
  23552013.553    23552014.5634   23552022.4224  123766678.743 5  96441588.74441
        25.779          20.089          37.000          18.000
  23035946.884    23035946.5394   23035952.6344  121054716.386 6  94328371.67042
      3409.686        2656.903          41.000          23.000
  19224418.903    19224419.281    19224418.673   102801628.526 8  79956843.636 7
         4.052           3.149          54.000          46.000
  21178332.760    21178332.352    21178333.199   113210274.618 7  88052542.599 6
      3452.799        2685.514          47.000          41.000
  21644702.236    21644703.825    21644703.717   115906399.786 6  90149448.933 6
     -3000.264       -2333.535          43.000          40.000
  20873395.766    20873397.025    20873397.506   111736924.397 7  86906540.854 5
      3423.383        2662.628          49.000          36.000
  22063267.804    22063267.051    22063267.974   118354783.373 6  92053743.939 5
     -3814.482       -2966.814          44.000          37.000
  19282349.750    19282349.994    19282351.212   103147590.951 8  80225937.820 7
      -735.297        -571.896          50.000          46.000
 05  9 30  0  9  0.0000000  0 16G01G03G11G14G19G20G22G24G28G31R01R02
                                R08R17R23R24
  21708816.927    21708816.7454   21708824.0984  114080629.832 7  88893994.64445
      2156.509        1680.397          48.000          36.000
  24198964.768    24198967.5414   24198973.1984  127166463.215 5  99090772.71341
     -3304.784       -2575.141          38.000          19.000
  20290889.243    20290889.6264   20290894.7724  106629355.398 8  83087851.00446
      1405.134        1094.908          52.000          42.000
  21931630.908    21931630.7684   21931636.6244  115251513.250 7  89806411.25744
      -127.763         -99.552          45.000          32.000
  21446174.505    21446173.9194   21446179.1444  112700405.284 7  87818530.92645
     -2139.519       -1667.161          48.000          37.000
  22458078.489    22458078.3124   22458085.1994  118017980.845 6  91962108.70743
      3407.419        2655.139          44.000          28.000
  24628535.870    24628536.0934   24628539.4874  129423851.241 5 100849792.48341
     -2938.881       -2290.050          37.000          13.000
  24959669.582                                   131163963.691 4
      3420.399                          30.000
  23551920.419    23551920.5464   23551928.2554  123766182.790 5  96441202.27541
         7.735           6.016          39.000          18.000
  23016514.814    23016514.5994   23016522.3384  120952608.132 6  94248806.79942
      3397.991        2647.787          40.000          23.000
  19224447.179    19224447.931    19224447.710   102801783.299 8  79956964.021 7
       -13.885         -10.804          54.000          46.000
  21158991.834    21158991.998    21158992.666   113106889.474 7  87972131.950 6
      3440.037        2675.581          46.000          41.000
  21661527.488    21661528.756    21661528.061   115996495.747 6  90219523.568 6
     -3005.613       -2337.697          42.000          40.000
  20854260.815    20854262.061    20854263.163   111634493.901 7  86826872.689 5
      3405.934        2649.057          49.000          36.000
  22084626.834    22084627.822    22084627.904   118469370.896 6  92142867.567 5
     -3824.209       -2974.380          43.000          36.000
  19286547.624    19286547.596    19286548.349   103170043.885 8  80243401.207 7
      -761.053        -591.930          50.000          46.000
 05  9 30  0  9 30.0000000  0 16G01G03G11G14G19G20G22G24G28G31R01R02
                                R08R17R23R24
  21696554.231    21696554.2064   21696561.6074  114016191.137 7  88843782.68245
      2139.448        1667.097          48.000          36.000
  24217838.243    24217839.1324   24217847.8214  127265641.114 5  99168054.15241
     -3307.042       -2576.918          36.000          16.000
  20282901.495    20282901.5084   20282906.5844  106587377.696 8  83055141.10546
      1393.418        1085.776          52.000          42.000
  21932417.928    21932417.5634   21932423.9504  115255647.929 7  89809633.10244
      -147.829        -115.194          46.000          32.000
  21458426.924    21458425.9504   21458431.5274  112764790.464 7  87868701.18545
     -2152.765       -1677.483          48.000          37.000
  22438651.047    22438651.1174   22438657.6024  117915887.179 7  91882555.21443
      3398.825        2648.420          45.000          28.000
  24645315.729    24645317.2974   24645318.7644  129512031.908 5 100918504.62941
     -2939.810       -2290.779          38.000          15.000
  24940141.048                                   131061366.242 4
      3420.050                          32.000
  23551928.440    23551928.7704   23551935.3634  123766219.642 5  96441230.96241
       -10.092          -7.845          39.000          19.000
  22997149.798    22997149.0914   22997156.4864  120850841.531 5  94169508.17942
      3386.503        2638.844          39.000          22.000
  19224574.457    19224575.245    19224574.347   102802463.401 8  79957492.992 7
       -31.413         -24.436          54.000          46.000
  21139722.033    21139721.038    21139721.606   113003876.649 7  87892010.888 6
      3427.536        2665.858          46.000          41.000
  21678379.494    21678380.534    21678380.556   116086738.644 6  90289712.469 5
     -3010.533       -2341.529          42.000          39.000
  20835221.078    20835222.297    20835222.849   111532574.775 7  86747602.265 5
      3388.729        2635.677          48.000          36.000
  22106040.420    22106040.962    22106042.095   118584238.854 6  92232209.308 5
     -3833.562       -2981.657          43.000          37.000
  19290886.731    19290886.914    19290887.842   103193255.657 8  80261454.792 7
      -786.351        -611.602          50.000          46.000
 05  9 30  0 10  0.0000000  0 16G01G03G11G14G19G20G22G24G28G31R01R02
                                R08R17R23R24
  21684390.476    21684390.7234   21684397.8414  113952270.323 7  88793974.26645
      2122.170        1653.642          49.000          36.000
  24236727.111    24236725.3554   24236733.8144  127364892.174 5  99245392.65241
     -3309.412       -2578.776          38.000          14.000
  20274981.227    20274981.3644   20274986.4414  106545756.447 8  83022708.96346
      1381.561        1076.542          52.000          42.000
  21933320.117    21933319.9274   21933325.9904  115260389.250 7  89813327.64244
      -167.982        -130.897          46.000          32.000
  21470754.882    21470754.7294   21470760.0174  112829578.285 7  87919185.18845
     -2166.134       -1687.896          47.000          37.000
  22419273.336    22419272.8394   22419280.0044  117814057.056 6  91803207.07843
      3390.086        2641.610          43.000          28.000
  24662102.852    24662102.3824   24662107.5464  129600244.251 5 100987241.52941
     -2940.712       -2291.448          38.000          17.000
  24920618.385                                   130958774.413 4
      3419.452                          32.000
  23552037.545    23552036.2174   23552042.4124  123766795.391 5  96441679.54741
       -27.986         -21.801          38.000          17.000
  22977850.940    22977851.2984   22977857.0644  120749426.206 6  94090483.23642
      3374.799        2629.697          40.000          23.000
  19224801.108    19224801.454    19224800.985   102803674.437 8  79958434.911 7
       -49.034         -38.138          54.000          46.000
  21120521.310    21120521.906    21120522.398   112901244.521 7  87812185.919 6
      3414.909        2656.038          47.000          41.000
  21695260.312    21695261.359    21695261.423   116177134.234 6  90360020.140 5
     -3015.494       -2345.388          42.000          39.000
  20816280.084    20816281.129    20816281.663   111431180.293 7  86668739.896 5
      3371.161        2622.010          48.000          36.000
  22127507.438    22127507.367    22127508.959   118699390.774 6  92321771.898 5
     -3842.902       -2988.926          43.000          37.000
  19295368.586    19295369.141    19295369.985   103217231.802 8  80280102.894 7
      -811.816        -631.409          50.000          46.000
 05  9 30  0 10 30.0000000  0 16G01G03G11G14G19G20G22G24G28G31R01R02
                                R08R17R23R24
  21672325.457    21672325.3414   21672333.0424  113888868.128 7  88744569.96845
      2104.896        1640.179          48.000          35.000
  24255625.773    24255627.6234   24255635.2254  127464213.276 5  99322785.76841
     -3311.679       -2580.516          38.000          17.000
  20267128.567    20267128.7064   20267133.8984  106504491.510 8  82990554.46546
      1369.710        1067.306          51.000          42.000
  21934337.349    21934337.0834   21934343.2674  115265735.482 7  89817493.54644
      -188.141        -146.605          45.000          32.000
  21483159.941    21483159.5964   21483164.9484  112894765.724 7  87969980.58145
     -2179.382       -1698.219          48.000          38.000
  22399946.037    22399945.8654   22399952.8804  117712490.564 6  91724064.37643
      3381.299        2634.772          44.000          28.000
  24678894.161    24678893.6954   24678898.2274  129688485.902 5 101056001.20441
     -2941.609       -2292.174          38.000          16.000
  24901100.209    24901100.4454   24901108.3704  130856196.391 5 101965870.37541
      3419.208        2664.307          35.000          11.000
  23552249.192    23552248.9064   23552255.9174  123767907.828 5  96442546.34841
       -45.870         -35.709          38.000          18.000
  22958619.442    22958619.3374   22958626.2604  120648364.534 6  94011733.88442
      3362.993        2620.518          40.000          23.000
  19225126.280    19225126.869    19225126.489   102805414.252 8  79959788.104 7
       -66.638         -51.834          54.000          46.000
  21101392.966    21101392.858    21101393.778   112798993.413 7  87732657.296 6
      3402.180        2646.141          46.000          40.000
  21712168.471    21712169.719    21712169.607   116267677.967 6  90430443.051 5
     -3020.428       -2349.221          42.000          39.000
  20797439.593    20797439.028    20797440.350   111330311.977 7  86590286.759 5
      3353.602        2608.353          48.000          37.000
  22149026.697    22149025.311    22149025.663   118814822.122 6  92411551.844 5
     -3852.195       -2996.151          43.000          36.000
  19299993.519    19299993.591    19299994.404   103241971.576 8  80299344.930 7
      -837.299        -651.231          50.000          46.000
 05  9 30  0 11  0.0000000  0 16G01G03G11G14G19G20G22G24G28G31R01R02
                                R08R17R23R24
  21660359.719    21660359.7004   21660367.2194  113825988.880 7  88695573.15745
      2087.381        1626.533          48.000          35.000
  24274539.913    24274540.1264   24274548.8074  127563604.871 5  99400233.74541
     -3314.067       -2582.375          37.000          19.000
  20259344.907    20259344.7414   20259349.9324  106463585.812 8  82958679.89246
      1357.660        1057.917          52.000          42.000
  21935470.221    21935470.2834   21935476.2534  115271688.541 7  89822132.30644
      -208.407        -162.398          45.000          32.000
  21495641.189    21495640.7294   21495645.8724  112960353.537 7  88021087.95845
     -2192.783       -1708.660          48.000          37.000
  22380669.209    22380669.2904   22380676.2284  117611191.355 6  91645129.94343
      3372.339        2627.788          44.000          29.000
  24695690.248    24695691.2664   24695694.7834  129776757.919 5 101124784.59141
     -2942.742       -2293.062          37.000          15.000
  24881583.957    24881585.0424   24881591.4664  130753635.657 5 101885952.95441
      3418.514        2663.775          35.000          11.000
  23552563.439    23552562.5994   23552569.2734  123769558.633 5  96443832.72241
       -63.839         -49.762          38.000          18.000
  22939456.503    22939456.4054   22939463.2174  120547661.486 6  93933263.96642
      3351.014        2611.173          40.000          22.000
  19225551.507    19225551.453    19225550.760   102807683.163 8  79961552.815 7
       -84.280         -65.553          54.000          46.000
  21082337.017    21082337.171    21082338.387   112697126.578 7  87653427.553 6
      3389.298        2636.125          47.000          41.000
  21729104.649    21729106.100    21729106.446   116358370.113 6  90500981.367 6
     -3025.414       -2353.097          42.000          40.000
  20778693.400    20778694.827    20778695.508   111229976.641 7  86512248.941 5
      3335.676        2594.416          48.000          36.000
  22170595.295    22170595.788    22170596.297   118930532.144 6  92501548.521 5
     -3861.448       -3003.340          43.000          36.000
  19304761.759    19304761.555    19304762.876   103267477.206 8  80319182.632 7
      -862.763        -671.033          50.000          46.000
 05  9 30  0 11 30.0000000  0 16G01G03G11G14G19G20G22G24G28G31R01R02
                                R08R17R23R24
  21648493.238    21648493.1124   21648500.6994  113763627.910 7  88646980.20445
      2069.960        1612.958          49.000          36.000
  24293463.074    24293463.6614   24293474.4284  127663057.837 4  99477729.46641
     -3316.102       -2583.970          34.000          18.000
  20251627.886    20251627.9084   20251633.1964  106423034.085 8  82927081.14846
      1345.738        1048.629          51.000          42.000
  21936716.727    21936716.9724   21936723.1244  115278241.130 7  89827238.23044
      -228.469        -178.037          45.000          32.000
  21508196.761    21508196.2344   21508201.5324  113026333.686 7  88072501.05745
     -2205.941       -1718.914          48.000          38.000
  22361442.680    22361442.4184   22361449.0474  117510154.172 6  91566399.68343
      3363.440        2620.870          44.000          29.000
  24712492.602    24712494.0964   24712499.6744  129865052.147 5 101193585.24441
     -2943.639       -2293.737          37.000          17.000
  24862069.580    24862070.9104   24862077.3524  130651085.907 4 101806044.09841
      3417.911        2663.273          34.000          11.000
  23552979.005    23552978.4674   23552983.8354  123771740.253 5  96445532.63641
       -81.602         -63.556          37.000          18.000
  22920360.191    22920360.7774   22920368.5514  120447313.015 6  93855070.37142
      3338.943        2601.771          40.000          23.000
  19226072.568    19226072.940    19226072.702   102810473.474 8  79963723.061 7
      -101.766         -79.154          54.000          46.000
  21063351.510    21063351.673    21063353.035   112595639.175 7  87574492.925 6
      3376.516        2626.178          46.000          40.000
  21746067.173    21746067.788    21746068.237   116449201.823 6  90571628.248 5
     -3030.136       -2356.771          41.000          39.000
  20760049.530    20760050.673    20760051.345   111130172.751 7  86434623.704 5
      3317.890        2580.579          48.000          36.000
  22192216.297    22192215.859    22192217.051   119046510.303 6  92591753.751 5
     -3870.405       -3010.303          43.000          37.000
  19309671.232    19309671.362    19309672.362   103293739.626 8  80339608.949 7
      -888.069        -690.719          50.000          46.000
 05  9 30  0 12  0.0000000  0 16G01G03G11G14G19G20G22G24G28G31R01R02
                                R08R17R23R24
  21636726.191    21636725.8134   21636733.5824  113701790.026 7  88598794.85245
      2052.814        1599.598          49.000          36.000
  24312401.930    24312403.4054   24312410.1664  127762573.543 5  99555274.13541
     -3317.990       -2585.442          36.000          15.000
  20243979.170    20243979.3724   20243984.6864  106382840.302 8  82895761.31646
      1334.083        1039.544          52.000          42.000
  21938077.521    21938078.3874   21938084.7274  115285395.706 7  89832813.23144
      -248.226        -193.430          45.000          32.000
  21520827.385    21520826.7914   21520831.8444  113092706.941 7  88124220.46445
     -2218.682       -1728.843          48.000          38.000
  22342266.614    22342265.9164   22342271.9784  117409383.066 6  91487876.75543
      3354.902        2614.210          44.000          29.000
  24729298.933    24729299.7144   24729304.6924  129953369.831 5 101262404.14741
     -2943.978       -2293.999          37.000          17.000
  24842557.854    24842556.7834   24842567.7064  130548550.462 4 101726146.38741
      3417.878        2663.271          34.000          10.000
  23553494.962    23553494.5034   23553498.5434  123774454.491 5  96447647.63141
       -99.033         -77.171          38.000          17.000
  22901333.448    22901333.9684   22901340.7784  120347325.004 6  93777157.64142
      3327.185        2592.611          41.000          24.000
  19226691.823    19226692.327    19226692.337   102813786.006 8  79966299.478 7
      -118.781         -92.389          54.000          46.000
  21044438.184    21044438.435    21044439.131   112494535.152 7  87495856.475 6
      3364.007        2616.449          47.000          41.000
  21763055.571    21763056.766    21763056.631   116540173.428 6  90642383.939 5
     -3034.436       -2360.117          42.000          39.000
  20741504.551    20741506.348    20741507.422   111030906.213 7  86357416.392 5
      3300.261        2566.865          48.000          37.000
  22213887.100    22213886.952    22213887.080   119162757.182 6  92682167.976 5
     -3879.007       -3017.010          43.000          36.000
  19314722.564    19314722.993    19314723.536   103320761.382 8  80360625.857 7
      -913.075        -710.169          50.000          46.000
 05  9 30  0 12 30.0000000  0 16G01G03G11G14G19G20G22G24G28G31R01R02
                                R08R17R23R24
  21625057.824    21625057.6014   21625065.2104  113640474.179 7  88551016.28445
      2035.024        1585.736          49.000          36.000
  24331351.480    24331351.3084   24331357.3104  127862146.542 5  99632863.54641
     -3320.161       -2587.168          38.000          16.000
  20236398.488    20236398.4524   20236403.7144  106343002.416 8  82864718.80946
      1321.902        1030.054          52.000          42.000
  21939553.443    21939553.8024   21939559.7074  115293148.344 7  89838854.25944
      -268.493        -209.221          45.000          32.000
  21533531.691    21533531.0194   21533536.1644  113159468.860 7  88176242.73445
     -2231.942       -1739.174          48.000          38.000
  22323140.544    22323140.1754   22323146.8024  117308876.005 6  91409559.58043
      3345.729        2607.062          44.000          29.000
  24746108.498    24746110.8274   24746114.3824  130041706.598 5 101331237.98641
     -2944.947       -2294.763          36.000          16.000
  24823048.376    24823046.7684   24823065.7344  130446027.372 4 101646258.30941
      3417.115        2662.701          33.000           8.000
  23554112.395    23554111.7784   23554117.1964  123777697.423 5  96450174.56441
      -117.013         -91.162          38.000          17.000
  22882374.518    22882375.3494   22882380.8174  120247696.846 5  93699525.31442
      3314.786        2582.947          39.000          23.000
  19227407.940    19227408.758    19227408.319   102817615.972 8  79969278.340 7
      -136.378        -106.074          54.000          46.000
  21025596.144    21025596.332    21025597.204   112393812.931 7  87417516.996 6
      3350.939        2606.280          47.000          41.000
  21780068.869    21780069.900    21780070.426   116631279.381 6  90713244.106 6
     -3039.203       -2363.823          42.000          40.000
  20723062.117    20723063.560    20723064.909   110932176.901 7  86280626.929 5
      3281.823        2552.528          48.000          37.000
  22235606.203    22235605.947    22235606.641   119279265.519 6  92772785.570 5
     -3887.997       -3023.998          43.000          36.000
  19319914.964    19319915.276    19319916.270   103348538.272 8  80382230.087 7
      -938.611        -730.027          50.000          46.000
 05  9 30  0 13  0.0000000  0 16G01G03G11G14G19G20G22G24G28G31R01R02
                                R08R17R23R24
  21613490.405    21613490.3124   21613497.5764  113579686.514 7  88503649.28545
      2017.072        1571.741          48.000          36.000
  24350310.266    24350311.3014   24350316.4474  127961779.126 5  99710499.34441
     -3322.397       -2588.885          37.000          17.000
  20228886.124    20228886.3034   20228891.5654  106303525.457 8  82833957.54146
      1309.511        1020.396          51.000          42.000
  21941143.426    21941143.5294   21941149.6544  115301502.717 7  89845364.16944
      -288.856        -225.083          45.000          31.000
  21546310.384    21546309.7594   21546315.1744  113226621.813 7  88228569.69745
     -2245.301       -1749.583          48.000          37.000
  22304065.778    22304065.9104   22304072.7904  117208638.596 7  91331452.52143
      3336.410        2599.790          45.000          29.000
  24762921.679    24762924.4424   24762928.2534  130130065.180 5 101400088.76941
     -2945.924       -2295.499          37.000          18.000
  24803541.981    24803541.5984   24803550.8534  130343521.391 4 101566383.47241
      3416.215        2662.035          34.000           9.000
  23554829.944    23554830.9864   23554838.1664  123781472.393 5  96453116.11241
      -135.045        -105.190          39.000          18.000
  22863485.592    22863486.2534   22863492.6064  120148435.805 6  93622179.04942
      3302.212        2573.139          40.000          23.000
  19228221.525    19228221.937    19228221.739   102821966.767 8  79972662.294 7
      -154.058        -119.826          54.000          46.000
  21006826.378    21006826.186    21006827.566   112293477.739 7  87339478.522 6
      3337.688        2595.979          47.000          41.000
  21797107.228    21797108.333    21797108.787   116722522.061 6  90784210.619 5
     -3044.012       -2367.568          41.000          39.000
  20704720.431    20704721.811    20704723.189   110833994.817 7  86204263.081 5
      3263.151        2538.000          49.000          37.000
  22257373.548    22257373.248    22257373.611   119396036.539 6  92863607.462 5
     -3897.106       -3031.085          43.000          35.000
  19325249.679    19325249.661    19325250.552   103377074.103 8  80404424.609 7
      -964.200        -749.930          50.000          46.000
 05  9 30  0 13 30.0000000  0 16G01G03G11G14G19G20G22G24G28G31R01R02
                                R08R17R23R24
  21602024.539    21602024.0254   21602031.4844  113519432.119 7  88456697.82145
      1999.552        1558.091          48.000          36.000
  24369280.393    24369279.8004   24369290.5074  128061472.655 4  99788182.54441
     -3324.089       -2590.199          33.000          15.000
  20221443.292    20221443.3544   20221448.8854  106264413.631 8  82803480.79446
      1297.570        1011.090          52.000          42.000
  21942848.020    21942847.9044   21942854.4624  115310461.454 7  89852345.00644
      -308.738        -240.575          45.000          32.000
  21559163.741    21559163.4644   21559168.7504  113294167.444 7  88281202.64845
     -2258.098       -1759.554          48.000          37.000
  22285043.200    22285043.4564   22285050.3454  117108675.490 7  91253559.20943
      3327.477        2592.833          45.000          29.000
  24779741.915    24779742.7574   24779746.2874  130218447.522 5 101468958.07641
     -2946.507       -2296.004          37.000          18.000
  24784039.006    24784037.5284   24784051.9064  130241036.510 5 101486525.11841
      3415.774        2661.642          35.000          12.000
  23555649.870    23555649.7774   23555657.9974  123785781.545 5  96456473.87141
      -152.607        -118.876          38.000          18.000
  22844668.478    22844668.4154   22844675.2364  120049547.743 6  93545123.40942
      3289.965        2563.619          41.000          23.000
  19229132.993    19229133.504    19229132.923   102826839.655 8  79976452.321 7
      -171.158        -133.127          54.000          46.000
  20988129.469    20988129.999    20988130.436   112193534.184 7  87261744.666 6
      3324.861        2586.003          47.000          41.000
  21814172.744    21814173.350    21814174.044   116813903.034 6  90855284.708 5
     -3048.354       -2370.949          41.000          39.000
  20686482.411    20686484.198    20686484.847   110736365.274 7  86128328.994 5
      3245.078        2523.946          49.000          37.000
  22279192.118    22279191.303    22279191.486   119513070.249 6  92954633.708 5
     -3905.486       -3037.608          44.000          36.000
  19330724.673    19330725.925    19330726.854   103406370.806 8  80427210.922 7
      -989.291        -769.449          50.000          46.000
 05  9 30  0 14  0.0000000  0 16G01G03G11G14G19G20G22G24G28G31R01R02
                                R08R17R23R24
  21590659.397    21590659.1214   21590666.2944  113459708.571 7  88410160.00645
      1982.370        1544.707          48.000          36.000
  24388263.184    24388262.8134   24388270.2094  128161220.905 5  99865908.41841
     -3325.375       -2591.188          37.000          16.000
  20214069.335    20214069.5024   20214074.8394  106225663.878 8  82773286.17646
      1286.071        1002.134          51.000          43.000
  21944667.252    21944667.1154   21944673.2184  115320019.420 7  89859792.78444
      -328.130        -255.685          45.000          32.000
  21572091.271    21572090.7284   21572095.8204  113362099.696 7  88334136.86345
     -2270.374       -1769.120          47.000          37.000
  22266072.628    22266072.2084   22266080.0654  117008983.609 6  91175877.22243
      3318.945        2586.198          44.000          29.000
  24796564.040    24796563.7854   24796569.5714  130306847.924 5 101537841.44941
     -2946.501       -2295.940          36.000          18.000
  24764541.177    24764538.6564   24764548.4314  130138568.890 4 101406680.27941
      3415.769        2661.636          34.000          12.000
  23556571.427    23556571.9474   23556576.7244  123790619.650 5  96460243.80241
      -169.606        -132.166          38.000          18.000
  22825920.646    22825920.9264   22825929.2464  119951031.167 6  93468357.25442
      3278.049        2554.327          40.000          23.000
  19230140.433    19230141.238    19230140.921   102832228.298 8  79980643.489 7
      -187.761        -146.038          54.000          46.000
  20969505.982    20969505.912    20969506.829   112093979.539 7  87184313.293 6
      3312.447        2576.350          47.000          41.000
  21831260.149    21831261.910    21831262.656   116905414.871 6  90926460.570 5
     -3052.088       -2373.842          40.000          39.000
  20668347.457    20668349.085    20668350.144   110639289.621 7  86052825.706 5
      3227.078        2509.953          49.000          37.000
  22301055.052    22301055.212    22301055.728   119630359.263 6  93045858.505 5
     -3913.410       -3043.762          43.000          36.000
  19336344.355    19336344.419    19336345.481   103436423.305 8  80450585.075 7
     -1013.915        -788.595          50.000          46.000
 05  9 30  0 14 30.0000000  0 17G01G03G07G11G14G19G20G22G24G28G31R01
                                R02R08R17R23R24
  21579394.463    21579394.3664   21579401.7314  113400512.510 7  88364033.21245
      1964.334        1530.650          48.000          36.000
  24407253.444    24407253.2924   24407261.3324  128261016.162 5  99943670.98041
     -3327.321       -2592.722          37.000          17.000
  25592808.345                                   134491117.036 4
      3750.973                          33.000
  20206763.557    20206763.6834   20206768.9584  106187271.789 8  82743370.26546
      1273.700         992.492          51.000          42.000
  21946598.505    21946598.5274   21946604.9594  115330170.631 7  89867702.83444
      -348.332        -271.436          45.000          32.000
  21585090.519    21585089.7764   21585095.1924  113430411.302 7  88387366.67945
     -2283.417       -1779.286          47.000          37.000
  22247152.490    22247152.5454   22247159.3984  116909558.876 6  91098403.42643
      3309.632        2578.923          44.000          29.000
  24813386.639    24813388.5194   24813393.6514  130395259.822 5 101606733.78341
     -2947.271       -2296.540          37.000          17.000
  24745044.429    24745045.0914   24745051.5594  130036114.028 4 101326845.31841
      3414.798        2660.816          34.000           9.000
  23557590.659    23557590.2144   23557598.5084  123795980.420 5  96464421.02341
      -187.421        -146.028          38.000          17.000
  22807244.344    22807243.9714   22807251.4084  119852883.288 6  93391878.39742
      3265.350        2544.426          40.000          23.000
  19231243.532    19231244.173    19231243.894   102838126.551 8  79985231.025 7
      -205.141        -159.557          54.000          46.000
  20950954.049    20950954.167    20950955.364   111994809.444 7  87107181.013 6
      3299.141        2565.998          47.000          42.000
  21848373.521    21848374.315    21848375.294   116997050.198 6  90997732.479 5
     -3056.606       -2377.357          41.000          39.000
  20650316.323    20650317.876    20650318.693   110542764.918 7  85977750.937 5
      3208.180        2495.253          49.000          37.000
  22322965.890    22322966.257    22322966.336   119747895.155 6  93137275.286 5
     -3921.990       -3050.432          43.000          36.000
  19342101.701    19342102.386    19342103.150   103467225.065 8  80474541.980 7
     -1039.317        -808.350          50.000          46.000
 05  9 30  0 15  0.0000000  0 17G01G03G07G11G14G19G20G22G24G28G31R01
                                R02R08R17R23R24
  21568230.701    21568230.6134   21568238.0314  113341846.421 7  88318319.38445
      1946.368        1516.654          48.000          36.000
  24426250.930    24426252.9174   24426257.9414  128360857.402 5 100021469.35941
     -3329.146       -2594.141          36.000          15.000
  25571401.760                                   134378624.979 4
      3748.001                          34.000
  20199526.144    20199526.4634   20199531.7614  106149238.881 8  82713734.23346
      1261.448         982.944          51.000          42.000
  21948643.275    21948643.1044   21948649.4324  115340914.926 6  89876075.01444
      -368.339        -287.015          44.000          32.000
  21598161.280    21598161.0194   21598166.3854  113499101.415 7  88440891.43245
     -2296.273       -1789.305          47.000          37.000
  22228283.727    22228284.1794   22228290.8234  116810403.087 7  91021139.19044
      3300.370        2571.713          45.000          30.000
  24830214.832    24830214.9874   24830219.8174  130483682.413 5 101675634.51341
     -2947.860       -2297.057          38.000          16.000
  24725550.906    24725550.6184   24725554.4194  129933673.342 4 101247021.45941
      3414.179        2660.416          33.000           8.000
  23558709.789    23558709.8044   23558718.3754  123801863.226 5  96469004.99841
      -205.097        -159.805          37.000          18.000
  22788638.375    22788638.8554   22788645.5564  119755107.571 6  93315689.51842
      3252.638        2534.511          41.000          24.000
  19232441.552    19232442.459    19232441.788   102844532.590 8  79990213.507 7
      -222.293        -172.898          54.000          46.000
  20932474.262    20932474.368    20932475.251   111896025.943 7  87030349.409 6
      3286.040        2555.809          47.000          41.000
  21865508.637    21865509.224    21865510.044   117088807.045 6  91069098.927 5
     -3060.966       -2380.753          41.000          39.000
  20632389.426    20632390.955    20632390.243   110446797.609 7  85903109.705 5
      3189.066        2480.382          46.000          37.000
  22344922.078    22344922.554    22344922.434   119865675.092 6  93228881.890 5
     -3930.322       -3056.915          43.000          36.000
  19348000.820    19348001.023    19348001.583   103498775.459 8  80499081.162 7
     -1064.473        -827.920          50.000          46.000
 05  9 30  0 15 30.0000000  0 17G01G03G07G11G14G19G20G22G24G28G31R01
                                R02R08R17R23R24
  21557168.135    21557168.0034   21557175.1394  113283710.840 7  88273018.94245
      1928.895        1503.036          49.000          36.000
  24445259.151    24445259.3964   24445266.6044  128460741.218 4 100099300.90141
     -3330.236       -2595.037          34.000          12.000
  25550011.205                                   134266212.779 4
      3745.643                          33.000
  20192356.935    20192357.1914   20192362.4384  106111564.553 8  82684377.61546
      1249.720         973.807          51.000          42.000
  21950800.540    21950800.1714   21950806.5924  115352250.341 7  89884907.81844
      -387.789        -302.172          45.000          31.000
  21611304.224    21611303.4474   21611308.9184  113568166.964 7  88494708.73045
     -2308.536       -1798.854          47.000          36.000
  22209466.689    22209466.7614   22209473.8384  116711516.400 7  90944084.65144
      3291.597        2564.880          45.000          30.000
  24847043.099    24847043.0074   24847049.3124  130572113.055 5 101744541.47441
     -2947.903       -2297.003          38.000          15.000
  24706059.983    24706059.0494   24706068.6074  129831246.462 5 101167208.36641
      3413.998        2660.192          35.000           8.000
  23559927.501    23559928.7794   23559932.4814  123808265.878 5  96473994.06741
      -222.268        -173.228          37.000          17.000
  22770103.286    22770103.0774   22770111.1694  119657705.666 6  93239791.95042
      3240.396        2524.983          41.000          24.000
  19233733.998    19233734.611    19233733.925   102851443.695 8  79995588.811 7
      -238.869        -185.789          54.000          46.000
  20914066.564    20914067.067    20914068.010   111797628.860 7  86953818.355 6
      3273.342        2545.928          47.000          41.000
  21882666.087    21882667.025    21882667.431   117180682.530 6  91140557.638 5
     -3064.612       -2383.582          41.000          39.000
  20614564.985    20614566.175    20614567.142   110351385.316 7  85828900.143 5
      3170.910        2466.266          49.000          37.000
  22366922.443    22366922.574    22366922.865   119983693.891 6  93320674.287 5
     -3937.997       -3062.886          43.000          36.000
  19354037.999    19354038.033    19354038.959   103531071.510 8  80524200.304 7
     -1089.109        -847.083          50.000          46.000
 05  9 30  0 16  0.0000000  0 17G01G03G07G11G14G19G20G22G24G28G31R01
                                R02R08R17R23R24
  21546207.764    21546207.5834   21546214.9944  113226113.685 7  88228138.04945
      1910.981        1489.073          49.000          37.000
  24464274.463    24464272.4224   24464283.8794  128560671.531 5 100177168.66641
     -3331.712       -2596.155          35.000          13.000
  25528634.610                                   134153888.828 4
      3742.787                          32.000
  20185257.670    20185257.5734   20185263.1734  106074256.483 8  82655306.39246
      1237.524         964.302          51.000          42.000
  21953070.513    21953070.7234   21953077.1204  115364182.170 7  89894205.35544
      -407.604        -317.612          45.000          31.000
  21624519.250    21624518.7074   21624524.0104  113637612.228 7  88548821.91445
     -2321.099       -1808.648          47.000          37.000
  22190701.928    22190701.7274   22190708.7444  116612905.822 7  90867245.25144
      3282.450        2557.751          45.000          30.000
  24863874.578    24863874.3774   24863875.5594  130660556.465 5 101813458.42841
     -2948.228       -2297.362          37.000          14.000
  24686572.916    24686571.7744   24686581.6214  129728839.881 5 101087410.97041
      3413.375        2659.777          36.000          11.000
  23561246.140    23561245.5564   23561253.3284  123815193.128 5  96479391.91641
      -239.607        -186.716          38.000          17.000
  22751641.038    22751641.3844   22751647.8284  119560686.235 6  93164192.37942
      3227.667        2515.067          41.000          24.000
  19235121.632    19235122.232    19235122.055   102858864.728 8  80001360.733 7
      -255.775        -198.942          54.000          46.000
  20895733.727    20895733.634    20895734.390   111699625.606 7  86877593.614 6
      3260.254        2535.755          47.000          41.000
  21899846.237    21899846.709    21899847.539   117272680.785 6  91212111.812 5
     -3068.582       -2386.675          41.000          39.000
  20596847.829    20596848.457    20596850.258   110256542.770 7  85755133.712 5
      3151.969        2451.530          48.000          37.000
  22388969.883    22388969.155    22388969.391   120101955.135 6  93412655.248 5
     -3946.014       -3069.117          43.000          36.000
  19360215.804    19360215.846    19360217.120   103564119.613 8  80549904.370 7
     -1114.056        -866.488          50.000          46.000
 05  9 30  0 16 30.0000000  0 17G01G03G07G11G14G19G20G22G24G28G31R01
                                R02R08R17R23R24
  21535350.638    21535350.4464   21535357.6904  113169059.858 7  88183680.53145
      1893.351        1475.335          49.000          37.000
  24483299.757    24483300.1284   24483307.9164  128660649.532 5 100255073.58841
     -3332.686       -2596.939          37.000          14.000
  25507280.690                                   134041658.553 4
      3740.127                          33.000
  20178228.389    20178228.6144   20178234.0984  106037318.851 8  82626523.82246
      1225.726         955.112          51.000          42.000
  21955455.583    21955455.4664   21955461.2694  115376712.750 7  89903969.44544
      -427.011        -332.734          45.000          31.000
  21637806.761    21637806.1794   21637811.6824  113707438.771 7  88603232.20245
     -2333.261       -1818.125          47.000          37.000
  22171990.470    22171990.3864   22171996.8894  116514576.245 7  90790624.80844
      3273.566        2550.823          46.000          30.000
  24880705.221    24880706.9874   24880711.8274  130749014.696 5 101882386.85641
     -2948.203       -2297.320          35.000          13.000
  24667090.932    24667092.2464   24667096.3764  129626457.705 5 101007632.69441
      3412.892        2659.399          35.000           9.000
  23562665.752    23562666.2454   23562671.8774  123822647.300 5  96485200.31541
      -256.609        -199.975          37.000          17.000
  22733252.568    22733252.9684   22733260.8244  119464055.438 6  93088895.66343
      3215.156        2505.320          41.000          25.000
  19236605.352    19236605.847    19236605.466   102866796.918 8  80007530.218 7
      -272.267        -211.770          54.000          46.000
  20877475.549    20877475.403    20877475.113   111602020.476 7  86801678.532 6
      3247.512        2525.839          48.000          41.000
  21917047.707    21917049.335    21917050.386   117364801.862 6  91283761.527 5
     -3072.104       -2389.413          41.000          39.000
  20579238.204    20579239.482    20579239.715   110162275.195 7  85681814.488 5
      3133.319        2437.032          49.000          37.000
  22411060.272    22411060.162    22411060.388   120220458.196 6  93504824.289 5
     -3953.486       -3074.941          42.000          36.000
  19366534.644    19366535.057    19366535.843   103597921.045 7  80576194.359 7
     -1138.593        -885.574          49.000          46.000
 05  9 30  0 17  0.0000000  0 17G01G03G07G11G14G19G20G22G24G28G31R01
                                R02R08R17R23R24
  21524596.373    21524596.3934   21524603.9394  113112547.200 7  88139644.70545
      1874.541        1460.684          48.000          37.000
  24502335.823    24502330.9334   24502342.7664  128760669.531 4 100333011.21541
     -3334.797       -2598.533          34.000          13.000
  25485937.937                                   133929520.207 4
      3736.178                          31.000
  20171269.305    20171269.4564   20171275.2374  106000748.805 8  82598027.68246
      1212.697         944.961          51.000          43.000
  21957952.922    21957953.0414   21957958.7694  115389837.247 7  89914196.33444
      -447.552        -348.748          45.000          31.000
  21651165.528    21651165.1894   21651170.7204  113777640.654 7  88657934.95645
     -2346.462       -1828.410          47.000          36.000
  22153332.106    22153331.3584   22153338.1914  116416524.860 7  90714221.14444
      3263.524        2543.010          46.000          30.000
  24897541.267    24897540.9024   24897546.2964  130837482.367 5 101951322.66941
     -2949.263       -2298.156          35.000          13.000
  24647609.100    24647610.8764   24647618.0784  129524096.741 5 100927870.96341
      3411.513        2658.333          36.000          12.000
  23564181.841    23564182.3714   23564189.0204  123830623.185 5  96491415.25041
      -274.699        -214.045          37.000          18.000
  22714937.736    22714937.2364   22714945.6654  119367811.862 6  93013900.69442
      3201.411        2494.619          40.000          24.000
  19238183.090    19238183.860    19238183.274   102875235.058 8  80014093.215 7
      -289.856        -225.445          54.000          46.000
  20859290.786    20859290.419    20859289.622   111504810.854 7  86726071.062 6
      3233.541        2514.980          48.000          41.000
  21934273.728    21934274.973    21934276.225   117457040.593 6  91355502.746 5
     -3076.681       -2392.971          41.000          39.000
  20561735.026    20561736.523    20561736.945   110068582.915 7  85608942.719 5
      3113.036        2421.249          46.000          37.000
  22433194.826    22433194.320    22433194.225   120339196.433 6  93597176.243 5
     -3961.962       -3081.525          42.000          35.000
  19372994.047    19372993.252    19372994.253   103632470.450 8  80603066.105 7
     -1164.303        -905.566          50.000          46.000
 05  9 30  0 17 30.0000000  0 17G01G03G07G11G14G19G20G22G24G28G31R01
                                R02R08R17R23R24
  21513947.177    21513947.0534   21513954.8244  113056585.133 7  88096037.90545
      1856.170        1446.363          48.000          37.000
  24521376.561    24521374.6774   24521381.6804  128860737.191 5 100410985.96641
     -3336.482       -2599.849          35.000          11.000
  25464620.602                                   133817483.538 4
      3732.833                          32.000
  20164381.689    20164381.9414   20164387.6864  105964554.570 8  82569824.38146
      1200.163         935.192          51.000          42.000
  21960564.837    21960564.8244   21960570.9734  115403562.584 7  89924891.40444
      -467.535        -364.316          45.000          32.000
  21664597.355    21664596.7484   21664602.3324  113848223.727 7  88712934.73645
     -2359.131       -1838.280          47.000          37.000
  22134727.849    22134727.5134   22134733.8574  116318759.962 7  90638040.71544
      3253.990        2535.583          46.000          30.000
  24914379.819    24914380.0054   24914384.9834  130925965.828 5 102020270.74341
     -2949.703       -2298.462          37.000          14.000
  24628136.565    24628135.4564   24628144.9314  129421765.123 4 100848132.04641
      3410.480        2657.539          34.000          10.000
  23565801.426    23565802.0834   23565808.4644  123839127.316 5  96498041.83641
      -292.241        -227.718          38.000          18.000
  22696699.583    22696699.8624   22696706.5634  119271965.858 6  92939215.50343
      3188.200        2484.307          40.000          25.000
  19239857.024    19239857.388    19239856.832   102884184.743 8  80021054.086 7
      -306.865        -238.677          54.000          46.000
  20841181.884    20841180.880    20841180.781   111408005.924 7  86650778.346 6
      3220.012        2504.455          48.000          41.000
  21951521.664    21951522.767    21951523.506   117549402.192 6  91427339.519 5
     -3080.798       -2396.181          41.000          38.000
  20544342.579    20544344.137    20544345.733   109975478.797 7  85536528.398 5
      3093.669        2406.188          49.000          38.000
  22455374.127    22455373.958    22455374.420   120458173.991 6  93689714.332 5
     -3969.898       -3087.696          42.000          36.000
  19379592.862    19379593.305    19379594.378   103667774.515 8  80630524.812 7
     -1189.410        -925.095          50.000          45.000
 05  9 30  0 18  0.0000000  0 17G01G03G07G11G14G19G20G22G24G28G31R01
                                R02R08R17R23R24
  21503401.727    21503401.5264   21503409.0004  113001166.768 7  88052854.77345
      1838.041        1432.237          49.000          37.000
  24540425.306    24540426.3424   24540433.6884  128960841.805 5 100488989.63841
     -3337.459       -2600.652          35.000          11.000
  25443318.267                                   133705542.323 4
      3729.702                          31.000
  20157564.679    20157564.4474   20157570.0774  105928728.515 8  82541907.97746
      1187.897         925.633          51.000          42.000
  21963288.939    21963288.7654   21963295.1054  115417879.386 7  89936047.35744
      -487.202        -379.638          45.000          31.000
  21678099.393    21678099.0814   21678104.4844  113919177.838 7  88768223.64945
     -2371.452       -1847.884          47.000          36.000
  22116176.750    22116176.2774   22116183.0194  116221274.684 7  90562078.18044
      3244.685        2528.318          46.000          31.000
  24931218.324    24931218.9864   24931222.7234  131014455.296 5 102089223.54941
     -2949.837       -2298.587          36.000          13.000
  24608668.675    24608670.8054   24608676.3104  129319455.262 4 100768410.09241
      3409.778        2656.981          32.000           7.000
  23567518.840    23567519.5954   23567524.1624  123848150.290 5  96505072.71741
      -309.522        -241.207          38.000          18.000
  22678535.276    22678534.8434   22678540.6134  119176511.629 6  92864835.58642
      3175.089        2474.104          41.000          24.000
  19241624.452    19241624.841    19241624.326   102893636.046 8  80028405.101 7
      -323.557        -251.661          54.000          46.000
  20823144.554    20823144.945    20823145.464   111311597.998 7  86575794.412 6
      3206.838        2494.205          47.000          41.000
  21968790.083    21968791.411    21968791.489   117641875.765 6  91499263.422 5
     -3084.430       -2399.003          41.000          37.000
  20527059.060    20527060.560    20527061.002   109882955.252 8  85464565.646 5
      3074.117        2390.983          50.000          37.000
  22477596.087    22477595.556    22477595.816   120577378.963 6  93782429.312 5
     -3977.456       -3093.573          41.000          35.000
  19386331.487    19386331.981    19386333.065   103703822.440 8  80658562.071 7
     -1214.142        -944.331          50.000          45.000
 05  9 30  0 18 30.0000000  0 17G01G03G07G11G14G19G20G22G24G28G31R01
                                R02R08R17R23R24
  21492961.422    21492961.1784   21492968.3934  112946302.330 7  88010103.26745
      1820.032        1418.208          49.000          37.000
  24559481.861    24559482.3744   24559490.1934  129060989.870 5 100567027.07241
     -3338.551       -2601.488          35.000          13.000
  25422036.616                                   133593707.201 4
      3726.521                          30.000
  20150818.829    20150818.9894   20150824.4084  105893280.540 8  82514286.17846
      1175.739         916.159          51.000          42.000
  21966127.340    21966127.4854   21966133.6914  115432795.097 7  89947670.00144
      -506.716        -394.846          45.000          31.000
  21691673.520    21691672.9804   21691678.2334  113990509.676 7  88823806.89245
     -2383.530       -1857.293          47.000          36.000
  22097681.392    22097680.9514   22097687.2944  116124078.855 7  90486341.18744
      3235.491        2521.167          46.000          31.000
  24948059.474    24948061.3104   24948063.0774  131102957.964 5 102158186.75841
     -2949.809       -2298.487          36.000           9.000
  24589203.566    24589206.4474   24589214.6324  129217176.491 4 100688712.38641
      3409.258        2656.575          33.000           9.000
  23569335.636    23569335.6144   23569339.5764  123857698.970 5  96512513.21041
      -326.566        -254.445          39.000          18.000
  22660447.172    22660447.0604   22660454.3054  119081460.566 6  92790769.79843
      3162.054        2463.921          41.000          25.000
  19243486.313    19243487.052    19243486.995   102903596.302 8  80036151.967 7
      -339.964        -264.422          54.000          46.000
  20805186.393    20805185.983    20805187.005   111215597.059 7  86501127.020 6
      3193.681        2483.970          48.000          41.000
  21986081.708    21986082.866    21986082.481   117734468.467 6  91571279.964 5
     -3087.897       -2401.699          41.000          38.000
  20509885.567    20509887.037    20509888.193   109791027.524 8  85393066.304 5
      3054.795        2375.941          50.000          37.000
  22499861.118    22499860.705    22499860.995   120696816.634 6  93875325.254 5
     -3984.637       -3099.158          42.000          36.000
  19393210.988    19393211.694    19393212.489   103740623.121 8  80687184.809 7
     -1238.719        -963.447          50.000          46.000
 05  9 30  0 19  0.0000000  0 17G01G03G07G11G14G19G20G22G24G28G31R01
                                R02R08R17R23R24
  21482624.559    21482624.4864   21482631.9704  112891983.504 7  87967776.92445
      1801.735        1403.948          49.000          37.000
  24578547.109    24578545.1834   24578554.0774  129161169.462 5 100645089.03541
     -3339.619       -2602.283          35.000          14.000
  25400774.730                                   133481970.652 4
      3723.058                          33.000
  20144143.707    20144143.7854   20144149.1084  105858201.498 8  82486951.85946
      1163.358         906.512          51.000          42.000
  21969077.327    21969077.4184   21969083.5074  115448298.872 7  89959750.86344
      -526.395        -410.181          45.000          31.000
  21705316.962    21705316.3014   21705321.9414  114062207.257 7  88879675.12745
     -2395.797       -1866.856          47.000          36.000
  22079238.432    22079238.4674   22079245.5824  116027163.605 7  90410822.83844
      3226.044        2513.802          46.000          31.000
  24964902.143    24964904.6444   24964907.9874  131191462.520 4 102227151.32641
     -2949.792       -2298.548          34.000           7.000
  24569746.111    24569744.0344   24569757.4754  129114919.470 4 100609031.61641
      3408.404        2655.921          34.000           9.000
  23571250.945    23571251.4414   23571257.2684  123867762.313 5  96520354.75441
      -343.795        -267.877          38.000          18.000
  22642436.428    22642435.7614   22642441.8604  118986805.185 6  92717012.38043
      3148.774        2453.593          43.000          25.000
  19245441.877    19245442.311    19245442.225   102914052.180 8  80044284.322 7
      -356.581        -277.343          54.000          46.000
  20787301.096    20787301.684    20787302.401   111119993.883 7  86426769.006 6
      3180.359        2473.610          48.000          41.000
  22003392.963    22003394.040    22003393.545   117827167.787 6  91643379.433 5
     -3091.503       -2404.503          41.000          38.000
  20492822.744    20492823.931    20492824.575   109699686.507 8  85322023.283 5
      3035.112        2360.648          50.000          37.000
  22522167.647    22522166.776    22522166.788   120816473.121 6  93968391.393 5
     -3991.932       -3104.834          42.000          36.000
  19400228.841    19400229.229    19400230.448   103778164.112 7  80716383.347 7
     -1263.467        -982.695          49.000          46.000
 05  9 30  0 19 30.0000000  0 17G01G03G07G11G14G19G20G22G24G28G31R01
                                R02R08R17R23R24
  21472390.638    21472390.5774   21472397.8914  112838203.858 7  87925870.71845
      1783.739        1389.926          49.000          37.000
  24597613.985    24597617.4564   24597622.9774  129261370.416 5 100723167.73741
     -3340.230       -2602.776          35.000          13.000
  25379526.021                                   133370326.593 4
      3720.065                          32.000
  20137537.063    20137537.2784   20137542.6994  105823484.113 8  82459899.35046
      1151.284         897.106          51.000          42.000
  21972137.825    21972137.9904   21972144.1294  115464381.677 7  89972282.93644
      -545.672        -425.200          45.000          31.000
  21719028.426    21719027.7394   21719033.2744  114134261.067 7  88935820.93945
     -2407.647       -1876.090          46.000          36.000
  22060848.295    22060847.8974   22060854.7724  115930521.854 7  90335517.57944
      3216.907        2506.682          46.000          31.000
  24981742.379    24981740.8374   24981747.2534  131279959.644 5 102296110.07341
     -2949.667       -2298.472          35.000          10.000
  24550291.400    24550292.2884   24550299.3394  129012676.931 4 100529362.17741
      3407.828        2655.439          34.000          10.000
  23573261.669    23573261.6104   23573266.1144  123878331.153 5  96528590.19941
      -360.619        -281.008          38.000          17.000
  22624497.090    22624496.1154   22624505.1614  118892540.124 6  92643559.08643
      3135.722        2443.425          40.000          25.000
  19247488.386    19247489.022    19247488.551   102924994.864 8  80052795.303 7
      -372.767        -289.936          54.000          46.000
  20769490.093    20769490.313    20769490.950   111024781.647 7  86352715.063 6
      3167.310        2463.459          48.000          41.000
  22020721.124    22020722.282    22020722.928   117919962.669 6  91715553.214 5
     -3094.605       -2406.908          40.000          38.000
  20475868.166    20475869.484    20475870.726   109608929.380 7  85251434.412 5
      3015.562        2345.437          49.000          38.000
  22544512.546    22544512.790    22544513.068   120936337.995 6  94061619.619 5
     -3998.846       -3110.206          42.000          35.000
  19407383.690    19407383.933    19407385.044   103816435.453 7  80746149.932 7
     -1287.805       -1001.624          49.000          45.000
 05  9 30  0 20  0.0000000  0 17G01G03G07G11G14G19G20G22G24G28G31R01
                                R02R08R17R23R24
  21462261.547    21462261.4154   21462268.7154  112784974.715 7  87884393.47245
      1765.250        1375.518          48.000          37.000
  24616685.070    24616686.0444   24616696.4794  129361600.380 4 100801268.96641
     -3341.356       -2603.657          34.000          11.000
  25358303.802                                   133258787.059 4
      3716.332                          33.000
  20131001.413    20131001.6164   20131007.0464  105789139.111 8  82433137.01146
      1138.737         887.326          51.000          42.000
  21975310.362    21975310.4864   21975316.3634  115481052.235 7  89985272.98544
      -565.315        -440.505          45.000          31.000
  21732809.150    21732808.6374   21732813.9154  114206678.549 7  88992250.13545
     -2419.834       -1885.585          47.000          36.000
  22042511.885    22042511.8924   22042518.7124  115834164.702 7  90260434.09844
      3207.294        2499.188          46.000          31.000
  24998582.023    24998583.7654   24998590.3484  131368457.697 5 102365069.53441
     -2949.748       -2298.513          37.000          13.000
  24530837.007    24530837.9364   24530847.7044  128910459.156 4 100449712.03741
      3406.968        2654.768          34.000          11.000
  23575371.523    23575370.2084   23575377.4704  123889413.699 5  96537225.93041
      -377.807        -294.414          37.000          17.000
  22606635.604    22606635.6104   22606641.8534  118798677.813 6  92570419.63943
      3122.100        2432.813          41.000          26.000
  19249627.026    19249627.703    19249627.448   102936432.574 8  80061691.299 7
      -389.354        -302.835          54.000          46.000
  20751755.238    20751754.302    20751754.837   110929971.283 7  86278973.675 6
      3153.786        2452.947          48.000          42.000
  22038070.106    22038070.478    22038070.907   118012861.573 6  91787807.909 5
     -3098.171       -2409.686          40.000          38.000
  20459024.995    20459026.130    20459027.571   109518767.808 8  85181308.752 5
      2995.545        2329.870          50.000          38.000
  22566895.871    22566896.677    22566896.891   121056416.736 6  94155014.168 5
     -4006.049       -3115.811          41.000          35.000
  19414676.256    19414676.820    19414677.826   103855446.859 8  80776492.119 7
     -1312.549       -1020.869          50.000          45.000
 05  9 30  0 20 30.0000000  0 17G01G03G07G11G14G19G20G22G24G28G31R01
                                R02R08R17R23R24
  21452237.348    21452237.4944   21452244.7724  112732298.074 7  87843346.74845
      1746.475        1360.892          49.000          37.000
  24635766.143    24635765.3074   24635772.7894  129461857.820 5 100879391.69241
     -3342.455       -2604.518          35.000          12.000
  25337098.296                                   133147354.468 4
      3712.518                          31.000
  20124536.809    20124537.0444   20124542.6254  105755167.646 8  82406665.73946
      1125.961         877.372          51.000          43.000
  21978594.367    21978594.4464   21978600.5124  115498309.652 7  89998720.32844
      -585.191        -455.990          45.000          31.000
  21746658.323    21746658.0004   21746663.2734  114279458.202 7  89048961.54245
     -2432.195       -1895.216          46.000          35.000
  22024230.318    22024230.2034   22024237.0884  115738093.440 7  90185573.38744
      3197.436        2491.511          46.000          31.000
  25015424.776    25015423.8294   25015428.8734  131456955.790 5 102434029.06141
     -2950.093       -2298.767          37.000          14.000
  24511392.306    24511395.4844   24511401.4614  128808267.442 4 100370082.19041
      3405.790        2653.832          33.000          12.000
  23577576.491    23577578.5294   23577583.8754  123901009.037 5  96546261.23841
      -395.175        -307.933          37.000          17.000
  22588851.132    22588851.8054   22588859.0074  118705221.498 6  92497596.52342
      3108.326        2422.077          40.000          24.000
  19251857.372    19251858.614    19251858.763   102948363.249 8  80070970.715 7
      -406.095        -315.851          53.000          46.000
  20734093.398    20734093.055    20734093.986   110835564.050 7  86205545.840 6
      3140.004        2442.226          48.000          42.000
  22055436.359    22055437.978    22055438.317   118105862.259 6  91860141.755 5
     -3101.858       -2412.551          40.000          38.000
  20442295.077    20442296.216    20442296.952   109429208.710 8  85111651.685 5
      2974.954        2313.859          50.000          38.000
  22589321.459    22589321.109    22589319.648   121176706.999 6  94248573.254 5
     -4013.304       -3121.454          42.000          35.000
  19422107.467    19422107.417    19422108.281   103895195.750 7  80807407.912 7
     -1337.420       -1040.212          49.000          45.000
 05  9 30  0 21  0.0000000  0 17G01G03G07G11G14G19G20G22G24G28G31R01
                                R02R08R17R23R24
  21442319.635    21442319.5224   21442326.7704  112680178.824 7  87802734.35945
      1728.335        1346.755          49.000          37.000
  24654848.570    24654849.8774   24654857.1794  129562144.093 5 100957536.84441
     -3342.904       -2604.860          35.000          14.000
  25315914.836                                   133036034.566 5
      3709.107                          35.000
  20118144.547    20118144.4154   20118150.0034  105721574.117 8  82380488.96546
      1113.830         867.923          51.000          43.000
  21981990.353    21981990.7994   21981997.1474  115516156.971 7  90012627.34144
      -604.380        -470.949          45.000          31.000
  21760576.987    21760576.5744   21760582.1094  114352601.919 7  89105956.63745
     -2443.816       -1904.273          46.000          35.000
  22006003.467    22006003.3464   22006010.0974  115642312.819 7  90110939.14344
      3188.160        2484.284          45.000          31.000
  25032264.148    25032265.4204   25032272.1854  131545456.130 5 102502990.35541
     -2949.667       -2298.448          35.000          12.000
  24491950.255    24491949.4864   24491960.9114  128706105.761 4 100290475.65241
      3405.180        2653.357          34.000          11.000
  23579881.268    23579881.2734   23579888.1924  123913119.103 5  96555697.61841
      -411.859        -320.930          38.000          18.000
  22571144.070    22571144.9914   22571152.3314  118612177.155 6  92425094.44743
      3094.916        2411.633          40.000          25.000
  19254182.064    19254182.573    19254182.304   102960788.928 8  80080635.138 7
      -422.083        -328.290          54.000          46.000
  20716508.599    20716509.098    20716509.621   110741564.730 7  86132435.266 6
      3126.794        2431.951          48.000          42.000
  22072823.639    22072824.283    22072824.288   118198966.475 6  91932556.142 5
     -3104.841       -2414.872          40.000          38.000
  20425678.597    20425679.568    20425680.278   109340259.670 8  85042469.094 5
      2955.131        2298.431          50.000          38.000
  22611784.389    22611784.505    22611782.971   121297208.980 6  94342297.012 4
     -4019.871       -3126.564          41.000          34.000
  19429676.205    19429676.085    19429677.494   103935685.209 7  80838899.699 7
     -1361.616       -1059.030          49.000          46.000
 05  9 30  0 21 30.0000000  0 17G01G03G07G11G14G19G20G22G24G28G31R01
                                R02R08R17R23R24
  21432507.339    21432507.0894   21432514.8364  112628615.722 7  87762555.32545
      1709.345        1331.960          49.000          37.000
  24673938.113    24673935.1544   24673946.9314  129662454.379 4 101035700.62341
     -3344.133       -2605.824          33.000          14.000
  25294749.487                                   132924826.673 4
      3704.952                          31.000
  20111823.477    20111823.3684   20111828.9564  105688356.750 8  82354605.30246
      1100.827         857.786          51.000          43.000
  21985498.015    21985497.9724   21985504.1884  115534589.368 7  90026990.25544
      -624.319        -486.488          45.000          31.000
  21774564.285    21774563.7864   21774569.4594  114426104.450 7  89163231.31645
     -2456.159       -1913.892          46.000          36.000
  21987831.922    21987831.4884   21987839.3664  115546820.962 7  90036529.92344
      3178.115        2476.456          45.000          31.000
  25049106.372    25049103.3084   25049108.8404  131633954.533 4 102571950.09641
     -2950.072       -2298.787          34.000           8.000
  24472516.796    24472513.3314   24472526.0634  128603972.122 5 100210890.96841
      3403.844        2652.326          35.000          11.000
  23582282.982    23582282.8184   23582288.9034  123925739.847 5  96565531.96441
      -429.274        -334.519          38.000          17.000
  22553519.382    22553519.3334   22553525.6634  118519544.494 6  92352913.15943
      3080.728        2400.569          43.000          26.000
  19256597.427    19256598.026    19256597.578   102973704.820 8  80090680.829 7
      -438.849        -341.331          54.000          46.000
  20699000.658    20698999.955    20699000.778   110647971.417 7  86059640.469 6
      3112.869        2421.120          48.000          42.000
  22090229.405    22090229.814    22090229.397   118292169.276 6  92005047.189 5
     -3108.497       -2417.720          41.000          37.000
  20409176.119    20409177.188    20409177.614   109251918.889 8  84973759.603 5
      2934.377        2282.293          50.000          37.000
  22634285.788    22634285.479    22634286.178   121417915.933 6  94436180.196 5
     -4027.075       -3132.164          41.000          35.000
  19437382.467    19437382.748    19437383.961   103976909.857 7  80870963.299 7
     -1386.509       -1078.395          49.000          45.000
 05  9 30  0 22  0.0000000  0 17G01G03G07G11G14G19G20G22G24G28G31R01
                                R02R08R17R23R24
  21422802.167    21422802.3574   21422809.8974  112577616.845 7  87722815.94645
      1690.595        1317.349          49.000          37.000
  24693032.378    24693032.2734   24693039.4434  129762793.189 4 101113886.65041
     -3344.957       -2606.458          34.000          12.000
  25273613.715                                   132813739.678 4
      3701.103                          32.000
  20105575.518    20105575.3394   20105580.8264  105655522.900 8  82329020.48346
      1088.108         847.877          51.000          43.000
  21989118.032    21989118.3234   21989124.1064  115553612.681 7  90041813.62044
      -643.889        -501.725          45.000          31.000
  21788621.019    21788620.1834   21788625.7174  114499970.625 7  89220789.35845
     -2468.206       -1923.274          46.000          36.000
  21969717.411    21969717.0364   21969724.0804  115451625.709 7  89962351.81244
      3168.277        2468.787          46.000          31.000
  25065947.130    25065946.8674   25065951.6674  131722456.111 5 102640912.36941
     -2950.000       -2298.700          36.000           9.000
  24453085.627    24453086.2034   24453093.6824  128501873.411 4 100131333.61841
      3402.821        2651.517          34.000          10.000
  23584783.287    23584783.0324   23584789.4884  123938876.586 5  96575768.38441
      -446.445        -347.901          38.000          17.000
  22535971.083    22535971.2194   22535978.0894  118427332.893 6  92281059.98943
      3066.767        2389.698          41.000          26.000
  19259105.085    19259105.727    19259105.813   102987116.575 8  80101112.195 7
      -455.225        -354.066          54.000          46.000
  20681569.454    20681569.044    20681569.597   110554791.822 7  85987167.470 6
      3099.173        2410.464          48.000          42.000
  22107651.957    22107653.056    22107653.595   118385475.142 6  92077618.407 5
     -3111.792       -2420.276          40.000          38.000
  20392788.499    20392789.721    20392790.959   109164197.197 8  84905531.622 5
      2913.881        2266.358          50.000          38.000
  22656827.483    22656826.397    22656826.538   121538831.578 6  94530225.680 5
     -4033.904       -3137.479          41.000          35.000
  19445227.539    19445227.564    19445228.648   104018874.948 7  80903602.806 7
     -1411.160       -1097.569          49.000          46.000
 05  9 30  0 22 30.0000000  0 17G01G03G07G11G14G19G20G22G24G28G31R01
                                R02R08R17R23R24
  21413204.095    21413204.2284   21413211.4364  112527176.196 7  87683511.56145
      1672.133        1302.960          49.000          37.000
  24712129.724    24712128.7614   24712134.7374  129863150.841 5 101192087.42141
     -3345.409       -2606.839          37.000          13.000
  25252495.316                                   132702769.206 4
      3697.083                          31.000
  20099398.751    20099398.9994   20099404.5004  105623066.027 8  82303729.41146
      1075.686         838.198          50.000          43.000
  21992849.289    21992849.5104   21992854.9174  115573218.462 6  90057090.85644
      -663.109        -516.713          44.000          31.000
  21802744.521    21802743.8974   21802749.2994  114574191.211 7  89278623.57445
     -2479.817       -1932.327          45.000          35.000
  21951657.607    21951657.1804   21951664.3934  115356720.558 7  89888399.75844
      3158.758        2461.365          47.000          31.000
  25082785.982    25082786.6324   25082790.3024  131810952.341 5 102709870.42641
     -2949.706       -2298.458          37.000          14.000
  24433665.345    24433665.6014   24433672.5274  128399803.174 4 100051798.37341
      3402.025        2650.931          34.000          12.000
  23587380.009    23587378.3294   23587384.7654  123952520.227 5  96586399.75041
      -463.165        -360.894          37.000          17.000
  22518502.812    22518502.9304   22518509.4934  118335537.538 6  92209531.08243
      3052.979        2378.942          41.000          25.000
  19261703.919    19261704.922    19261704.646   103001014.062 8  80111921.360 7
      -471.234        -366.520          54.000          46.000
  20664214.032    20664214.097    20664214.493   110462019.537 7  85915011.265 6
      3085.733        2400.010          48.000          42.000
  22125093.959    22125095.775    22125096.174   118478874.465 6  92150262.308 5
     -3114.744       -2422.583          40.000          38.000
  20376516.906    20376517.970    20376518.568   109077091.251 8  84837782.550 5
      2893.268        2250.321          50.000          38.000
  22679404.053    22679404.795    22679404.911   121659944.803 6  94624424.865 4
     -4040.331       -3142.483          41.000          34.000
  19453207.951    19453208.965    19453209.986   104061571.594 7  80936811.293 7
     -1435.339       -1116.372          49.000          46.000
 05  9 30  0 23  0.0000000  0 17G01G03G07G11G14G19G20G22G24G28G31R01
                                R02R08R17R23R24
  21403711.397    21403711.1764   21403718.6444  112477292.403 7  87644641.08645
      1653.581        1288.505          49.000          37.000
  24731228.324    24731230.9884   24731234.4814  129963522.577 5 101270299.31041
     -3345.827       -2607.118          35.000          11.000
  25231401.370                                   132591912.844 4
      3693.396                          33.000
  20093293.778    20093294.0294   20093299.3684  105590984.263 8  82278730.62946
      1063.226         828.485          51.000          43.000
  21996689.864    21996690.1864   21996696.1514  115593402.519 7  90072818.70144
      -682.325        -531.690          45.000          31.000
  21816934.547    21816934.2164   21816939.4634  114648761.072 7  89336729.95945
     -2491.362       -1941.331          46.000          35.000
  21933652.490    21933652.2354   21933658.9624  115262103.709 7  89814672.34444
      3149.155        2453.882          46.000          31.000
  25099624.106    25099624.6744   25099631.3464  131899439.166 5 102778821.19441
     -2949.260       -2298.133          36.000          17.000
  24414246.283    24414245.5114   24414253.0404  128297759.285 5  99972283.64441
      3401.174        2650.250          35.000          12.000
  23590072.589    23590073.8274   23590078.0564  123966666.537 5  96597422.85941
      -479.807        -373.877          39.000          18.000
  22501115.682    22501115.2884   22501120.5844  118244157.886 6  92138326.19843
      3039.116        2368.145          43.000          26.000
  19264392.911    19264393.759    19264393.415   103015392.572 8  80123104.646 7
      -487.189        -378.929          54.000          46.000
  20646933.801    20646934.275    20646934.837   110369652.429 7  85843170.201 6
      3072.181        2389.469          47.000          42.000
  22142551.549    22142553.103    22142554.001   118572361.865 6  92222974.712 5
     -3117.633       -2424.821          40.000          38.000
  20360359.720    20360361.025    20360361.658   108990602.540 8  84770513.568 5
      2872.705        2234.317          50.000          38.000
  22702017.317    22702016.535    22702017.008   121781249.261 6  94718772.779 4
     -4046.542       -3147.310          41.000          34.000
  19461326.763    19461326.891    19461328.212   104104995.226 7  80970585.220 7
     -1459.419       -1135.105          49.000          45.000
 05  9 30  0 23 30.0000000  0 17G01G03G07G11G14G19G20G22G24G28G31R01
                                R02R08R17R23R24
  21394325.329    21394325.3814   21394332.8944  112427970.554 7  87606208.48945
      1635.184        1274.168          49.000          37.000
  24750332.078    24750334.0684   24750339.6954  130063910.392 4 101348523.54341
     -3346.073       -2607.299          34.000          12.000
  25210328.816                                   132481177.471 4
      3689.656                          33.000
  20087261.216    20087261.2304   20087266.8184  105559282.131 8  82254027.66746
      1050.906         818.888          51.000          43.000
  22000641.119    22000641.1544   22000647.3584  115614167.341 7  90088999.09244
      -701.306        -546.477          45.000          31.000
  21831191.656    21831191.3364   21831196.4374  114723682.144 7  89395110.00045
     -2502.703       -1950.147          46.000          35.000
  21915703.472    21915703.0664   21915709.2954  115167780.361 7  89741173.64044
      3139.725        2446.544          47.000          31.000
  25116461.528    25116461.8984   25116468.0254  131987918.898 5 102847766.33941
     -2948.746       -2297.715          35.000          17.000
  24394833.845    24394831.1594   24394837.1684  128195746.496 4  99892793.14741
      3400.385        2649.673          34.000          12.000
  23592859.401    23592860.2544   23592866.3584  123981317.727 5  96608839.33541
      -496.245        -386.687          39.000          17.000
  22483805.867    22483805.1654   22483811.8594  118153200.427 6  92067450.22543
      3025.266        2357.345          42.000          25.000
  19267172.080    19267172.822    19267172.676   103030253.919 8  80134663.474 7
      -502.886        -391.139          54.000          46.000
  20629732.524    20629732.374    20629733.081   110277695.483 7  85771648.145 6
      3058.925        2379.166          48.000          42.000
  22160028.339    22160028.646    22160028.874   118665939.632 6  92295757.397 5
     -3120.205       -2426.832          40.000          38.000
  20344319.119    20344320.056    20344321.215   108904736.598 8  84703728.947 5
      2852.207        2218.385          50.000          38.000
  22724665.573    22724665.552    22724665.661   121902745.494 6  94813269.824 4
     -4052.507       -3151.947          41.000          34.000
  19469580.320    19469580.409    19469581.529   104149147.333 7  81004925.735 7
     -1483.330       -1153.699          49.000          45.000
 05  9 30  0 24  0.0000000  0 17G01G03G07G11G14G19G20G22G24G28G31R01
                                R02R08R17R23R24
  21385048.572    21385048.2494   21385055.6754  112379218.044 8  87568219.53445
      1615.743        1259.022          50.000          37.000
  24769439.246    24769439.2014   24769449.3094  130164317.894 4 101426763.05841
     -3347.005       -2608.018          34.000          14.000
  25189279.379                                   132370571.253 4
      3684.802                          30.000
  20081301.977    20081302.0364   20081307.5744  105527966.494 8  82229625.86946
      1037.556         808.484          51.000          43.000
  22004704.334    22004704.2244   22004710.3254  115635518.086 6  90105636.04744
      -721.284        -562.038          44.000          31.000
  21845516.510    21845515.9584   21845521.1284  114798958.952 7  89453767.25445
     -2514.990       -1959.736          46.000          35.000
  21897811.281    21897811.4634   21897817.6804  115073757.335 7  89667908.95844
      3129.247        2438.371          46.000          32.000
  25133298.860    25133299.9574   25133303.3544  132076396.362 5 102916709.72841
     -2949.195       -2298.081          35.000          16.000
  24375428.628    24375428.2174   24375438.6624  128093771.386 5  99813332.14841
      3398.643        2648.302          35.000          11.000
  23595744.777    23595745.6334   23595752.6844  123996478.246 5  96620652.70241
      -513.616        -400.213          38.000          18.000
  22466578.222    22466578.6454   22466584.8324  118062673.952 6  91996910.11943
      3010.446        2345.805          41.000          25.000
  19270042.929    19270043.473    19270043.075   103045603.143 8  80146601.755 7
      -519.560        -404.106          54.000          46.000
  20612607.527    20612607.964    20612609.245   110186155.855 7  85700450.671 6
      3044.513        2367.952          47.000          42.000
  22177519.800    22177520.831    22177521.523   118759611.642 6  92368613.390 5
     -3123.771       -2429.601          40.000          38.000
  20328396.958    20328398.496    20328398.895   108819505.020 8  84637437.717 5
      2830.698        2201.654          50.000          38.000
  22747351.158    22747351.053    22747350.347   122024436.223 6  94907918.171 4
     -4059.475       -3157.377          41.000          34.000
  19477971.166    19477971.444    19477972.730   104194033.034 7  81039836.829 7
     -1508.220       -1173.058          49.000          46.000
 05  9 30  0 24 30.0000000  0 17G01G03G07G11G14G19G20G22G24G28G31R01
                                R02R08R17R23R24
  21375877.718    21375877.6284   21375885.2934  112331025.949 8  87530667.26145
      1596.945        1244.373          50.000          38.000
  24788549.023    24788549.8864   24788556.5004  130264732.699 5 101505008.34841
     -3347.309       -2608.276          36.000          15.000
  25168256.582                                   132260086.105 4
      3680.779                          33.000
  20075414.664    20075414.6174   20075420.1094  105497027.729 8  82205517.73546
      1024.900         798.626          52.000          43.000
  22008876.412    22008876.6214   22008882.2644  115657442.862 7  90122720.29144
      -740.460        -576.991          45.000          31.000
  21859906.441    21859905.6884   21859911.3504  114874578.393 7  89512691.49045
     -2526.426       -1968.645          46.000          35.000
  21879974.886    21879974.3234   21879981.0364  114980025.383 7  89594871.07644
      3119.436        2430.728          47.000          32.000
  25150132.059    25150133.3834   25150137.5544  132164859.693 5 102985642.17741
     -2948.511       -2297.534          36.000          16.000
  24356027.974    24356028.6524   24356038.0764  127991824.453 5  99733892.95641
      3397.651        2647.507          36.000          11.000
  23598725.411    23598724.7224   23598731.1434  124012136.389 5  96632853.85941
      -530.267        -413.185          38.000          18.000
  22449432.948    22449433.0754   22449439.4834  117972570.666 6  91926699.75543
      2996.257        2334.742          42.000          26.000
  19273001.859    19273002.547    19273002.180   103061426.965 8  80158909.175 7
      -535.471        -416.483          54.000          46.000
  20595560.095    20595559.820    20595561.172   110095024.072 7  85629570.416 6
      3030.850        2357.329          48.000          43.000
  22195027.901    22195029.182    22195029.260   118853365.418 6  92441532.994 5
     -3126.552       -2431.760          40.000          37.000
  20312592.424    20312593.341    20312593.998   108734899.065 7  84571633.088 5
      2809.636        2185.274          49.000          38.000
  22770072.068    22770070.098    22770070.058   122146307.739 6  95002707.124 4
     -4065.510       -3162.053          41.000          33.000
  19486496.851    19486497.250    19486498.324   104239639.045 7  81075308.159 7
     -1532.296       -1191.782          49.000          45.000
 05  9 30  0 25  0.0000000  0 17G01G03G07G11G14G19G20G22G24G28G31R01
                                R02R08R17R23R24
  21366815.853    21366815.7684   21366823.1114  112283404.408 8  87493559.57645
      1578.208        1229.777          50.000          38.000
  24807658.728    24807661.5764   24807669.2754  130365161.462 5 101583264.54141
     -3347.506       -2608.426          35.000          12.000
  25147258.533                                   132149732.971 4
      3676.543                          33.000
  20069600.923    20069600.8774   20069606.2144  105466475.802 8  82181711.03746
      1012.297         788.802          51.000          42.000
  22013159.284    22013158.6444   22013165.7394  115679949.163 7  90140257.66844
      -759.550        -591.852          45.000          31.000
  21874362.690    21874362.3124   21874367.5634  114950547.651 7  89571888.30645
     -2537.741       -1977.457          46.000          35.000
  21862195.295    21862194.9514   21862202.0914  114886594.205 7  89522067.57344
      3109.686        2423.132          45.000          32.000
  25166964.927    25166964.2284   25166970.6334  132253316.770 5 103054569.70541
     -2948.034       -2297.177          38.000          17.000
  24336636.546    24336634.2874   24336643.2884  127889915.033 5  99654483.02541
      3396.721        2646.774          35.000          14.000
  23601800.448    23601800.2874   23601806.1274  124028299.059 5  96645448.10241
      -546.825        -426.074          38.000          19.000
  22432369.068    22432369.2414   22432376.0704  117882901.907 6  91856828.01043
      2981.991        2323.627          41.000          26.000
  19276050.775    19276051.644    19276051.378   103077733.022 8  80171591.658 7
      -551.196        -428.712          53.000          46.000
  20578590.570    20578590.279    20578591.413   110004309.861 7  85559014.937 6
      3017.206        2346.719          48.000          43.000
  22212553.167    22212553.495    22212553.836   118947208.060 6  92514521.680 5
     -3129.205       -2433.825          40.000          38.000
  20296905.923    20296907.385    20296908.285   108650931.955 8  84506325.337 5
      2788.549        2168.871          50.000          38.000
  22792824.290    22792822.292    22792823.348   122268365.220 5  95097640.725 4
     -4071.338       -3166.594          39.000          33.000
  19495158.702    19495159.048    19495160.099   104285972.865 7  81111345.564 7
     -1556.283       -1210.438          49.000          45.000
 05  9 30  0 25 30.0000000  0 17G01G03G07G11G14G19G20G22G24G28G31R01
                                R02R08R17R23R24
  21357860.744    21357860.9904   21357868.2534  112236346.643 7  87456891.20545
      1559.023        1214.819          49.000          38.000
  24826770.477    24826767.9244   24826779.8664  130465594.279 4 101661523.92641
     -3347.929       -2608.736          34.000           8.000
  25126279.830                                   132039505.997 4
      3671.891                          32.000
  20063859.369    20063859.3714   20063864.5034  105436303.252 8  82158199.95746
       999.250         778.637          51.000          43.000
  22017550.887    22017550.7394   22017557.4914  115703027.983 7  90158241.17044
      -779.018        -607.027          45.000          31.000
  21888883.727    21888883.3244   21888888.7904  115026856.460 7  89631349.70645
     -2549.442       -1986.578          45.000          35.000
  21844472.103    21844471.2544   21844478.0514  114793456.891 7  89449493.04944
      3099.508        2415.198          46.000          32.000
  25183796.164    25183797.5914   25183800.0574  132341758.237 5 103123485.12241
     -2947.873       -2296.990          39.000          17.000
  24317247.280    24317245.7424   24317258.3254  127788035.962 4  99575096.79841
      3395.268        2645.668          34.000          13.000
  23604970.172    23604970.5344   23604977.6004  124044957.006 5  96658428.31341
      -563.707        -439.232          38.000          18.000
  22415388.471    22415388.0764   22415395.0554  117793661.965 6  91787290.37443
      2967.289        2312.173          42.000          26.000
  19279188.609    19279189.268    19279189.187   103094511.004 8  80184641.202 7
      -567.279        -441.223          53.000          46.000
  20561696.079    20561696.701    20561697.365   109914005.910 7  85488778.556 6
      3003.091        2335.738          48.000          42.000
  22230091.214    22230092.640    22230092.992   119041128.626 6  92587571.013 5
     -3132.181       -2436.135          40.000          38.000
  20281339.592    20281341.011    20281341.268   108567599.442 8  84441511.161 5
      2766.764        2151.924          50.000          38.000
  22815609.190    22815609.936    22815610.104   122390597.567 6  95192710.313 4
     -4077.449       -3171.348          40.000          34.000
  19503954.269    19503954.957    19503955.973   104333024.988 7  81147941.651 7
     -1580.508       -1229.285          49.000          45.000
 05  9 30  0 26  0.0000000  0 17G01G03G07G11G14G19G20G22G24G28G31R01
                                R02R08R17R23R24
  21349014.757    21349014.3784   21349021.9004  112189858.445 7  87420666.64145
      1540.154        1200.120          49.000          38.000
  24845883.738    24845884.1984   24845892.9814  130566033.486 4 101739788.26941
     -3348.030       -2608.862          34.000          13.000
  25105329.770                                   131929412.143 4
      3667.552                          32.000
  20058190.623    20058190.8454   20058196.1584  105406515.667 8  82134988.85246
       986.544         768.738          51.000          43.000
  22022052.112    22022052.3074   22022058.4634  115726682.331 7  90176673.13044
      -797.990        -621.802          45.000          31.000
  21903470.496    21903469.7954   21903474.6324  115103507.417 7  89691077.71245
     -2560.674       -1995.334          46.000          35.000
  21826804.830    21826804.6574   21826811.9524  114700619.173 7  89377151.98144
      3089.620        2407.494          47.000          32.000
  25200623.035    25200621.8824   25200627.5964  132430187.401 5 103192390.96741
     -2947.348       -2296.652          38.000          16.000
  24297868.823    24297868.5384   24297877.1574  127686192.115 4  99495738.00941
      3394.173        2644.764          34.000          11.000
  23608234.572    23608233.6024   23608241.2184  124062113.645 5  96671797.08341
      -580.098        -452.009          37.000          18.000
  22398488.520    22398488.8534   22398494.7194  117704858.146 6  91718092.61343
      2952.893        2300.953          41.000          26.000
  19282415.676    19282415.761    19282415.574   103111763.510 8  80198059.818 7
      -582.934        -453.393          54.000          46.000
  20544880.551    20544880.674    20544881.908   109824118.187 7  85418865.904 6
      2989.361        2325.061          48.000          42.000
  22247644.596    22247646.331    22247647.101   119135130.673 5  92660683.704 5
     -3134.629       -2438.040          39.000          37.000
  20265892.216    20265893.326    20265894.091   108484910.019 7  84377197.169 5
      2745.570        2135.441          49.000          38.000
  22838428.125    22838428.349    22838429.110   122513006.241 6  95287917.020 5
     -4083.144       -3175.773          40.000          35.000
  19512885.367    19512885.553    19512886.422   104380797.227 7  81185097.824 7
     -1604.321       -1247.802          49.000          45.000
 05  9 30  0 26 30.0000000  0 17G01G03G07G11G14G19G20G22G24G28G31R01
                                R02R08R17R23R24
  21340278.550    21340278.2594   21340285.7884  112143949.157 7  87384893.18745
      1520.745        1184.995          49.000          38.000
  24864995.963    24864997.9044   24865008.3784  130666485.332 4 101818062.38941
     -3348.646       -2609.346          34.000          15.000
  25084409.023                                   131819461.690 4
      3662.744                          32.000
  20052596.977    20052597.3064   20052602.6734  105377121.854 8  82112084.58546
       973.303         758.412          50.000          43.000
  22026663.680    22026663.8314   22026670.5954  115750918.830 6  90195558.71544
      -817.462        -636.986          44.000          31.000
  21918122.573    21918121.9904   21918127.1344  115180506.690 7  89751077.14645
     -2572.347       -2004.434          46.000          35.000
  21809197.714    21809197.6624   21809203.7414  114608090.161 7  89305051.46844
      3079.252        2399.419          46.000          32.000
  25217449.560    25217450.2164   25217455.9294  132518611.223 5 103261292.61441
     -2947.302       -2296.591          37.000          17.000
  24278496.884    24278497.7884   24278502.4264  127584392.756 5  99416413.78341
      3392.679        2643.641          36.000          12.000
  23611594.789    23611595.9674   23611603.1814  124079774.521 5  96685558.79941
      -596.963        -465.150          37.000          17.000
  22381672.442    22381672.9964   22381682.4394  117616501.219 6  91649243.03543
      2937.873        2289.246          40.000          26.000
  19285731.386    19285732.023    19285731.531   103129497.468 8  80211852.897 7
      -599.036        -465.922          54.000          46.000
  20528144.629    20528145.205    20528145.247   109734655.287 7  85349283.678 6
      2975.114        2313.971          48.000          42.000
  22265216.576    22265217.681    22265217.079   119229219.927 6  92733864.228 5
     -3137.634       -2440.385          40.000          37.000
  20250567.478    20250568.473    20250568.624   108402873.491 8  84313390.985 5
      2723.635        2118.382          50.000          38.000
  22861279.832    22861280.598    22861280.636   122635595.349 6  95383264.102 4
     -4089.194       -3180.476          40.000          33.000
  19521951.801    19521951.614    19521952.321   104429295.945 7  81222819.034 7
     -1628.634       -1266.715          49.000          45.000
 05  9 30  0 27  0.0000000  0 17G01G03G07G11G14G19G20G22G24G28G31R01
                                R02R08R17R23R24
  21331648.951    21331649.0604   21331656.5764  112098604.209 7  87349559.46545
      1501.899        1170.311          49.000          38.000
  24884113.548    24884111.1684   24884119.5454  130766931.724 4 101896332.26541
     -3348.234       -2609.015          34.000          13.000
  25063509.025                                   131709640.996 4
      3658.408                          33.000
  20047075.525    20047075.9344   20047081.3104  105348106.625 8  82089475.31346
       960.660         748.567          51.000          43.000
  22031384.385    22031383.9754   22031389.9704  115775720.405 7  90214884.62844
      -836.335        -651.696          45.000          31.000
  21932837.504    21932836.9554   21932842.7554  115257836.244 7  89811333.92045
     -2583.359       -2013.006          46.000          35.000
  21791645.760    21791645.8724   21791652.3164  114515854.606 7  89233179.62444
      3069.419        2391.762          47.000          32.000
  25234272.347    25234271.5444   25234276.6934  132607012.331 5 103330176.57741
     -2946.439       -2295.950          37.000          17.000
  24259130.601    24259131.4174   24259139.7054  127482622.665 5  99337112.42441
      3391.715        2642.928          35.000          14.000
  23615049.464    23615049.4104   23615055.4064  124097922.513 5  96699700.06841
      -613.172        -477.837          38.000          17.000
  22364943.672    22364943.0864   22364950.2584  117528577.607 6  91580731.16843
      2923.314        2277.910          41.000          26.000
  19289134.192    19289134.668    19289134.631   103147694.311 8  80226005.999 7
      -614.475        -477.929          53.000          46.000
  20511486.048    20511485.876    20511486.071   109645602.243 7  85280020.220 6
      2961.408        2303.322          48.000          42.000
  22282797.760    22282799.843    22282800.766   119323377.948 5  92807098.229 5
     -3139.934       -2442.166          39.000          37.000
  20235361.820    20235363.029    20235363.598   108321480.327 7  84250085.194 5
      2702.202        2101.712          47.000          38.000
  22884163.018    22884163.399    22884163.828   122758345.473 6  95478736.436 4
     -4094.514       -3184.620          40.000          34.000
  19531149.514    19531150.411    19531150.850   104478504.004 8  81261091.959 7
     -1652.248       -1285.081          50.000          45.000
 05  9 30  0 27 30.0000000  0 17G01G03G07G11G14G19G20G22G24G28G31R01
                                R02R08R17R23R24
  21323128.491    21323128.4204   21323135.6394  112053826.390 8  87314667.67745
      1482.990        1155.578          50.000          38.000
  24903225.944    24903227.8214   24903234.1694  130867372.286 4 101974597.57741
     -3347.885       -2608.709          32.000           8.000
  25042635.825                                   131599954.058 4
      3653.837                          33.000
  20041626.775    20041627.0824   20041632.6104  105319472.528 8  82067163.02546
       947.992         738.696          51.000          43.000
  22036210.585    22036211.4004   22036217.0304  115801087.126 6  90234650.90344
      -855.093        -666.302          44.000          31.000
  21947616.129    21947615.3404   21947620.4804  115335495.681 7  89871847.75644
     -2594.227       -2021.474          45.000          34.000
  21774150.463    21774150.2884   21774157.0154  114423915.380 7  89161538.68544
      3059.556        2384.064          47.000          32.000
  25251089.024    25251091.0714   25251095.3234  132695391.422 5 103399043.31341
     -2945.692       -2295.340          38.000          16.000
  24239770.154    24239769.8854   24239778.5364  127380884.113 4  99257835.72341
      3390.542        2642.020          34.000          12.000
  23618595.647    23618596.5394   23618600.7884  124116557.525 5  96714220.81541
      -629.412        -490.430          39.000          17.000
  22348296.462    22348296.8264   22348302.4454  117441091.348 6  91512560.06243
      2908.786        2266.582          43.000          26.000
  19292623.169    19292624.399    19292624.098   103166354.230 8  80240519.266 7
      -629.825        -489.866          54.000          46.000
  20494904.317    20494904.068    20494904.115   109556961.626 7  85211077.537 6
      2947.677        2292.639          48.000          42.000
  22300395.236    22300396.699    22300396.349   119417604.843 5  92880385.790 5
     -3142.156       -2443.903          39.000          37.000
  20220276.340    20220277.970    20220279.081   108240731.530 7  84187280.571 5
      2680.675        2084.962          49.000          38.000
  22907078.347    22907077.464    22907077.392   122881255.339 6  95574332.977 5
     -4099.730       -3188.674          41.000          35.000
  19540479.986    19540481.408    19540482.605   104528420.322 7  81299915.748 7
     -1675.816       -1303.407          49.000          45.000
 05  9 30  0 28  0.0000000  0 17G01G03G07G11G14G19G20G22G24G28G31R01
                                R02R08R17R23R24
  21314716.133    21314716.1114   21314723.4654  112009620.356 7  87280221.42745
      1464.102        1140.859          49.000          37.000
  24922341.809    24922336.0294   24922344.3414  130967808.429 4 102052859.63041
     -3347.611       -2608.511          34.000          10.000
  25021789.690                                   131490406.230 4
      3649.381                          34.000
  20036251.179    20036251.6304   20036257.1454  105291223.840 8  82045151.05946
       935.307         728.812          51.000          43.000
  22041145.794    22041145.8974   22041152.2414  115827021.277 7  90254859.33344
      -873.793        -680.868          45.000          31.000
  21962457.417    21962456.7234   21962461.8674  115413486.217 7  89932619.59744
     -2605.053       -2029.907          46.000          34.000
  21756711.994    21756711.9984   21756718.5404  114332277.025 7  89090132.19644
      3049.700        2376.389          47.000          32.000
  25267905.394    25267904.9314   25267911.0784  132783750.319 5 103467894.35941
     -2944.756       -2294.619          39.000          16.000
  24220415.979    24220416.0154   24220422.4184  127279181.347 5  99178586.81641
      3389.560        2641.214          35.000          12.000
  23622234.825    23622234.4354   23622241.4164  124135681.619 5  96729122.69641
      -645.479        -502.984          38.000          18.000
  22331731.152    22331731.2254   22331737.1104  117354048.546 6  91444734.50443
      2894.149        2255.185          41.000          26.000
  19296200.120    19296200.820    19296200.307   103185478.502 8  80255393.699 7
      -645.048        -501.706          54.000          46.000
  20478400.369    20478400.422    20478400.678   109468737.926 7  85142459.124 6
      2933.972        2281.979          49.000          42.000
  22318003.951    22318005.335    22318006.543   119511902.572 5  92953728.471 5
     -3144.288       -2445.554          38.000          37.000
  20205314.787    20205316.002    20205317.199   108160636.020 8  84124984.062 5
      2659.011        2068.120          50.000          38.000
  22930017.438    22930018.293    22930018.796   123004324.831 5  95670053.641 5
     -4104.865       -3192.662          39.000          35.000
  19549946.142    19549945.949    19549946.712   104579046.542 8  81339291.686 7
     -1699.179       -1321.578          50.000          45.000
 05  9 30  0 28 30.0000000  0 17G01G03G07G11G14G19G20G22G24G28G31R01
                                R02R08R17R23R24
  21306413.260    21306413.4064   21306420.7864  111965989.040 7  87246223.00445
      1444.793        1125.812          49.000          38.000
  24941452.591    24941449.5924   24941458.1724  131068239.741 4 102131117.75841
     -3347.654       -2608.522          34.000          13.000
  25000973.911                                   131381001.571 5
      3644.419                          35.000
  20030949.554    20030949.7904   20030955.3824  105263363.123 8  82023441.40746
       922.200         718.599          51.000          43.000
  22046189.517    22046188.9904   22046195.5664  115853522.984 7  90275510.02444
      -892.845        -695.718          45.000          31.000
  21977360.750    21977360.8964   21977365.5504  115491807.698 7  89993649.31744
     -2616.209       -2038.601          46.000          34.000
  21739332.109    21739331.6924   21739337.8604  114240942.138 7  89018962.16744
      3039.442        2368.394          47.000          33.000
  25284714.436    25284715.8634   25284722.2064  132872089.833 5 103536730.41841
     -2944.346       -2294.271          36.000          12.000
  24201069.507    24201067.8904   24201078.1974  127177516.641 4  99099367.59941
      3388.146        2640.072          34.000          12.000
  23625966.084    23625965.9934   23625972.1804  124155294.462 5  96744405.41441
      -661.866        -515.727          38.000          18.000
  22315252.830    22315252.9724   22315260.7744  117267453.537 6  91377257.85143
      2878.986        2243.371          42.000          27.000
  19299863.340    19299863.971    19299863.473   103205066.873 8  80270629.100 7
      -660.667        -513.856          54.000          46.000
  20461974.397    20461974.223    20461974.657   109380933.224 7  85074166.597 6
      2919.826        2270.977          48.000          42.000
  22335627.067    22335628.597    22335628.981   119606270.322 5  93027125.572 5
     -3146.788       -2447.499          39.000          37.000
  20190475.769    20190476.797    20190477.981   108081199.092 8  84063199.795 5
      2636.722        2050.783          50.000          39.000
  22952989.585    22952989.572    22952988.897   123127552.018 5  95765896.992 4
     -4110.190       -3196.806          39.000          33.000
  19559543.187    19559542.814    19559543.519   104630381.703 7  81379219.022 7
     -1722.983       -1340.095          49.000          45.000
 05  9 30  0 29  0.0000000  0 17G01G03G07G11G14G19G20G22G24G28G31R01
                                R02R08R17R23R24
  21598011.752    21598011.6484   21598018.8034  113498347.902 8  88440268.88645
      1425.715        1110.947          50.000          38.000
  25260350.977    25260350.4454   25260360.6174  132744074.009 4 103436962.54641
     -3347.203       -2608.241          30.000          11.000
  25279975.948                                   132847158.983 5
      3639.683                          36.000
  20325512.979    20325513.4064   20325518.8524  106811304.978 8  83229629.86646
       909.390         708.612          51.000          42.000
  22351130.912    22351130.9384   22351137.4544  117456002.755 7  91524195.56644
      -911.561        -710.315          45.000          31.000
  22292118.666    22292117.5734   22292122.6674  117145868.298 7  91282527.70044
     -2626.978       -2047.004          46.000          34.000
  22021801.097    22021800.4434   22021807.2114  115725328.002 7  90175626.49544
      3029.365        2360.534          47.000          33.000
  25601310.400    25601306.3454   25601317.3914  134535818.864 4 104833142.73941
     -2943.290       -2293.489          34.000           4.000
  24481524.367    24481524.5644   24481532.1094  128651307.163 5 100247775.86941
      3386.977        2639.188          35.000          13.000
  23929584.015    23929582.1574   23929589.7774  125750806.732 5  97987661.72441
      -678.025        -528.310          38.000          17.000
  22598652.593    22598652.1984   22598659.1804  118756724.345 6  92537728.64843
      2864.106        2231.765          43.000          27.000
  19603403.647    19603404.230    19603404.258   104828234.614 8  81533092.899 7
      -675.893        -525.699          54.000          46.000
  20745418.707    20745418.973    20745419.493   110896106.826 7  86252634.967 6
      2905.965        2260.194          49.000          42.000
  22653053.500    22653054.725    22653054.631   121306070.926 5  94349192.698 5
     -3148.893       -2449.138          39.000          37.000
  20475550.323    20475551.926    20475552.934   109607230.462 8  85250113.078 5
      2614.848        2033.769          50.000          38.000
  23275779.167    23275780.575    23275780.601   124859110.222 5  97112664.556 4
     -4115.126       -3200.652          39.000          32.000
  19869062.068    19869062.159    19869062.713   106286102.181 7  82667001.605 7
     -1746.367       -1358.283          49.000          45.000
 05  9 30  0 29 30.0000000  0 17G01G03G07G11G14G19G20G22G24G28G31R01
                                R02R08R17R23R24
  21589927.441    21589927.4834   21589934.6404  113455865.913 7  88407166.04645
      1406.231        1095.759          49.000          38.000
  25279457.247    25279456.1334   25279463.6304  132844486.287 4 103515205.83741
     -3347.023       -2608.075          31.000           5.000
  25259209.690                                   132738044.132 5
      3634.507                          35.000
  20320358.958    20320359.0254   20320364.4614  106784218.941 8  83208523.86246
       896.178         698.317          51.000          43.000
  22356388.223    22356388.5444   22356394.3374  117483631.629 7  91545724.55444
      -930.497        -725.058          45.000          31.000
  22307146.449    22307146.1474   22307151.2464  117224841.905 7  91344065.56644
     -2638.057       -2055.635          45.000          34.000
  22004535.260    22004535.6554   22004542.5434  115634599.973 7  90104929.35144
      3018.993        2352.466          47.000          32.000
  25618115.304                                   134624112.985 4
     -2943.025                          33.000
  24462193.253    24462190.5644   24462203.0174  128549717.923 5 100168615.45941
      3385.432        2638.002          36.000          14.000
  23933498.079    23933500.0324   23933503.7804  125771388.973 5  98003699.82841
      -694.279        -540.993          38.000          18.000
  22582344.680    22582345.0584   22582352.0314  118671028.401 6  92470952.58243
      2848.754        2219.815          42.000          26.000
  19607238.599    19607239.403    19607239.170   104848742.047 8  81549043.123 7
      -691.409        -537.770          53.000          46.000
  20729149.634    20729149.900    20729150.346   110809139.789 7  86184993.955 6
      2891.677        2249.080          49.000          43.000
  22670700.561    22670701.624    22670700.879   121400569.511 5  94422691.576 5
     -3151.240       -2450.965          38.000          37.000
  20460958.891    20460960.321    20460960.344   109529115.913 8  85189357.319 5
      2592.503        2016.391          50.000          39.000
  23298807.639    23298807.541    23298809.653   124982639.934 5  97208743.178 5
     -4120.381       -3204.738          37.000          35.000
  19878921.965    19878921.575    19878922.626   106338845.707 7  82708024.327 7
     -1770.004       -1376.670          49.000          45.000
 05  9 30  0 30  0.0000000  0 16G01G03G07G11G14G19G20G22G24G28G31R02
                                R08R17R23R24
  21581954.449    21581954.4344   21581961.3894  113413965.870 8  88374516.67545
      1386.898        1080.700          50.000          38.000
  25298565.586    25298564.8634   25298571.2054  132944891.481 4 103593443.77941
     -3346.796       -2607.914          34.000           8.000
  25238474.295    25238476.0144   25238480.4464  132629083.280 5 103347359.19641
      3629.319        2828.000          35.000          11.000
  20315279.693    20315279.7514   20315285.2364  106757527.085 8  83187725.01046
       883.079         688.118          51.000          43.000
  22361753.757    22361754.2074   22361760.3644  117511827.575 7  91567695.42644
      -949.382        -739.778          45.000          31.000
  22322237.350    22322236.6884   22322241.9964  117304144.108 7  91405859.47444
     -2648.909       -2064.083          45.000          34.000
  21987330.410    21987330.0244   21987336.3434  115544182.245 7  90034473.99144
      3008.654        2344.410          47.000          33.000
  25634910.261                                   134712387.958 4
     -2942.373                          31.000
  24442868.901    24442866.6034   24442876.4574  128448173.019 5 100089489.60141
      3384.027        2636.893          35.000          14.000
  23937509.464    23937509.4944   23937514.8324  125792458.819 5  98020117.85241
      -710.515        -553.626          39.000          18.000
  22566124.784    22566124.1854   22566130.9504  118585791.528 6  92404534.23543
      2833.508        2207.929          42.000          26.000
  20712960.670    20712960.863    20712960.903   110722598.739 7  86117684.267 6
      2877.519        2238.073          49.000          42.000
  22688360.905    22688361.376    22688361.288   121495136.778 5  94496243.866 5
     -3153.436       -2452.679          39.000          36.000
  20446491.780    20446492.914    20446493.877   109451673.768 8  85129124.535 5
      2570.086        1998.958          50.000          38.000
  23321863.835    23321864.591    23321866.387   125106321.345 5  97304939.777 5
     -4125.238       -3208.521          39.000          35.000
  19888913.195    19888913.446    19888914.307   106392296.379 7  82749597.054 7
     -1793.518       -1394.951          49.000          45.000
 05  9 30  0 30 30.0000000  0 17G01G03G07G11G14G19G20G22G24G28G31R01
                                R02R08R17R23R24
  21574089.924    21574090.0314   21574097.2414  113372638.274 8  88342313.35845
      1367.951        1065.942          50.000          38.000
  25317666.197    25317667.2044   25317675.4964  133045277.242 4 103671666.50641
     -3346.133       -2607.370          31.000           9.000
  25217768.028    25217767.2434   25217774.2894  132520267.886 4 103262567.91541
      3624.702        2824.474          34.000          11.000
  20310273.676    20310273.5944   20310279.0104  106731219.487 8  83167225.57946
       870.423         678.256          51.000          43.000
  22367225.533    22367225.2844   22367231.7364  117540578.674 7  91590098.88444
      -967.688        -754.034          45.000          31.000
  22337388.759    22337387.4234   22337393.1014  117383761.960 7  91467899.35744
     -2659.263       -2072.148          46.000          34.000
  21970181.480    21970181.0294   21970187.4054  115454065.155 7  89964252.89944
      2998.787        2336.712          47.000          32.000
  25651704.435                                   134800631.934 4
     -2940.963                          33.000
  24423552.397    24423551.7014   24423558.8834  128346662.735 5 100010390.65141
      3382.858        2636.014          35.000          13.000
  23941609.677    23941609.9954   23941615.3064  125814003.627 5  98036905.99241
      -726.148        -565.827          39.000          18.000
  22549990.261    22549989.5634   22549997.4094  118501005.546 6  92338467.22643
      2818.554        2196.286          42.000          26.000
  19615165.734    19615166.262    19615166.121   104891131.163 8  81582012.436 7
      -721.551        -561.206          54.000          46.000
  20696848.800    20696848.734    20696849.188   110636473.500 7  86050697.972 6
      2863.822        2227.419          48.000          42.000
  22706030.224    22706031.408    22706031.721   121589759.083 5  94569838.991 5
     -3155.046       -2453.921          39.000          37.000
  20432148.537    20432149.914    20432150.928   109374898.031 8  85069410.066 5
      2548.077        1981.844          50.000          38.000
  23344947.921    23344946.896    23344946.370   125230140.120 6  97401243.281 4
     -4129.638       -3211.953          40.000          33.000
  19899035.343    19899035.637    19899036.548   106446440.958 7  82791709.494 6
     -1816.459       -1412.797          49.000          44.000
 05  9 30  0 31  0.0000000  0 17G01G03G07G11G14G19G20G22G24G28G31R01
                                R02R08R17R23R24
  21566336.250    21566336.1184   21566343.3294  113331891.556 7  88310562.67845
      1348.371        1050.681          49.000          38.000
  25336766.911    25336766.0454   25336773.6664  133145648.491 4 103749877.76541
     -3345.634       -2606.955          33.000          11.000
  25197091.959    25197090.2574   25197100.6774  132411607.738 5 103177897.75841
      3619.161        2820.166          35.000           9.000
  20305341.911    20305342.1424   20305347.4544  106705304.561 8  83147032.13046
       857.119         667.885          50.000          42.000
  22372803.117    22372803.0934   22372809.1744  117569890.437 6  91612939.21844
      -986.567        -768.753          44.000          31.000
  22352600.297    22352599.5894   22352604.6564  117463700.770 7  91530189.32444
     -2670.105       -2080.604          45.000          33.000
  21953091.180    21953091.2134   21953097.5794  115364257.237 7  89894272.72044
      2988.284        2328.530          47.000          33.000
  25668488.436                                   134888851.289 5
     -2940.329                          35.000
  24404241.099    24404241.4094   24404249.2564  128245195.327 4  99931325.15541
      3381.359        2634.833          34.000          14.000
  23945798.219    23945799.7954   23945806.0644  125836029.320 5  98054068.84141
      -742.330        -578.430          37.000          17.000
  22533943.474    22533943.7064   22533950.5254  118416680.474 6  92272759.41243
      2802.969        2184.137          41.000          26.000
  19619256.533    19619256.865    19619256.960   104913005.582 8  81599025.875 7
      -736.887        -573.138          54.000          46.000
  20680815.939    20680816.694    20680817.603   110550772.315 7  85984041.510 6
      2849.464        2216.251          49.000          43.000
  22723710.985    22723712.558    22723713.520   121684443.065 5  94643482.063 5
     -3157.325       -2455.688          38.000          37.000
  20417932.885    20417934.361    20417935.023   109298796.495 8  85010219.994 5
      2525.268        1964.097          50.000          38.000
  23368056.428    23368054.597    23368054.953   125354100.737 5  97497657.108 4
     -4134.571       -3215.769          38.000          32.000
  19909287.713    19909288.071    19909289.096   106501283.995 7  82834365.180 6
     -1839.926       -1431.055          49.000          44.000
 05  9 30  0 31 30.0000000  0 17G01G03G07G11G14G19G20G22G24G28G31R01
                                R02R08R17R23R24
  21558693.416    21558693.2694   21558700.4764  113291728.072 8  88279266.47045
      1329.017        1035.596          50.000          38.000
  25355866.513    25355864.8624   25355875.0164  133246004.663 4 103828077.39541
     -3344.935       -2606.453          34.000          12.000
  25176442.460    25176442.1664   25176447.7274  132303106.390 4 103093351.19841
      3614.062        2816.174          34.000          10.000
  20300485.161    20300485.7354   20300491.0604  106679783.975 8  83127145.95846
       844.073         657.720          51.000          43.000
  22378487.794    22378487.6084   22378494.2734  117599762.831 6  91636216.41644
     -1005.147        -783.233          44.000          30.000
  22367872.856    22367872.1234   22367877.4644  117543959.780 7  91592728.80444
     -2680.664       -2088.827          46.000          33.000
  21936060.489    21936060.5594   21936067.0784  115274760.804 7  89824535.26344
      2978.016        2320.535          47.000          33.000
  25685273.361                                   134977046.110 5
     -2939.395                          35.000
  24384941.619    24384942.4024   24384948.9634  128143772.675 4  99852294.56341
      3379.994        2633.759          34.000          13.000
  23950081.381    23950082.6664   23950088.6734  125858535.139 5  98071605.84441
      -758.180        -590.812          37.000          16.000
  22517985.583    22517985.3364   22517993.0764  118332819.794 6  92207413.43343
      2787.559        2172.109          42.000          27.000
  19623431.695    19623432.472    19623432.521   104935334.460 8  81616392.781 7
      -751.888        -584.803          54.000          46.000
  20664864.585    20664864.257    20664865.227   110465497.350 7  85917716.555 6
      2835.370        2205.284          49.000          43.000
  22741404.169    22741405.518    22741406.130   121779187.641 5  94717172.287 5
     -3159.178       -2457.136          39.000          36.000
  20403843.760    20403844.750    20403846.418   109223375.278 8  84951559.044 5
      2502.609        1946.472          50.000          39.000
  23391190.553    23391189.187    23391189.432   125478200.866 5  97594179.461 4
     -4139.056       -3219.266          39.000          33.000
  19919671.153    19919671.129    19919672.185   106556826.044 7  82877564.539 7
     -1863.002       -1449.002          49.000          45.000
 05  9 30  0 32  0.0000000  0 17G01G03G07G11G14G19G20G22G24G28G31R01
                                R02R08R17R23R24
  21551161.374    21551161.4624   21551168.6354  113252147.900 8  88248424.78645
      1309.567        1020.438          50.000          38.000
  25374956.270    25374959.9084   25374967.2024  133346343.095 4 103906263.21841
     -3344.460       -2606.062          33.000           6.000
  25155825.987    25155828.1354   25155830.4884  132194765.093 5 103008929.39941
      3608.757        2811.975          35.000           9.000
  20295704.199    20295704.4924   20295709.7134  106654657.875 8  83107567.17946
       830.929         647.478          50.000          43.000
  22384278.236    22384277.8934   22384284.8244  117630193.273 7  91659928.45344
     -1023.676        -797.674          45.000          31.000
  22383206.240    22383205.4734   22383210.7854  117624536.221 7  91655515.62944
     -2691.154       -2096.998          45.000          33.000
  21919089.681    21919089.0414   21919095.5644  115185575.667 7  89755040.35444
      2967.601        2312.416          47.000          33.000
  25702053.118                                   135065214.412 4
     -2938.511                          34.000
  24365649.063    24365650.9664   24365660.8894  128042394.670 4  99773298.76741
      3378.501        2632.562          33.000          12.000
  23954455.899    23954454.6904   23954461.4014  125881518.309 5  98089514.76341
      -774.052        -603.168          38.000          15.000
  22502116.341    22502116.5264   22502122.8404  118249425.170 6  92142430.59143
      2772.025        2160.035          43.000          27.000
  19627692.050    19627692.553    19627693.000   104958115.258 8  81634111.180 7
      -766.894        -596.477          53.000          47.000
  20648992.022    20648991.379    20648992.453   110380648.558 7  85851723.063 6
      2821.127        2194.209          49.000          43.000
  22759108.160    22759108.927    22759110.712   121873990.126 5  94790907.548 5
     -3161.145       -2458.672          39.000          36.000
  20389882.753    20389883.408    20389883.975   109148635.771 8  84893428.315 5
      2479.835        1928.757          51.000          38.000
  23414347.884    23414348.944    23414349.880   125602436.315 6  97690807.032 5
     -4143.417       -3222.650          41.000          35.000
  19930182.918    19930183.408    19930184.249   106613062.307 7  82921303.844 7
     -1886.138       -1466.997          49.000          45.000
 05  9 30  0 32 30.0000000  0 17G01G03G07G11G14G19G20G22G24G28G31R01
                                R02R08R17R23R24
  21543739.026    21543739.1674   21543746.2914  113213143.569 7  88218031.81145
      1290.690        1005.728          49.000          39.000
  25394047.125    25394046.6384   25394060.3444  133446652.917 3 103984426.89241
     -3342.896       -2604.857          29.000           2.000
  25135237.854    25135234.9614   25135241.0514  132086577.762 4 102924627.54941
      3603.788        2808.116          33.000           9.000
  20290996.810    20290996.7534   20291002.1504  106629919.046 8  83088290.17346
       818.326         637.655          50.000          42.000
  22390173.615    22390173.2604   22390179.5734  117661171.855 7  91684067.61044
     -1041.569        -811.617          45.000          30.000
  22398598.027    22398597.0974   22398602.4494  117705419.245 7  91718541.35144
     -2701.012       -2104.678          45.000          34.000
  21902175.443    21902175.5584   21902181.9394  115096694.355 7  89685782.20144
      2957.822        2304.798          47.000          33.000
  25718823.721                                   135153346.726 4
     -2937.001                          34.000
  24346365.953    24346365.5684   24346373.8124  127941053.575 4  99694331.70941
      3377.592        2631.842          34.000          14.000
  23958918.586    23958918.8404   23958924.2694  125904968.815 5  98107787.86441
      -789.338        -615.075          37.000          17.000
  22486334.806    22486334.3964   22486340.8494  118166490.564 6  92077806.24443
      2756.959        2148.275          43.000          28.000
  19632034.883    19632035.291    19632035.028   104981336.785 8  81652172.366 7
      -781.219        -607.617          54.000          46.000
  20633197.744    20633197.403    20633197.450   110296218.080 7  85786054.916 6
      2807.511        2183.626          49.000          43.000
  22776820.946    22776821.604    22776822.266   121968840.177 5  94864679.813 5
     -3162.274       -2459.542          38.000          36.000
  20376045.737    20376047.158    20376047.701   109074572.906 8  84835823.872 5
      2457.620        1911.484          50.000          38.000
  23437531.245    23437531.338    23437532.175   125726794.866 5  97787530.322 5
     -4147.114       -3225.537          39.000          35.000
  19940824.422    19940824.703    19940825.543   106669982.545 7  82965575.125 7
     -1908.548       -1484.421          49.000          45.000
 05  9 30  0 33  0.0000000  0 17G01G03G07G11G14G19G20G22G24G28G31R01
                                R02R08R17R23R24
  21536427.822    21536427.9604   21536435.4624  113174723.978 8  88188094.47445
      1271.188         990.530          51.000          38.000
  25413128.984    25413128.6434   25413137.6314  133546940.540 4 104062572.98441
     -3342.307       -2604.379          32.000          11.000
  25114679.491    25114678.2164   25114686.8224  131978554.675 4 102840453.71741
      3598.249        2803.851          32.000           8.000
  20286364.314    20286364.2774   20286369.6974  106605575.316 8  83069321.02846
       805.147         627.388          51.000          43.000
  22396173.401    22396173.9894   22396179.7714  117692705.074 6  91708638.95944
     -1060.045        -826.019          44.000          30.000
  22414048.555    22414047.9944   22414052.9814  117786614.672 7  91781810.51344
     -2711.421       -2112.797          45.000          33.000
  21885321.560    21885321.4554   21885327.9074  115008125.892 7  89616767.82244
      2947.323        2296.615          47.000          33.000
  25735587.466                                   135241449.901 5
     -2935.950                          35.000
  24327089.633    24327088.5494   24327097.7664  127839758.782 4  99615400.73741
      3376.012        2630.656          34.000          14.000
  23963470.391    23963469.6294   23963477.0934  125928892.958 5  98126430.03841
      -805.037        -627.294          37.000          16.000
  22470641.803    22470641.9724   22470648.1134  118084026.435 6  92013548.47243
      2741.227        2136.021          43.000          27.000
  19636460.684    19636461.476    19636461.386   105005005.724 8  81670581.540 7
      -796.132        -619.219          54.000          46.000
  20617481.609    20617481.913    20617483.331   110212214.686 7  85720718.952 6
      2793.259        2172.532          49.000          43.000
  22794543.310    22794544.328    22794543.559   122063744.325 5  94938494.123 5
     -3164.068       -2460.945          38.000          36.000
  20362338.872    20362340.086    20362340.489   109001197.723 7  84778754.279 5
      2434.580        1893.564          49.000          38.000
  23460738.561    23460738.020    23460737.957   125851282.027 5  97884353.688 4
     -4151.374       -3228.851          39.000          33.000
  19951594.507    19951594.139    19951595.240   106727592.708 7  83010383.015 7
     -1931.477       -1502.255          49.000          45.000
 05  9 30  0 33 30.0000000  0 17G01G03G07G11G14G19G20G22G24G28G31R01
                                R02R08R17R23R24
  21529229.013    21529228.9244   21529236.1784  113136892.636 8  88158615.51545
      1251.346         975.072          50.000          39.000
  25432209.476    25432212.4834   25432218.1554  133647206.009 4 104140701.92441
     -3341.606       -2603.852          34.000          12.000
  25094159.919    25094157.2034   25094163.6154  131870700.827 4 102756411.75341
      3592.386        2799.302          34.000          11.000
  20281807.744    20281807.6434   20281812.9724  106581630.390 8  83050662.64346
       791.629         616.851          51.000          42.000
  22402279.122    22402279.9324   22402286.5994  117724793.732 6  91733643.11544
     -1078.744        -840.585          44.000          30.000
  22429558.905    22429558.1884   22429563.7894  117868122.886 7  91845323.39644
     -2722.003       -2121.050          45.000          33.000
  21868528.105    21868527.6384   21868534.5454  114919873.854 7  89548000.02644
      2936.573        2288.228          48.000          33.000
  25752349.560                                   135329525.566 5
     -2935.231                          36.000
  24307823.838    24307823.1984   24307832.9454  127738513.305 5  99536508.17041
      3374.135        2629.209          35.000          12.000
  23968115.488    23968115.3734   23968119.7604  125953291.106 5  98145441.58641
      -821.039        -639.778          38.000          17.000
  22455039.873    22455040.2854   22455046.9474  118002037.667 6  91949661.12843
      2725.118        2123.465          43.000          28.000
  19640970.715    19640971.519    19640971.204   105029122.844 8  81689339.295 7
      -811.240        -630.969          53.000          46.000
  20601848.248    20601848.745    20601849.110   110128641.934 7  85655717.935 6
      2778.641        2161.165          49.000          43.000
  22812277.008    22812277.099    22812276.991   122158702.546 5  95012350.498 5
     -3166.075       -2462.503          39.000          36.000
  20348761.434    20348763.206    20348763.333   108928516.929 8  84722224.770 5
      2411.142        1875.331          51.000          39.000
  23483970.762    23483968.731    23483968.599   125975896.424 5  97981276.027 4
     -4155.739       -3232.241          38.000          31.000
  19962492.355    19962492.474    19962493.389   106785891.831 7  83055726.765 6
     -1954.651       -1520.288          49.000          44.000
 05  9 30  0 34  0.0000000  0 17G01G03G07G11G14G19G20G22G24G28G31R01
                                R02R08R17R23R24
  21522140.916    21522140.9414   21522148.3644  113099644.644 8  88129591.12045
      1231.939         959.951          50.000          39.000
  25451284.070    25451283.1204   25451296.6294  133747441.889 4 104218807.78941
     -3340.573       -2603.010          30.000           9.000
  25073667.309    25073668.2684   25073672.3384  131763012.585 5 102672498.80041
      3586.937        2795.024          35.000          13.000
  20277326.011    20277326.1194   20277331.4154  106558079.393 8  83032311.21246
       778.545         606.658          51.000          43.000
  22408490.572    22408490.8634   22408497.2534  117757430.014 6  91759073.98244
     -1096.868        -854.703          44.000          30.000
  22445127.627    22445127.0444   22445132.2984  117949936.011 7  91909073.86944
     -2732.086       -2128.895          45.000          33.000
  21851793.395    21851793.3304   21851799.5034  114831933.026 7  89479474.71544
      2926.266        2280.203          48.000          34.000
  25769102.783    25769102.0944   25769105.8154  135417566.677 5 105520188.77641
     -2934.087       -2286.318          37.000          14.000
  24288567.589    24288565.3484   24288576.5994  127637312.188 5  99457650.17641
      3372.733        2628.121          36.000          14.000
  23972844.336    23972845.8114   23972851.5794  125978155.724 5  98164816.55041
      -836.430        -651.771          37.000          17.000
  22439527.719    22439527.9024   22439534.9484  117920520.774 6  91886141.47643
      2709.419        2111.231          44.000          28.000
  19645563.156    19645563.845    19645563.590   105053680.460 8  81708439.669 7
      -825.813        -642.305          54.000          46.000
  20586294.050    20586293.850    20586295.126   110045494.678 7  85591047.862 6
      2764.557        2150.210          49.000          43.000
  22830019.079    22830019.242    22830018.937   122253708.324 5  95086243.866 5
     -3167.542       -2463.643          39.000          36.000
  20335313.620    20335314.930    20335315.151   108856527.516 8  84666233.010 5
      2388.127        1857.432          51.000          38.000
  23507219.868    23507219.980    23507221.117   126100629.097 5  98078290.344 4
     -4159.567       -3235.205          39.000          34.000
  19973517.360    19973517.982    19973518.831   106844872.703 7  83101600.770 6
     -1977.347       -1537.940          49.000          44.000
 05  9 30  0 34 30.0000000  0 17G01G03G07G11G14G19G20G22G24G28G31R01
                                R02R08R17R23R24
  21515165.503    21515165.4064   21515172.7904  113062988.073 7  88101027.56445
      1212.311         944.660          49.000          39.000
  25470353.205    25470361.2544   25470356.4844  133847653.184 4 104296894.6164
     -3339.634       -2602.373          31.000
  25053208.463    25053206.6004   25053211.4244  131655499.488 5 102588722.31141
      3581.092        2790.469          35.000          10.000
  20272920.537    20272920.8794   20272926.2184  106534929.754 8  83014272.53146
       765.227         596.281          51.000          43.000
  22414806.379    22414806.1024   22414812.1844  117790619.891 7  91784936.22844
     -1115.246        -869.030          45.000          30.000
  22460754.821    22460754.7234   22460760.2344  118032059.168 6  91973065.93544
     -2742.297       -2136.855          44.000          33.000
  21835119.318    21835119.4684   21835125.8174  114744311.720 7  89411198.38044
      2915.666        2271.954          47.000          34.000
  25785851.896    25785850.5574   25785855.3394  135505579.453 5 105588770.13941
     -2933.038       -2285.496          37.000          12.000
  24269318.604    24269318.8414   24269326.6384  127536163.079 5  99378832.72341
      3371.052        2626.795          37.000          16.000
  23977666.489    23977667.4514   23977673.0994  126003492.052 5  98184559.12441
      -852.068        -663.956          37.000          16.000
  22424107.456    22424107.6324   22424113.8194  117839485.431 6  91822997.05643
      2693.401        2098.751          43.000          28.000
  19650238.955    19650239.644    19650239.237   105078683.103 8  81727886.166 7
      -840.531        -653.745          54.000          46.000
  20570821.309    20570821.238    20570821.296   109962780.746 7  85526714.828 6
      2750.171        2139.024          49.000          43.000
  22847769.568    22847770.645    22847770.953   122348766.268 5  95160177.793 5
     -3169.156       -2464.889          38.000          36.000
  20321996.529    20321997.552    20321998.492   108785239.371 8  84610786.670 5
      2364.875        1839.352          51.000          39.000
  23530497.204    23530494.738    23530495.342   126225483.546 5  98175399.336 4
     -4163.550       -3238.312          37.000          34.000
  19984672.628    19984672.837    19984673.521   106904540.227 7  83148008.829 6
     -2000.025       -1555.576          49.000          44.000
 05  9 30  0 35  0.0000000  0 17G01G03G07G11G14G19G20G22G24G28G31R01
                                R02R08R17R23R24
  21508301.390    21508301.0904   21508308.6054  113026917.234 8  88072920.42345
      1192.380         929.128          50.000          39.000
  25489415.438    25489416.9764   25489424.9094  133947831.385 4 104374955.68041
     -3338.956       -2601.808          34.000           7.000
  25032781.390    25032782.8364   25032786.5964  131548157.304 5 102505079.08241
      3574.979        2785.703          36.000           9.000
  20268590.802    20268591.1324   20268596.3974  106512176.181 8  82996542.47446
       751.641         585.694          51.000          43.000
  22421225.468    22421226.0694   22421232.1874  117824355.226 6  91811223.50744
     -1133.772        -883.454          44.000          30.000
  22476439.793    22476439.6414   22476444.8514  118114483.585 7  92037292.74044
     -2752.675       -2144.940          45.000          33.000
  21818505.520    21818505.4884   21818511.9734  114657004.500 7  89343166.78944
      2904.780        2263.469          48.000          34.000
  25802592.368    25802591.3754   25802597.0054  135593556.456 5 105657323.61941
     -2932.204       -2284.807          37.000          13.000
  24250079.332    24250078.7234   24250087.0324  127435060.553 5  99300051.56041
      3369.143        2625.307          35.000          15.000
  23982576.073    23982577.1034   23982582.0294  126029291.308 5  98204662.44041
      -867.911        -676.277          37.000          15.000
  22408778.084    22408777.6484   22408784.9334  117758927.767 6  91760224.84443
      2677.048        2086.020          43.000          28.000
  19654996.132    19654996.872    19654996.575   105104122.697 8  81747672.519 7
      -855.462        -665.360          54.000          46.000
  20555427.281    20555427.531    20555428.026   109880494.436 8  85462714.371 6
      2735.538        2127.640          50.000          43.000
  22865528.481    22865529.466    22865530.827   122443867.705 5  95234145.567 5
     -3170.966       -2466.301          38.000          36.000
  20308809.525    20308810.836    20308811.228   108714649.206 8  84555883.206 5
      2341.014        1820.790          51.000          39.000
  23553790.648    23553790.264    23553790.511   126350449.934 5  98272595.385 4
     -4167.596       -3241.471          37.000          32.000
  19995953.214    19995953.712    19995954.439   106964884.767 7  83194943.453 6
     -2022.986       -1573.429          49.000          44.000
 05  9 30  0 35 30.0000000  0 17G01G03G07G11G14G19G20G22G24G28G31R01
                                R02R08R17R23R24
  21501549.488    21501549.4894   21501556.7514  112991435.984 7  88045272.70645
      1173.311         914.275          49.000          39.000
  25508473.244    25508475.1574   25508483.3694  134047977.485 4 104452991.61841
     -3337.316       -2600.456          34.000          10.000
  25012388.449    25012387.5504   25012395.9414  131440991.185 4 102421572.97741
      3569.604        2781.481          34.000          12.000
  20264337.185    20264337.3334   20264342.6384  106489822.338 8  82979123.89446
       738.879         575.751          50.000          43.000
  22427749.720    22427749.7234   22427756.3054  117858637.150 6  91837936.69644
     -1151.390        -897.190          44.000          30.000
  22492182.414    22492181.4044   22492187.2774  118197209.975 6  92101754.84144
     -2762.124       -2152.305          44.000          33.000
  21801952.707    21801951.9494   21801958.6974  114570015.050 7  89275382.81144
      2894.772        2255.675          48.000          34.000
  25819327.667    25819328.1864   25819334.5954  135681499.209 5 105725850.45041
     -2930.366       -2283.399          37.000          14.000
  24230850.350    24230851.1764   24230858.3174  127334008.539 5  99221309.80741
      3367.961        2624.380          36.000          14.000
  23987575.273    23987574.3934   23987579.3834  126055554.919 5  98225127.56541
      -882.702        -687.827          37.000          15.000
  22393540.605    22393540.2504   22393546.5744  117678853.172 6  91697829.06243
      2661.499        2073.896          43.000          28.000
  19659835.452    19659836.154    19659835.836   105130000.012 8  81767799.321 7
      -869.403        -676.204          54.000          46.000
  20540114.019    20540114.250    20540115.147   109798639.136 7  85399049.155 6
      2721.777        2116.941          49.000          43.000
  22883296.994    22883298.075    22883298.391   122539014.888 5  95308148.929 5
     -3171.850       -2466.996          38.000          36.000
  20295754.121    20295755.195    20295755.587   108644764.075 8  84501528.110 5
      2318.129        1802.992          51.000          38.000
  23577107.612    23577107.160    23577106.271   126475528.269 5  98369878.668 3
     -4170.692       -3243.865          38.000          29.000
  20007361.602    20007361.273    20007361.820   107025907.131 7  83242405.283 6
     -2044.914       -1590.485          49.000          44.000
 05  9 30  0 36  0.0000000  0 17G01G03G07G11G14G19G20G22G24G28G31R01
                                R02R08R17R23R24
  21494908.894    21494908.8534   21494915.8764  112956538.595 8  88018079.94545
      1153.461         898.800          51.000          39.000
  25527521.204    25527525.3364   25527527.7194  134148083.043 4 104530995.92141
     -3336.133       -2599.577          31.000          10.000
  24992029.119    24992028.7514   24992036.4074  131333996.931 5 102338200.84441
      3563.590        2776.806          35.000          14.000
  20260158.254    20260158.4234   20260163.8574  106467862.241 8  82962012.12846
       725.388         565.238          51.000          43.000
  22434376.016    22434376.0034   22434381.7154  117893457.583 6  91865069.50444
     -1169.663        -911.425          44.000          30.000
  22507979.944    22507979.6024   22507984.8234  118280229.780 7  92166445.58744
     -2772.238       -2160.185          45.000          33.000
  21785458.069    21785457.6124   21785464.4504  114483337.846 7  89207842.13844
      2883.997        2247.276          48.000          34.000
  25836054.044    25836057.7114   25836061.3644  135769400.580 5 105794344.99741
     -2929.401       -2282.622          35.000          12.000
  24211629.615    24211629.0854   24211636.7514  127233001.316 5  99142602.88441
      3366.097        2622.914          36.000          15.000
  23992658.921    23992659.6964   23992666.3764  126082274.285 5  98245947.81541
      -898.245        -699.899          37.000          16.000
  22378393.280    22378393.0284   22378400.9464  117599257.055 6  91635806.11943
      2645.212        2061.212          43.000          28.000
  19664754.439    19664755.409    19664755.516   105156306.650 8  81788260.040 7
      -884.038        -687.586          54.000          46.000
  20524881.351    20524881.262    20524882.465   109717209.136 7  85335714.726 6
      2707.183        2105.589          49.000          43.000
  22901071.808    22901072.922    22901073.174   122634198.866 5  95382180.872 5
     -3173.405       -2468.202          38.000          35.000
  20282830.343    20282831.453    20282832.186   108575578.832 8  84447717.360 5
      2294.396        1784.528          51.000          39.000
  23600442.470    23600442.732    23600443.740   126600708.110 5  98467240.777 4
     -4174.255       -3246.645          37.000          34.000
  20018893.110    20018893.719    20018894.548   107087598.416 7  83290387.378 6
     -2067.527       -1608.075          49.000          44.000
 05  9 30  0 36 30.0000000  0 17G01G03G07G11G14G19G20G22G24G28G31R01
                                R02R08R17R23R24
  21488380.194    21488380.2874   21488387.3874  112922231.861 8  87991347.43745
      1133.351         883.130          50.000          38.000
  25546567.881    25546566.9164   25546571.5734  134248152.194 3 104608971.74441
     -3335.356       -2598.992          29.000           6.000
  24971702.831    24971700.5844   24971707.6114  131227183.088 5 102254969.32341
      3557.059        2771.753          35.000          13.000
  20256055.935    20256055.7074   20256061.2144  106446302.887 8  82945212.62846
       711.587         554.482          51.000          43.000
  22441104.802    22441105.1204   22441111.2014  117928820.925 6  91892625.35544
     -1188.181        -925.847          44.000          30.000
  22523834.809    22523834.5334   22523840.1384  118363546.825 6  92231367.94444
     -2782.549       -2168.216          44.000          32.000
  21769025.068    21769024.1894   21769031.0004  114396979.965 7  89140550.29144
      2872.874        2238.601          47.000          34.000
  25852775.882    25852774.9234   25852781.2684  135857265.445 4 105862811.05841
     -2928.549       -2281.983          34.000          12.000
  24192418.213    24192416.9554   24192424.4874  127132045.602 5  99063936.11041
      3363.943        2621.235          36.000          16.000
  23997831.084    23997830.8534   23997837.7174  126109453.454 5  98267126.36541
      -914.026        -712.230          38.000          16.000
  22363339.265    22363338.7764   22363346.3034  117520147.933 6  91574162.65643
      2628.460        2048.160          43.000          28.000
  19669755.516    19669755.971    19669755.886   105183046.691 8  81809057.853 7
      -898.922        -699.166          53.000          46.000
  20509729.147    20509729.529    20509729.627   109636211.365 8  85272716.474 6
      2692.346        2094.045          50.000          43.000
  22918854.607    22918855.651    22918856.541   122729423.901 6  95456244.792 5
     -3175.208       -2469.603          40.000          36.000
  20270038.565    20270039.587    20270040.356   108507104.374 8  84394459.440 5
      2270.221        1765.727          51.000          39.000
  23623797.894    23623797.809    23623799.605   126725992.957 5  98564684.514 4
     -4178.305       -3249.769          37.000          34.000
  20030550.274    20030551.022    20030552.041   107149961.961 7  83338892.347 6
     -2090.331       -1625.813          48.000          44.000
 05  9 30  0 37  0.0000000  0 17G01G03G07G11G14G19G20G22G24G28G31R01
                                R02R08R17R23R24
  21481964.746    21481964.9264   21481972.0474  112888518.608 7  87965077.37945
      1113.715         867.828          49.000          39.000
  25565602.027    25565598.6704   25565611.6234  134348184.982 4 104686919.53741
     -3334.030       -2597.934          34.000           5.000
  24951411.928    24951412.1454   24951412.6704  131120553.920 5 102171881.62841
      3551.049        2767.093          35.000          11.000
  20252029.989    20252029.7774   20252035.3524  106425146.734 8  82928727.31346
       698.301         544.131          50.000          43.000
  22447937.902    22447937.6984   22447943.7544  117964727.022 6  91920604.13444
     -1206.050        -939.777          44.000          30.000
  22539746.545    22539745.7974   22539751.6914  118447160.882 7  92296521.73844
     -2792.217       -2175.758          45.000          32.000
  21752652.544    21752652.2054   21752659.0494  114310944.231 7  89073509.47144
      2862.312        2230.375          47.000          34.000
  25869488.148    25869488.4084   25869495.4454  135945095.276 4 105931249.89041
     -2927.300       -2281.033          34.000          10.000
  24173217.643    24173216.3464   24173225.1314  127031144.395 5  98985311.82241
      3362.344        2620.008          37.000          16.000
  24003088.472    24003090.9904   24003096.8184  126137092.396 5  98288663.21341
      -929.114        -724.019          36.000          16.000
  22348378.718    22348378.6924   22348385.3324  117441530.228 6  91512902.11143
      2612.186        2035.474          43.000          28.000
  19674836.726    19674837.448    19674837.161   105210219.972 8  81830192.626 7
      -913.147        -710.228          53.000          46.000
  20494658.205    20494658.143    20494658.813   109555648.299 7  85210056.322 6
      2678.031        2082.907          49.000          43.000
  22936645.675    22936646.708    22936647.075   122824690.818 5  95530341.288 5
     -3176.384       -2470.520          39.000          36.000
  20257380.333    20257381.647    20257382.241   108439346.202 8  84341758.635 5
      2246.501        1747.276          51.000          39.000
  23647169.980    23647172.734    23647171.735   126851380.568 5  98662208.265 4
     -4181.436       -3252.242          39.000          31.000
  20042335.293    20042335.251    20042336.432   107212996.880 7  83387919.495 6
     -2112.485       -1643.042          48.000          44.000
 05  9 30  0 37 30.0000000  0 17G01G03G07G11G14G19G20G22G24G28G31R01
                                R02R08R17R23R24
  21475662.471    21475662.5884   21475669.8254  112855399.621 8  87939270.38745
      1094.057         852.514          50.000          39.000
  25584630.457    25584628.8194   25584641.0054  134448179.117 4 104764837.12641
     -3332.430       -2596.699          34.000          10.000
  24931154.280    24931153.2244   24931165.3894  131014111.718 5 102088939.63241
      3544.976        2762.272          35.000          10.000
  20248080.500    20248080.8824   20248086.3084  106404394.723 8  82912556.91246
       685.003         533.768          50.000          43.000
  22454873.340    22454873.4374   22454879.5994  118001174.228 6  91949004.55543
     -1223.870        -953.666          44.000          29.000
  22555713.961    22555713.5294   22555718.3804  118531070.096 6  92361905.52544
     -2801.839       -2183.252          44.000          32.000
  21736341.967    21736341.3474   21736348.0364  114225231.359 7  89006720.23244
      2851.732        2222.125          47.000          34.000
  25886196.180    25886194.7054   25886201.2384  136032889.080 4 105999660.60941
     -2925.774       -2279.798          34.000           7.000
  24154026.834    24154025.9974   24154033.6694  126930298.609 5  98906730.66941
      3360.532        2618.571          37.000          16.000
  24008436.411    24008435.9074   24008444.5064  126165189.320 5  98310556.87341
      -944.146        -735.708          36.000          16.000
  22333512.902    22333512.5664   22333519.1074  117363406.313 6  91452026.33643
      2595.892        2022.760          43.000          28.000
  19679998.801    19679999.492    19679999.572   105237824.708 8  81851662.978 7
      -927.304        -721.240          53.000          46.000
  20479668.996    20479668.579    20479669.487   109475521.025 7  85147735.120 6
      2663.679        2071.748          49.000          43.000
  22954442.569    22954443.149    22954444.521   122919997.479 5  95604468.665 5
     -3177.552       -2471.427          38.000          35.000
  20244856.731    20244858.193    20244858.485   108372305.534 8  84289615.894 5
      2222.591        1728.682          51.000          38.000
  23670564.227    23670565.027    23670564.714   126976868.069 5  98759809.811 3
     -4184.556       -3254.680          37.000          29.000
  20054242.383    20054243.185    20054244.591   107276700.549 7  83437466.777 7
     -2134.612       -1660.254          48.000          45.000
 05  9 30  0 38  0.0000000  0 16G01G07G11G14G19G20G22G24G28G31R01R02
                                R08R17R23R24
  21469472.955    21469472.8574   21469480.3474  112822872.354 8  87913924.47045
      1074.520         837.292          50.000          39.000
  24910935.763    24910935.3294   24910943.2774  130907855.635 4 102006142.65841
      3538.846        2757.562          34.000          10.000
  20244208.150    20244208.4194   20244213.6834  106384044.292 8  82896699.43146
       671.774         523.460          51.000          43.000
  22461911.348    22461911.4544   22461917.7194  118038157.725 6  91977822.86643
     -1241.527        -967.433          44.000          29.000
  22571735.859    22571735.7244   22571740.8964  118615268.259 6  92427514.47444
     -2811.256       -2190.593          44.000          32.000
  21720092.178    21720091.5914   21720098.8154  114139839.107 7  88940180.81344
      2841.185        2213.916          48.000          34.000
  25902891.907    25902894.4514   25902896.0454  136120642.497 5 106068039.92841
     -2924.483       -2278.771          35.000          10.000
  24134846.279    24134844.6484   24134855.1364  126829505.939 5  98828190.96241
      3358.930        2617.364          36.000          15.000
  24013871.272    24013871.6194   24013877.5124  126193738.955 5  98332803.33241
      -959.031        -747.262          38.000          15.000
  22318739.600    22318739.9374   22318746.8364  117285775.228 6  91391534.58743
      2579.620        2010.080          43.000          28.000
  19685240.726    19685241.634    19685241.363   105265855.493 8  81873464.698 7
      -941.268        -732.102          53.000          46.000
  20464759.751    20464760.056    20464761.226   109395826.552 8  85085750.542 6
      2649.393        2060.641          50.000          44.000
  22972245.122    22972247.718    22972248.382   123015339.864 5  95678623.846 5
     -3178.436       -2472.108          37.000          35.000
  20232467.300    20232468.309    20232469.055   108305982.811 8  84238031.552 5
      2198.991        1710.327          50.000          39.000
  23693974.943    23693974.909    23693976.464   127102449.154 5  98857483.983 4
     -4187.415       -3256.862          37.000          33.000
  20066277.015    20066276.872    20066278.117   107341068.307 7  83487530.572 6
     -2156.490       -1677.266          48.000          44.000
 05  9 30  0 38 30.0000000  0 16G01G07G11G14G19G20G22G24G28G31R01R02
                                R08R17R23R24
  21463396.441    21463396.1534   21463403.2274  112790938.202 8  87889040.72845
      1054.700         821.843          50.000          39.000
  24890750.258    24890750.9564   24890756.5204  130801788.661 4 101923493.09141
      3532.471        2752.601          34.000          13.000
  20240412.518    20240412.6814   20240417.8224  106364096.778 8  82881155.91046
       658.309         512.970          51.000          43.000
  22469050.746    22469050.9074   22469057.3824  118075676.215 6  92007058.05843
     -1259.395        -981.336          44.000          29.000
  22587813.440    22587812.6864   22587818.4604  118699754.383 7  92493347.80044
     -2820.819       -2198.043          45.000          32.000
  21703903.730    21703903.8314   21703910.0624  114054768.983 7  88873892.42144
      2830.403        2205.512          48.000          34.000
  25919583.099    25919585.8624   25919586.5464  136208355.122 4 106136387.42941
     -2922.960       -2277.628          32.000           6.000
  24115675.858    24115676.1024   24115685.9114  126728767.758 5  98749693.71341
      3357.155        2615.981          36.000          15.000
  24019389.753    24019388.2844   24019397.0294  126222739.723 5  98355401.30141
      -974.085        -758.975          37.000          15.000
  22304061.132    22304061.9394   22304067.9324  117208640.092 6  91331429.28343
      2563.004        1997.148          43.000          28.000
  19690562.583    19690562.923    19690562.786   105294311.146 8  81895596.873 7
      -955.475        -743.154          54.000          46.000
  20449932.753    20449932.631    20449933.780   109316566.232 7  85024103.649 6
      2634.879        2049.349          49.000          44.000
  22990056.877    22990058.500    22990059.594   123110715.945 5  95752805.244 5
     -3179.669       -2473.075          37.000          35.000
  20220211.850    20220213.066    20220213.729   108240380.124 8  84187007.239 5
      2174.853        1691.545          51.000          38.000
  23717404.405    23717402.635    23717403.805   127228121.355 5  98955229.032 4
     -4190.403       -3259.208          38.000          33.000
  20078432.110    20078432.713    20078433.911   107406097.175 7  83538108.565 6
     -2178.492       -1694.373          48.000          44.000
 05  9 30  0 39  0.0000000  0 17G01G03G07G11G14G19G20G22G24G28G31R01
                                R02R08R17R23R24
  21457431.996    21457431.8764   21457439.0644  112759596.217 8  87864618.40645
      1034.405         806.032          51.000          39.000
  25641665.120                                   134747844.336 5
     -3328.382                          35.000
  24870604.781    24870602.9314   24870612.5744  130695911.386 4 101840991.35641
      3525.612        2747.251          34.000          12.000
  20236693.102    20236693.3134   20236698.4514  106344551.135 8  82865925.53846
       644.365         502.100          51.000          43.000
  22476291.849    22476291.9994   22476297.6964  118113726.582 7  92036707.69843
     -1277.646        -995.567          45.000          29.000
  22603944.709    22603943.9694   22603948.9444  118784524.584 7  92559402.49044
     -2830.846       -2205.856          45.000          32.000
  21687777.044    21687776.7704   21687782.9924  113970020.316 7  88807854.50744
      2819.123        2196.719          48.000          34.000
  25936268.988    25936268.4344   25936271.8784  136296024.815 4 106204701.49241
     -2922.044       -2276.868          31.000          11.000
  24096514.181    24096513.6684   24096525.8814  126628083.489 5  98671238.44941
      3354.792        2614.106          35.000          14.000
  24024992.500    24024991.9184   24024998.0694  126252187.760 5  98378347.79741
      -989.534        -771.054          36.000          14.000
  22289477.258    22289477.8634   22289484.4024  117132001.490 6  91271710.90643
      2545.867        1983.798          43.000          28.000
  19695962.336    19695963.268    19695963.137   105323188.391 8  81918056.950 7
      -970.023        -754.465          53.000          46.000
  20435186.744    20435186.803    20435187.425   109237739.195 8  84962793.738 6
      2619.853        2037.662          50.000          43.000
  23007873.057    23007875.033    23007875.679   123206122.481 5  95827010.318 5
     -3181.135       -2474.217          36.000          35.000
  20208091.664    20208093.636    20208094.021   108175500.987 8  84136545.679 5
      2150.001        1672.215          51.000          38.000
  23740845.854    23740844.613    23740846.259   127353878.966 5  99053040.603 3
     -4193.707       -3261.748          35.000          29.000
  20090712.919    20090712.637    20090713.845   107471782.113 7  83589196.837 6
     -2200.870       -1711.786          49.000          44.000
 05  9 30  0 39 30.0000000  0 17G01G03G07G11G14G19G20G22G24G28G31R01
                                R02R08R17R23R24
  21451579.999    21451579.7314   21451587.0264  112728842.916 8  87840654.80645
      1015.188         791.059          50.000          39.000
  25660657.164                                   134847646.751 4
     -3325.881                          32.000
  24850491.406    24850491.0494   24850494.5804  130590222.069 5 101758635.95841
      3519.712        2742.591          36.000          10.000
  20233049.371    20233049.4104   20233054.8424  106325403.802 8  82851005.52946
       631.508         492.092          51.000          43.000
  22483632.302    22483632.3734   22483638.4924  118152302.463 6  92066766.82244
     -1294.684       -1008.845          44.000          30.000
  22620128.506    22620127.9044   22620133.3984  118869572.514 6  92625673.58944
     -2839.613       -2212.676          43.000          32.000
  21671710.396    21671710.0774   21671716.6464  113885589.692 7  88742064.42844
      2808.948        2188.792          48.000          34.000
  25952942.397    25952943.5814   25952948.5174  136383646.432 4 106272978.09841
     -2919.975       -2275.329          30.000           8.000
  24077366.401    24077365.3704   24077372.2074  126527449.457 5  98592822.36241
      3353.562        2613.168          35.000          14.000
  24030680.657    24030680.8874   24030687.0604  126282077.182 5  98401638.28441
     -1003.809        -782.198          36.000          15.000
  22274988.528    22274987.9404   22274994.0244  117055857.558 6  91212377.97943
      2529.796        1971.275          43.000          28.000
  19701440.373    19701440.797    19701440.830   105352480.049 8  81940839.349 7
      -983.389        -764.859          53.000          46.000
  20420520.998    20420520.922    20420521.199   109159341.444 8  84901817.722 6
      2606.001        2026.891          50.000          44.000
  23025696.932    23025697.414    23025697.609   123301553.771 5  95901234.636 5
     -3181.540       -2474.527          37.000          36.000
  20196106.330    20196107.727    20196108.756   108111343.381 8  84086645.313 5
      2126.532        1653.970          51.000          38.000
  23764303.017    23764304.508    23764305.177   127479714.721 5  99150912.968 3
     -4195.969       -3263.517          36.000          29.000
  20103111.737    20103112.873    20103113.982   107538117.047 7  83640790.661 6
     -2222.051       -1728.254          48.000          44.000
 05  9 30  0 40  0.0000000  0 16G01G03G07G11G14G19G20G24G28G31R01R02
                                R08R17R23R24
  21445841.140    21445841.3324   21445848.4194  112698687.528 8  87817157.11145
       995.247         775.513          51.000          39.000
  25679637.850                                   134947401.041 3
     -3324.479                          28.000
  24830416.928    24830420.5954   24830425.6394  130484731.476 5 101676435.48041
      3513.084        2737.476          36.000          11.000
  20229483.265    20229483.4004   20229488.8224  106306664.242 8  82836403.27246
       617.874         481.460          51.000          43.000
  22491074.143    22491074.0444   22491080.7474  118191410.782 6  92097240.84343
     -1312.420       -1022.661          44.000          29.000
  22636366.811    22636366.0844   22636371.7094  118954904.252 6  92692165.83344
     -2849.087       -2220.068          44.000          32.000
  21655705.395    21655705.4294   21655712.1114  113801486.513 7  88676529.50144
      2798.005        2180.268          48.000          34.000
  24058226.952    24058224.8284   24058237.0114  126426875.507 5  98514453.09241
      3351.487        2611.551          35.000          14.000
  24036453.028    24036453.3754   24036459.4004  126312414.265 5  98425277.54441
     -1018.586        -793.698          35.000          15.000
  22260593.920    22260594.5344   22260601.2034  116980219.121 6  91153438.94643
      2512.884        1958.087          43.000          28.000
  19706996.972    19706997.350    19706997.507   105382194.444 8  81963950.545 7
      -997.438        -775.788          53.000          46.000
  20405937.157    20405936.919    20405937.235   109081382.679 8  84841183.141 6
      2591.354        2015.497          50.000          43.000
  23043523.298    23043524.710    23043524.486   123397016.769 5  95975483.588 5
     -3182.613       -2475.372          38.000          37.000
  20184258.160    20184259.542    20184260.491   108047917.813 8  84037313.538 5
      2102.059        1634.934          51.000          39.000
  23787777.837    23787777.694    23787779.252   127605633.729 5  99248849.961 4
     -4198.612       -3265.595          37.000          32.000
  20115633.927    20115635.268    20115636.590   107605107.334 7  83692894.204 6
     -2243.914       -1745.263          48.000          44.000
 05  9 30  0 40 30.0000000  0 16G01G03G07G11G14G19G20G24G28G31R01R02
                                R08R17R23R24
  21440216.014    21440215.5824   21440222.7804  112669125.004 8  87794121.38645
       975.208         759.902          50.000          39.000
  25698609.839                                   135047100.971 3
     -3322.638                          29.000
  24810381.511    24810382.5144   24810390.9604  130379436.624 5 101594387.52341
      3506.263        2732.210          36.000          11.000
  20225993.839    20225994.0814   20225999.6134  106288327.757 8  82822115.09446
       604.159         470.776          51.000          43.000
  22498616.757    22498616.6574   22498622.3654  118231044.321 6  92128124.12243
     -1330.169       -1036.485          43.000          29.000
  22652657.237    22652656.5234   22652662.8964  119040512.404 6  92758873.46944
     -2858.513       -2227.406          44.000          31.000
  21639763.027    21639762.8554   21639769.5104  113717706.169 7  88611246.12444
      2786.967        2171.676          48.000          34.000
  24039099.494    24039099.4944   24039105.4854  126326356.885 5  98436126.84541
      3349.330        2609.877          36.000          15.000
  24042308.171    24042308.6464   24042316.0044  126343191.564 5  98449259.82341
     -1033.587        -805.414          35.000          14.000
  22246296.947    22246296.8764   22246303.3174  116905082.782 6  91094891.14243
      2495.819        1944.802          43.000          29.000
  19712630.851    19712631.666    19712631.573   105412322.407 8  81987383.404 7
     -1011.457        -786.691          53.000          46.000
  20391434.529    20391434.187    20391435.010   109003857.772 8  84780886.008 6
      2576.619        2004.038          50.000          44.000
  23061354.639    23061354.191    23061355.171   123492504.385 5  96049757.718
     -3183.646       -2476.667          37.000
  20172545.361    20172547.004    20172548.098   107985221.023 8  83988549.369 5
      2077.370        1615.729          51.000          38.000
  23811265.360    23811264.084    23811264.633   127731627.021 5  99346844.756 4
     -4201.289       -3267.677          36.000          32.000
  20128279.781    20128279.810    20128281.303   107672745.312 7  83745501.508 6
     -2265.707       -1762.217          48.000          44.000
 05  9 30  0 41  0.0000000  0 17G01G03G07G11G14G19G20G23G24G28G31R01
                                R02R08R17R23R24
  21434704.067    21434704.1004   21434711.2044  112640160.721 8  87771551.82345
       955.358         744.436          50.000          39.000
  25717573.126    25717572.9884   25717579.2744  135146746.838 4 105309180.99941
     -3320.747       -2587.575          33.000           7.000
  24790383.395    24790382.2964   24790391.4504  130274344.407 5 101512497.54541
      3499.536        2726.921          35.000          13.000
  20222582.362    20222582.4644   20222587.9944  106270399.527 8  82808145.04446
       590.686         460.276          51.000          43.000
  22506258.982    22506259.6864   22506264.1814  118271205.488 7  92159418.54543
     -1347.613       -1050.086          45.000          29.000
  22669001.034    22669000.4394   22669005.8874  119126399.073 6  92825798.13544
     -2867.629       -2234.520          43.000          31.000
  21623882.383    21623882.0964   21623888.8414  113634254.236 7  88546218.66545
      2776.118        2163.213          48.000          35.000
  25356256.955                                   133248032.547 4
      4304.542                          31.000
  24019983.117    24019979.9934   24019991.1694  126225899.050 5  98357848.01741
      3347.422        2608.386          36.000          15.000
  24048250.843    24048250.6514   24048256.8784  126374411.554 5  98473587.07041
     -1048.192        -816.746          36.000          15.000
  22232095.883    22232095.7644   22232102.0584  116830455.671 6  91036740.15643
      2478.893        1931.604          44.000          29.000
  19718343.039    19718343.809    19718343.741   105442867.136 8  82011140.420 7
     -1025.220        -797.399          53.000          46.000
  20377014.015    20377013.908    20377014.237   108926771.856 8  84720930.311 6
      2562.076        1992.725          50.000          44.000
  23079190.154    23079192.680    23079192.925   123588015.294 5  96124046.090 5
     -3184.391       -2476.752          37.000          35.000
  20160971.403    20160972.523    20160973.346   107923261.962 8  83940358.984 5
      2052.791        1596.617          51.000          39.000
  23834763.267    23834765.622    23834765.309   127857696.745 5  99444899.007 4
     -4203.672       -3269.532          38.000          31.000
  20141045.447    20141045.768    20141047.556   107741032.891 7  83798614.056 6
     -2287.138       -1778.880          47.000          44.000
 05  9 30  0 41 30.0000000  0 17G01G03G07G11G14G19G20G23G24G28G31R01
                                R02R08R17R23R24
  21429305.680    21429305.8214   21429312.9134  112611791.987 8  87749446.32345
       935.855         729.238          51.000          39.000
  25736524.677    25736523.4614   25736531.2894  135246335.038 5 105386782.15641
     -3318.459       -2585.852          35.000           6.000
  24770421.589    24770421.6524   24770429.5324  130169453.971 5 101430764.73041
      3493.119        2721.905          36.000          14.000
  20219247.721    20219248.0284   20219253.6744  106252876.879 8  82794491.02646
       577.486         449.990          51.000          43.000
  22514000.619    22514000.6524   22514006.7544  118311889.345 6  92191120.26743
     -1364.696       -1063.407          44.000          29.000
  22685396.947    22685395.8894   22685401.7934  119212559.049 6  92892935.77844
     -2876.388       -2241.349          44.000          31.000
  21608064.153    21608064.1044   21608070.4894  113551128.267 7  88481445.20345
      2765.571        2154.985          48.000          35.000
  25331680.839                                   133118869.260 4
      4306.272                          33.000
  24000877.806    24000877.2644   24000885.1584  126125500.032 5  98279615.06341
      3345.830        2607.143          36.000          17.000
  24054275.719    24054274.8774   24054283.1164  126406068.902 5  98498255.17441
     -1062.334        -827.792          37.000          17.000
  22217991.706    22217991.7194   22217997.8174  116756336.905 6  90978985.26944
      2462.330        1918.699          44.000          30.000
  19724132.341    19724132.797    19724132.817   105473823.927 8  82035217.923 7
     -1038.575        -807.779          53.000          46.000
  20362674.982    20362675.098    20362675.366   108850122.678 8  84661314.297 6
      2547.875        1981.679          50.000          43.000
  23097031.210    23097033.109    23097033.838   123683553.452 5  96198353.521 5
     -3184.757       -2477.031          37.000          36.000
  20149534.763    20149536.270    20149536.145   107862040.565 8  83892742.342 5
      2028.538        1577.750          51.000          39.000
  23858280.266    23858280.601    23858279.455   127983835.703 5  99543007.145 4
     -4205.559       -3270.990          37.000          31.000
  20153931.842    20153931.687    20153932.818   107809963.511 7  83852226.746 6
     -2308.276       -1795.323          47.000          44.000
 05  9 30  0 42  0.0000000  0 16G01G07G11G14G19G20G23G24G28G31R01R02
                                R08R17R23R24
  21424021.345    21424021.2434   21424028.4264  112584022.731 8  87727807.95245
       915.722         713.555          51.000          39.000
  24750500.422    24750501.5184   24750507.6524  130064771.241 5 101349193.74841
      3485.991        2716.366          36.000          16.000
  20215991.352    20215991.6024   20215997.0604  106235764.096 8  82781156.38546
       563.676         439.229          51.000          43.000
  22521842.411    22521842.1864   22521848.6654  118353097.534 7  92223230.53043
     -1382.242       -1077.077          45.000          29.000
  22701845.237    22701844.6374   22701849.7904  119298993.598 6  92960287.36144
     -2885.600       -2248.519          44.000          31.000
  21592309.330    21592308.6624   21592314.8224  113468332.558 7  88416929.07545
      2754.418        2146.304          48.000          35.000
  25307092.271                                   132989666.801 4
      4307.427                          33.000
  23981784.243    23981783.3324   23981791.0614  126025164.024 5  98201431.17541
      3343.552        2605.365          37.000          16.000
  24060382.782    24060380.0974   24060390.0464  126438164.936 5  98523265.03541
     -1077.053        -839.280          35.000          15.000
  22203985.064    22203984.5454   22203991.1674  116682731.884 6  90921630.71543
      2444.967        1905.174          44.000          29.000
  19729998.651    19729999.281    19729999.071   105505193.971 8  82059616.846 7
     -1052.469        -818.588          53.000          46.000
  20348418.503    20348418.488    20348419.128   108773913.874 8  84602040.793 6
      2533.039        1970.140          50.000          44.000
  23114878.285    23114878.854    23114879.620   123779116.602 5  96272680.376 5
     -3185.760       -2477.811          38.000          36.000
  20138236.583    20138238.000    20138238.539   107801562.298 8  83845703.686 5
      2003.583        1558.338          51.000          39.000
  23881806.326    23881808.021    23881807.420   128110044.841 5  99641169.753 4
     -4207.978       -3272.869          37.000          33.000
  20166937.566    20166937.953    20166938.884   107879538.096 7  83906340.299 6
     -2329.809       -1812.070          48.000          44.000
 05  9 30  0 42 30.0000000  0 17G01G03G07G11G14G19G20G23G24G28G31R01
                                R02R08R17R23R24
  21418850.731    21418850.7084   21418857.9304  112556850.951 8  87706635.14445
       896.105         698.265          51.000          39.000
  25774394.511                                   135445341.810 4
     -3314.461                          33.000
  24730618.928    24730619.6884   24730627.6164  129960295.790 5 101267784.28541
      3479.332        2711.202          36.000          13.000
  20212812.394    20212812.7254   20212818.0304  106219058.906 8  82768139.34946
       550.384         428.873          51.000          43.000
  22529783.132    22529783.2554   22529788.3474  118394825.613 6  92255745.91943
     -1399.204       -1090.297          44.000          29.000
  22718343.608    22718343.3024   22718349.3434  119385697.530 6  93027848.85144
     -2894.247       -2255.257          44.000          31.000
  21576615.993    21576615.2344   21576622.0124  113385865.200 7  88352668.80845
      2743.779        2138.008          48.000          35.000
  25282499.824                                   132860424.994 4
      4309.101                          34.000
  23962702.943    23962704.6304   23962710.9024  125924889.173 5  98123294.91941
      3341.869        2604.035          37.000          16.000
  24066572.958    24066575.6084   24066577.8344  126470694.916 5  98548613.05841
     -1091.204        -850.291          37.000          15.000
  22190075.287    22190075.6724   22190083.4544  116609640.369 6  90864676.29343
      2428.151        1892.068          43.000          29.000
  19735940.910    19735941.705    19735941.816   105536972.161 8  82084333.217 7
     -1065.718        -828.893          53.000          46.000
  20334244.067    20334244.108    20334244.650   108698143.728 8  84543108.465 6
      2518.722        1959.006          51.000          44.000
  23132727.142    23132728.125    23132728.928   123874700.217 5  96347023.149 5
     -3186.067       -2478.052          36.000          35.000
  20127078.326    20127079.381    20127079.277   107741825.866 8  83799242.011 5
      1979.344        1539.491          52.000          38.000
  23905347.339    23905347.091    23905345.777   128236317.029 5  99739381.420 4
     -4209.729       -3274.250          37.000          32.000
  20180063.550    20180063.774    20180064.929   107949750.530 7  83960949.956 6
     -2350.685       -1828.308          48.000          44.000
 05  9 30  0 43  0.0000000  0 16G01G07G11G14G19G20G23G24G28G31R01R02
                                R08R17R23R24
  21413793.568    21413793.3804   21413800.8004  112530276.852 8  87685928.06445
       875.642         682.318          50.000          39.000
  24710782.355    24710779.5534   24710783.2794  129856029.801 5 101186538.10241
      3471.913        2705.384          36.000          11.000
  20209711.456    20209711.5674   20209716.8804  106202761.856 8  82755440.34746
       536.233         417.845          50.000          43.000
  22537822.483    22537821.7344   22537828.1474  118437071.285 6  92288664.63243
     -1417.058       -1104.204          43.000          29.000
  22734894.179    22734893.4174   22734899.0584  119472668.437 6  93095618.37844
     -2903.638       -2262.575          44.000          31.000
  21560985.188    21560985.1144   21560991.6254  113303727.134 7  88288665.13445
      2732.232        2129.015          48.000          35.000
  25257898.268                                   132731146.040 4
      4309.692                          33.000
  23943630.729    23943632.2034   23943641.5184  125824676.354 5  98045207.01541
      3339.232        2602.040          37.000          17.000
  24072844.458    24072845.2844   24072851.9094  126503656.073 5  98574297.07841
     -1106.094        -861.929          36.000          15.000
  22176263.587    22176264.2694   22176271.6984  116537064.262 6  90808123.48543
      2410.369        1878.215          44.000          29.000
  19741959.570    19741960.419    19741960.514   105569156.550 8  82109365.523 7
     -1079.772        -839.828          53.000          46.000
  20320151.464    20320151.903    20320152.089   108622812.442 8  84484517.476 6
      2503.543        1947.195          50.000          44.000
  23150580.123    23150582.193    23150582.515   123970302.527 5  96421380.476 5
     -3187.227       -2478.954          36.000          35.000
  20116057.540    20116058.876    20116059.508   107682834.740 8  83753360.021 5
      1953.650        1519.510          51.000          38.000
  23928895.412    23928897.236    23928897.584   128362650.017 5  99837640.444 4
     -4212.282       -3276.210          37.000          31.000
  20193308.130    20193308.136    20193309.252   108020598.258 7  84016053.726 6
     -2372.376       -1845.178          48.000          43.000
 05  9 30  0 43 30.0000000  0 16G01G07G11G14G19G20G23G24G28G31R01R02
                                R08R17R23R24
  21408851.753    21408851.8924   21408859.0894  112504307.827 8  87665692.46945
       855.758         666.827          50.000          39.000
  24690981.335    24690982.0774   24690988.4614  129751982.630 5 101105462.31141
      3464.821        2699.877          38.000          13.000
  20206689.385    20206689.4074   20206694.9134  106186880.685 8  82743065.40446
       522.653         407.261          51.000          43.000
  22545960.427    22545960.4004   22545966.6714  118479839.399 6  92321990.43743
     -1434.067       -1117.449          43.000          29.000
  22751495.630    22751495.3984   22751500.9644  119559911.171 6  93163599.71644
     -2912.356       -2269.369          43.000          31.000
  21545419.097    21545418.8074   21545425.6484  113221925.799 7  88224923.84645
      2721.304        2120.493          48.000          35.000
  25233291.742                                   132601839.087 4
      4310.861                          34.000
  23924575.857    23924576.4704   23924585.1504  125724533.273 5  97967173.51941
      3337.162        2600.400          37.000          17.000
  24079199.152    24079198.5634   24079208.5774  126537053.414 5  98600320.95441
     -1120.162        -872.878          35.000          15.000
  22162554.071    22162553.8294   22162560.3274  116465012.584 6  90751979.31643
      2393.153        1864.785          44.000          29.000
  19748055.462    19748056.125    19748055.968   105601752.324 8  82134717.788 7
     -1093.144        -850.227          53.000          46.000
  20306143.653    20306143.411    20306143.359   108547927.127 8  84426273.349 6
      2488.961        1935.859          51.000          44.000
  23168438.690    23168440.277    23168440.974   124065928.905 5  96495756.517 5
     -3187.689       -2479.312          38.000          36.000
  20105178.847    20105180.080    20105181.006   107624599.840 8  83708066.207 5
      1928.755        1500.148          51.000          39.000
  23952461.522    23952459.691    23952459.836   128489046.512 4  99935948.758 4
     -4213.988       -3277.542          34.000          32.000
  20206671.798    20206671.555    20206672.792   108092085.709 7  84071655.072 6
     -2393.321       -1861.469          47.000          43.000
 05  9 30  0 44  0.0000000  0 16G01G07G11G14G19G20G23G24G28G31R01R02
                                R08R17R23R24
  21404023.673    21404023.9334   21404030.9364  112478935.940 8  87645922.17545
       835.622         651.136          50.000          39.000
  24671221.514    24671220.7434   24671229.2404  129648148.315 5 101024552.44641
      3457.404        2694.080          37.000          17.000
  20203745.225    20203745.1844   20203750.5024  106171407.749 8  82731008.56746
       508.812         396.480          51.000          43.000
  22554196.726    22554196.6334   22554202.5744  118523119.890 6  92355715.49743
     -1451.392       -1130.957          43.000          29.000
  22768147.221    22768146.6034   22768152.1814  119647414.992 6  93231784.50144
     -2921.259       -2276.306          44.000          31.000
  21529915.480    21529915.0934   21529921.8694  113140453.603 7  88161439.02745
      2710.108        2111.782          48.000          35.000
  25208678.237    25208678.8114   25208681.3124  132472498.205 4 103225353.35341
      4311.746        3359.766          34.000          13.000
  23905532.020    23905530.0114   23905540.4194  125624452.656 5  97889188.57541
      3334.823        2598.594          37.000          16.000
  24085637.466    24085634.2504   24085644.0404  126570876.355 5  98626676.42841
     -1134.629        -884.098          36.000          16.000
  22148941.792    22148941.7534   22148947.6834  116393479.213 6  90696239.03043
      2375.617        1851.136          44.000          29.000
  19754226.110    19754226.659    19754226.521   105634748.883 8  82160381.779 7
     -1106.681        -860.750          53.000          46.000
  20292216.256    20292216.061    20292217.095   108473480.181 8  84368370.176 7
      2474.097        1924.299          50.000          45.000
  23186297.958    23186299.809    23186300.287   124161569.614 5  96570143.701 5
     -3188.368       -2479.844          37.000          35.000
  20094439.700    20094440.804    20094441.698   107567113.090 8  83663354.284 5
      1903.525        1480.520          51.000          38.000
  23976031.754    23976032.289    23976032.199   128615494.923 5 100034297.480 4
     -4215.876       -3279.021          38.000          33.000
  20220152.434    20220152.971    20220154.065   108164200.564 7  84127744.386 6
     -2414.381       -1877.845          47.000          43.000
 05  9 30  0 44 30.0000000  0 16G01G07G11G14G19G20G23G24G28G31R01R02
                                R08R17R23R24
  21399309.067    21399309.1784   21399316.3804  112454160.302 8  87626616.49545
       815.895         635.765          51.000          39.000
  24651504.163    24651505.0054   24651510.3294  129544527.836 5 100943809.24241
      3450.370        2688.605          36.000          15.000
  20200878.194    20200878.2294   20200883.6174  106156342.338 8  82719269.28646
       495.365         386.001          51.000          43.000
  22562529.735    22562529.5944   22562535.3524  118566909.446 6  92389837.23143
     -1468.139       -1144.006          44.000          29.000
  22784847.345    22784846.9104   22784852.9534  119735176.625 6  93300170.17344
     -2929.676       -2282.864          43.000          30.000
  21514474.356    21514474.0864   21514480.7394  113059310.321 7  88098210.50445
      2699.258        2103.319          48.000          35.000
  25184059.212    25184056.5254   25184064.8604  132343124.685 4 103124542.86341
      4313.064        3360.806          33.000          12.000
  23886498.660    23886499.1534   23886507.2784  125524434.194 5  97811252.17341
      3332.820        2597.000          38.000          19.000
  24092154.056    24092152.5704   24092159.7504  126605121.123 5  98653360.72241
     -1148.406        -894.866          36.000          15.000
  22135427.110    22135427.8244   22135434.7704  116322465.103 6  90640903.34943
      2358.451        1837.753          43.000          29.000
  19760470.417    19760471.201    19760471.282   105668143.343 8  82186355.248 7
     -1119.778        -870.945          53.000          46.000
  20278370.959    20278370.992    20278371.742   108399471.047 8  84310807.532 6
      2459.659        1913.071          50.000          44.000
  23204160.793    23204161.796    23204163.459   124257221.822 5  96644539.844 5
     -3188.542       -2479.982          37.000          35.000
  20083840.865    20083842.503    20083843.034   107510378.409 8  83619227.307 5
      1878.585        1461.124          52.000          38.000
  23999614.462    23999611.221    23999613.624   128741991.563 5 100132683.686 4
     -4217.418       -3280.200          35.000          30.000
  20233749.500    20233750.467    20233751.347   108236940.026 7  84184319.508 6
     -2435.050       -1893.925          47.000          44.000
 05  9 30  0 45  0.0000000  0 16G01G07G11G14G19G20G23G24G28G31R01R02
                                R08R17R23R24
  21394707.999    21394707.6284   21394714.7344  112429978.642 8  87607773.65345
       795.900         620.184          51.000          39.000
  24631824.365    24631822.8964   24631835.9424  129441120.781 5 100863232.31241
      3443.142        2683.017          36.000          12.000
  20198088.314    20198088.4954   20198093.8374  106141682.187 8  82707845.78646
       481.671         375.330          50.000          43.000
  22570958.448    22570958.5224   22570964.8224  118611203.423 6  92424352.01743
     -1485.120       -1157.231          44.000          29.000
  22801596.935    22801596.1394   22801601.5844  119823190.825 6  93368752.64844
     -2938.217       -2289.519          44.000          31.000
  21499095.970    21499095.6544   21499102.1764  112978493.974 7  88035236.73945
      2688.188        2094.693          49.000          35.000
  25159435.531    25159436.1644   25159438.8114  132213718.511 5 103023706.90141
      4313.841        3361.412          35.000          11.000
  23867477.942    23867478.3334   23867483.9194  125424476.159 5  97733362.78841
      3330.675        2595.344          38.000          17.000
  24098749.408    24098747.8834   24098756.4274  126639783.376 5  98680370.26141
     -1162.549        -905.907          36.000          15.000
  22122012.983    22122013.1934   22122019.6884  116251969.564 6  90585971.76743
      2340.955        1824.114          44.000          29.000
  19766788.880    19766789.485    19766789.941   105701930.615 8  82212634.235 7
     -1133.012        -881.231          53.000          45.000
  20264607.605    20264607.620    20264607.802   108325897.426 8  84253583.617 6
      2444.967        1901.642          51.000          44.000
  23222023.641    23222025.275    23222026.337   124352881.189 5  96718941.512 5
     -3188.990       -2480.325          36.000          35.000
  20073383.424    20073384.201    20073385.227   107454393.392 8  83575683.402 5
      1853.362        1441.506          51.000          39.000
  24023202.722    24023201.905    24023201.500   128868529.365 5 100231102.004 3
     -4218.836       -3281.326          36.000          28.000
  20247464.097    20247464.203    20247465.227   108310296.622 7  84241374.626 6
     -2455.696       -1909.982          47.000          43.000
 05  9 30  0 45 30.0000000  0 16G01G07G11G14G19G20G23G24G28G31R01R02
                                R08R17R23R24
  21390220.490    21390220.1934   21390227.2874  112406397.121 8  87589398.45145
       775.679         604.429          50.000          39.000
  24612188.771    24612189.9004   24612195.9244  129337935.654 5 100782828.32941
      3435.387        2676.910          35.000          12.000
  20195377.095    20195377.0464   20195382.5744  106127433.887 8  82696743.21146
       467.722         364.460          50.000          43.000
  22579483.591    22579484.0594   22579489.8584  118656005.463 6  92459262.70643
     -1502.197       -1170.550          43.000          29.000
  22818393.468    22818393.2194   22818399.0334  119911461.317 6  93437534.84444
     -2946.974       -2296.342          44.000          30.000
  21483780.471    21483779.9324   21483786.5194  112898011.106 7  87972522.82245
      2676.861        2085.869          49.000          36.000
  25134804.064    25134806.5814   25134808.0624  132084287.739 4 102922851.76241
      4314.394        3361.875          34.000          12.000
  23848468.934    23848468.6184   23848477.0904  125324585.386 5  97655525.84241
      3328.181        2593.399          37.000          18.000
  24105425.602    24105425.9454   24105431.3364  126674866.367 5  98707707.66341
     -1176.653        -916.874          36.000          15.000
  22108698.904    22108698.4094   22108705.1544  116182000.519 6  90531450.43843
      2323.150        1810.245          44.000          29.000
  19773182.062    19773182.393    19773182.444   105736114.917 8  82239222.026 7
     -1146.426        -891.663          53.000          46.000
  20250926.780    20250926.839    20250927.105   108252765.250 8  84196703.054 6
      2429.980        1889.983          50.000          44.000
  23239891.514    23239891.695    23239891.854   124448552.252 5  96793352.287 4
     -3189.559       -2480.755          36.000          34.000
  20063066.061    20063066.986    20063068.457   107399168.190 8  83532730.460 5
      1827.796        1421.618          51.000          39.000
  24046798.806    24046799.642    24046799.679   128995112.127 5 100329555.183 4
     -4220.533       -3282.630          38.000          32.000
  20261292.278    20261293.037    20261293.975   108384274.263 7  84298912.777 6
     -2476.530       -1926.184          47.000          43.000
 05  9 30  0 46  0.0000000  0 16G01G07G11G14G19G20G23G24G28G31R01R02
                                R08R17R23R24
  21385849.293    21385849.3894   21385856.7304  112383428.727 8  87571501.00745
       755.541         588.735          50.000          39.000
  24592600.026    24592599.3064   24592607.1664  129234987.330 5 100702608.82941
      3427.820        2671.033          37.000          16.000
  20192746.582    20192746.5594   20192752.2124  106113610.821 8  82685971.99046
       453.820         353.626          51.000          43.000
  22588108.633    22588108.1134   22588114.3844  118701326.591 6  92494577.86843
     -1519.135       -1183.741          43.000          29.000
  22835241.790    22835241.3154   22835246.5734  119999998.471 6  93506524.82444
     -2955.521       -2302.998          43.000          31.000
  21468530.446    21468530.3494   21468537.2874  112817875.507 7  87910079.50945
      2665.563        2077.068          48.000          35.000
  25110173.912    25110175.1504   25110178.0854  131954847.292 4 102821989.15241
      4314.979        3362.305          34.000          11.000
  23829475.702    23829475.8114   23829483.4094  125224775.603 5  97577752.00041
      3325.794        2591.530          38.000          17.000
  24112184.137    24112185.4294   24112189.5594  126710380.736 5  98735381.13141
     -1190.913        -927.970          37.000          16.000
  22095487.098    22095487.3804   22095493.9174  116112573.005 7  90477351.06944
      2305.329        1796.361          45.000          30.000
  19779650.880    19779651.136    19779651.354   105770706.987 8  82266126.973 7
     -1159.683        -901.978          53.000          46.000
  20237331.157    20237331.214    20237331.680   108180088.336 8  84140176.574 6
      2415.131        1878.436          51.000          44.000
  23257762.793    23257762.176    23257761.890   124544246.217 5  96867780.892 4
     -3190.007       -2481.109          37.000          34.000
  20052894.521    20052895.787    20052896.098   107344718.469 8  83490380.679 5
      1802.156        1401.677          52.000          38.000
  24070407.639    24070406.768    24070406.928   129121748.457 5 100428050.020 4
     -4221.923       -3283.704          38.000          32.000
  20275239.755    20275240.778    20275241.924   108458882.818 7  84356941.636 6
     -2497.275       -1942.323          47.000          43.000
 05  9 30  0 46 30.0000000  0 16G01G07G11G14G19G20G23G24G28G31R01R02
                                R08R17R23R24
  21381592.871    21381592.7574   21381599.8554  112361058.926 8  87554070.00346
       735.682         573.262          50.000          40.000
  24573052.099    24573050.5904   24573059.2014  129132263.394 5 100622564.23341
      3420.287        2665.147          37.000          15.000
  20190194.120    20190194.2744   20190199.8204  106100198.618 8  82675520.92046
       440.223         343.031          51.000          43.000
  22596828.397    22596828.4384   22596833.9494  118747149.615 6  92530284.12243
     -1535.775       -1196.707          43.000          29.000
  22852136.820    22852136.8654   22852141.8084  120088785.305 6  93575709.36144
     -2963.706       -2309.387          43.000          30.000
  21453344.693    21453344.6024   21453351.1174  112738072.741 7  87847895.54245
      2654.534        2068.471          49.000          35.000
  25085538.086    25085535.7414   25085540.8664  131825384.886 4 102721109.40141
      4315.805        3362.913          34.000          13.000
  23810493.993    23810493.7034   23810501.9084  125125032.662 5  97500030.31441
      3323.680        2589.881          36.000          17.000
  24119019.818    24119019.3284   24119028.0874  126746308.988 4  98763377.15141
     -1204.477        -938.524          34.000          15.000
  22082375.731    22082375.5064   22082382.7954  116043674.334 6  90423663.79343
      2287.787        1782.691          44.000          29.000
  19786192.847    19786193.118    19786193.322   105805689.977 8  82293335.967 7
     -1172.599        -912.025          53.000          46.000
  20223817.493    20223817.465    20223818.468   108107851.947 8  84083992.725 6
      2400.512        1867.065          51.000          44.000
  23275632.628    23275633.750    23275634.132   124639946.863 5  96942214.699 4
     -3190.083       -2481.173          37.000          34.000
  20042865.144    20042866.612    20042867.181   107291031.065 8  83448623.807 5
      1776.857        1382.005          52.000          39.000
  24094019.248    24094019.211    24094020.154   129248420.048 5 100526572.403 3
     -4223.004       -3284.556          36.000          27.000
  20289302.554    20289302.488    20289303.618   108534103.593 7  84415446.665 6
     -2517.587       -1958.125          47.000          43.000
 05  9 30  0 47  0.0000000  0 16G01G07G11G14G19G20G23G24G28G31R01R02
                                R08R17R23R24
  21377449.723    21377450.0404   21377456.8884  112339288.628 8  87537106.14645
       715.322         557.393          51.000          39.000
  24553547.011    24553547.4454   24553553.8354  129029766.650 5 100542696.62241
      3412.364        2658.969          36.000          14.000
  20187720.182    20187720.3484   20187725.9694  106087198.369 8  82665390.85246
       426.120         332.041          51.000          43.000
  22605643.579    22605643.0594   22605649.1764  118793473.036 6  92566380.30443
     -1552.805       -1209.973          43.000          29.000
  22869079.304    22869078.9604   22869084.9384  120177819.835 6  93645086.90544
     -2972.302       -2316.074          43.000          30.000
  21438222.241    21438222.1094   21438228.7684  112658604.355 7  87785972.13445
      2643.015        2059.491          49.000          36.000
  25060896.888    25060898.4754   25060899.8344  131695903.455 5 102620214.80641
      4315.954        3363.105          35.000          15.000
  23791527.011    23791525.4934   23791533.0184  125025358.306 5  97422361.96441
      3321.006        2587.784          37.000          17.000
  24125935.527    24125936.8524   24125939.5334  126782649.853 5  98791694.67541
     -1218.547        -949.553          36.000          13.000
  22069365.735    22069365.6644   22069372.1954  115975306.910 6  90370390.47543
      2269.692        1768.596          44.000          29.000
  19792807.457    19792807.948    19792808.136   105841061.786 8  82320847.371 7
     -1185.890        -922.360          53.000          46.000
  20210387.357    20210387.357    20210387.355   108036056.867 8  84028152.122 6
      2385.434        1855.338          51.000          44.000
  23293504.820    23293506.023    23293506.732   124735652.866 5  97016652.664 5
     -3190.635       -2481.598          37.000          35.000
  20032979.313    20032980.535    20032981.031   107238107.419 8  83407460.968 5
      1750.938        1361.842          52.000          39.000
  24117639.147    24117640.197    24117641.151   129375124.388 5 100625120.174 4
     -4224.382       -3285.627          39.000          32.000
  20303476.389    20303477.853    20303478.537   108609934.698 7  84474426.406 6
     -2538.221       -1974.167          47.000          43.000
 05  9 30  0 47 30.0000000  0 16G01G07G11G14G19G20G23G24G28G31R01R02
                                R08R17R23R24
  21373422.176    21373421.8964   21373429.1064  112318121.586 8  87520612.35545
       695.813         542.195          51.000          39.000
  24534089.210    24534088.8144   24534094.0924  128927503.047 5 100463010.70641
      3405.185        2653.383          38.000          16.000
  20185325.534    20185325.8284   20185331.3754  106074614.351 8  82655585.12346
       412.831         321.687          51.000          43.000
  22614553.977    22614553.6674   22614559.9114  118840298.436 6  92602867.62243
     -1568.874       -1222.495          43.000          28.000
  22886070.147    22886069.6634   22886075.2124  120267103.208 6  93714658.35544
     -2979.925       -2322.024          43.000          30.000
  21423164.669    21423164.2464   21423170.7094  112579474.460 7  87724312.48445
      2632.324        2051.168          48.000          36.000
  25036257.683    25036257.1824   25036262.3324  131566408.623 5 102519309.79541
      4316.910        3363.860          35.000          14.000
  23772573.958    23772572.3974   23772580.2284  124925756.822 5  97344750.43941
      3319.121        2586.354          37.000          16.000
  24132929.540    24132929.9694   24132936.6614  126819404.048 5  98820334.34741
     -1231.651        -959.723          35.000          14.000
  22056457.925    22056457.8834   22056465.1594  115907476.268 6  90317535.43444
      2252.335        1755.069          42.000          30.000
  19799495.131    19799495.791    19799495.536   105876824.092 8  82348662.501 7
     -1198.238        -931.966          53.000          45.000
  20197040.043    20197040.040    20197039.980   107964707.490 8  83972658.169 7
      2371.218        1844.286          51.000          45.000
  23311378.358    23311379.891    23311380.754   124831366.977 5  97091096.929 5
     -3190.294       -2481.331          37.000          35.000
  20023235.384    20023237.192    20023237.989   107185955.687 8  83366898.503 5
      1725.861        1342.344          51.000          39.000
  24141265.477    24141265.171    24141266.409   129501862.274 5 100723693.970 4
     -4224.775       -3285.930          35.000          33.000
  20317768.344    20317768.343    20317769.266   108686375.869 7  84533880.634 6
     -2557.877       -1989.453          47.000          43.000
 05  9 30  0 48  0.0000000  0 16G01G07G11G14G19G20G23G24G28G31R01R02
                                R08R17R23R24
  21369507.568    21369507.4024   21369514.5184  112297550.053 8  87504582.60046
       675.820         526.615          51.000          40.000
  24514671.546    24514671.4754   24514678.4114  128825466.905 5 100383502.01241
      3397.420        2647.348          37.000          16.000
  20183009.004    20183009.0784   20183014.5514  106062439.019 8  82646097.84946
       399.055         310.952          51.000          43.000
  22623558.179    22623557.6804   22623563.8674  118887615.900 6  92639738.37943
     -1585.414       -1235.386          44.000          28.000
  22903105.582    22903104.6624   22903111.3194  120356625.353 6  93784415.85844
     -2988.015       -2328.316          43.000          30.000
  21408170.054    21408169.5804   21408176.1224  112500675.779 7  87662910.93245
      2621.117        2042.429          48.000          36.000
  25011609.790    25011611.5994   25011614.9274  131436895.129 5 102418390.24241
      4317.414        3364.215          36.000          16.000
  23753634.060    23753632.6714   23753640.1154  124826221.355 5  97267190.36441
      3316.715        2584.441          37.000          17.000
  24140001.231    24140000.4644   24140006.2914  126856561.337 5  98849288.02641
     -1245.267        -970.324          35.000          15.000
  22043651.952    22043651.7324   22043658.3354  115840176.593 7  90265094.12744
      2234.462        1741.146          45.000          30.000
  19806253.866    19806254.700    19806254.504   105912966.890 8  82376773.569 7
     -1211.050        -941.934          53.000          45.000
  20183774.210    20183773.958    20183774.701   107893796.042 8  83917504.839 7
      2356.459        1832.801          50.000          45.000
  23329251.551    23329252.988    23329253.934   124927079.232 5  97165539.745 5
     -3190.312       -2481.350          37.000          35.000
  20013636.236    20013637.724    20013638.628   107134566.830 8  83326929.396 5
      1700.251        1322.416          52.000          39.000
  24164894.337    24164895.658    24164894.198   129628622.305 5 100822285.093 3
     -4225.637       -3286.607          36.000          27.000
  20332170.396    20332170.336    20332171.284   108763415.825 7  84593800.589 6
     -2577.931       -2005.056          47.000          43.000
 05  9 30  0 48 30.0000000  0 16G01G07G11G14G19G20G23G24G28G31R01R02
                                R08R17R23R24
  21365706.992    21365707.0674   21365713.9174  112277579.445 8  87489021.09745
       655.449         510.735          51.000          39.000
  24495298.584    24495296.7184   24495304.1604  128723665.862 5 100304176.48241
      3389.248        2640.989          37.000          15.000
  20180770.840    20180771.1034   20180776.6404  106050678.169 8  82636933.54546
       384.909         299.931          51.000          43.000
  22632656.407    22632656.0324   22632662.6464  118935428.308 6  92676994.79743
     -1602.179       -1248.452          43.000          28.000
  22920186.455    22920186.5484   22920192.3484  120446389.161 6  93854361.66244
     -2996.322       -2334.797          42.000          30.000
  21393238.842    21393238.9894   21393245.3624  112422214.329 7  87601772.15045
      2609.527        2033.398          49.000          36.000
  24986961.960    24986961.9954   24986966.6554  131307370.605 5 102317462.06041
      4317.491        3364.234          35.000          15.000
  23734705.215    23734705.1894   23734713.1184  124726758.046 5  97189686.52141
      3314.001        2582.342          37.000          18.000
  24147150.046    24147147.0744   24147154.3164  126894124.798 5  98878558.21941
     -1259.037        -981.077          37.000          15.000
  22030947.411    22030947.2664   22030954.1164  115773415.174 7  90213072.23944
      2216.202        1726.906          45.000          30.000
  19813085.009    19813085.519    19813085.254   105949494.031 8  82405183.570 7
     -1224.156        -952.126          53.000          45.000
  20170591.464    20170591.570    20170592.003   107823328.032 8  83862696.393 6
      2341.344        1821.047          50.000          44.000
  23347126.087    23347127.164    23347127.959   125022793.718 5  97239984.293 4
     -3190.718       -2481.670          36.000          34.000
  20004180.150    20004181.748    20004182.815   107083949.562 8  83287560.402 5
      1674.169        1302.135          52.000          39.000
  24188531.324    24188531.543    24188531.446   129755406.123 5 100920894.807 3
     -4226.704       -3287.442          38.000          29.000
  20346682.740    20346683.761    20346684.610   108841056.880 7  84654188.059 6
     -2598.209       -2020.826          47.000          43.000
 05  9 30  0 49  0.0000000  0 16G01G07G11G14G19G20G23G24G28G31R01R02
                                R08R17R23R24
  21362023.260    21362023.0704   21362030.2224  112258219.988 8  87473935.81245
       635.149         494.921          51.000          39.000
  24475971.904    24475970.7154   24475982.5604  128622112.459 5 100225043.98941
      3380.952        2634.507          36.000          15.000
  20178613.622    20178613.8744   20178619.5594  106039342.463 8  82628100.52546
       370.780         288.919          51.000          43.000
  22641850.741    22641849.8694   22641856.5374  118983743.779 6  92714643.21343
     -1618.831       -1261.427          42.000          28.000
  22937315.951    22937315.7244   22937321.0994  120536402.259 6  93924501.72444
     -3004.559       -2341.216          42.000          30.000
  21378374.488    21378374.1514   21378380.8464  112344100.937 7  87540904.58145
      2597.965        2024.392          49.000          36.000
  24962315.179    24962315.9814   24962319.0914  131177847.830 5 102216535.23641
      4317.416        3364.239          35.000          15.000
  23715794.796    23715794.0514   23715800.4634  124627377.944 5  97112247.47141
      3311.323        2580.282          38.000          18.000
  24154375.819    24154375.9074   24154383.2714  126932102.057 5  98908150.90241
     -1272.853        -991.836          36.000          16.000
  22018347.179    22018347.2014   22018354.2954  115707203.832 6  90161478.97944
      2197.847        1712.617          44.000          30.000
  19819989.013    19819989.535    19819989.597   105986413.230 8  82433898.499 7
     -1237.130        -962.211          53.000          45.000
  20157493.981    20157494.129    20157494.617   107753314.132 8  83808241.142 6
      2326.228        1809.290          51.000          44.000
  23365001.680    23365003.312    23365003.233   125118519.092 5  97314437.330 4
     -3190.947       -2481.841          36.000          34.000
  19994872.300    19994873.278    19994874.109   107034118.602 8  83248802.988 5
      1647.879        1281.684          52.000          39.000
  24212168.875    24212169.884    24212171.444   129882220.694 4 101019528.255 4
     -4227.660       -3288.167          33.000          34.000
  20361312.795    20361312.777    20361313.795   108919307.522 7  84715049.660 6
     -2618.443       -2036.561          47.000          43.000
 05  9 30  0 49 30.0000000  0 16G01G07G11G14G19G20G23G24G28G31R01R02
                                R08R17R23R24
  21358452.856    21358452.6264   21358460.1004  112239458.023 8  87459316.10846
       615.390         479.519          50.000          40.000
  24456693.937    24456691.6384   24456702.4564  128520795.038 5 100146095.36641
      3373.210        2628.488          37.000          16.000
  20176535.007    20176535.0154   20176540.5524  106028418.372 8  82619588.24246
       357.212         278.345          50.000          43.000
  22651137.117    22651137.0104   22651143.3444  119032546.196 6  92752671.06943
     -1634.886       -1273.938          44.000          28.000
  22954489.281    22954489.2574   22954494.0824  120626648.479 6  93994823.44843
     -3012.118       -2347.110          43.000          29.000
  21363573.411    21363573.3754   21363579.5824  112266322.420 7  87480297.95545
      2586.968        2015.820          49.000          36.000
  24937666.428    24937667.9364   24937670.2384  131048314.721 5 102115600.34941
      4317.890        3364.596          36.000          16.000
  23696897.188    23696897.1284   23696904.2304  124528068.200 5  97034863.24641
      3309.053        2578.491          38.000          19.000
  24161677.612    24161677.9764   24161685.2844  126970476.905 5  98938053.35441
     -1285.840       -1001.920          36.000          15.000
  22005849.563    22005849.9874   22005857.4664  115641530.814 6  90110305.20344
      2180.052        1698.743          44.000          30.000
  19826963.223    19826963.879    19826963.908   106023708.309 8  82462905.785 7
     -1249.475        -971.820          53.000          46.000
  20144478.646    20144478.998    20144479.447   107683740.742 8  83754128.522 7
      2311.691        1797.986          51.000          45.000
  23382877.031    23382878.957    23382879.078   125214239.468 5  97388886.450 4
     -3190.626       -2481.592          35.000          34.000
  19985707.255    19985708.194    19985709.406   106985060.192 8  83210646.448 5
      1622.297        1261.782          52.000          38.000
  24235814.630    24235813.458    24235813.278   130009049.087 4 101118172.439 4
     -4227.812       -3288.301          33.000          32.000
  20376051.758    20376051.047    20376052.481   108998149.566 7  84776371.231 6
     -2637.889       -2051.689          47.000          43.000
 05  9 30  0 50  0.0000000  0 16G01G07G11G14G19G20G23G24G28G31R01R02
                                R08R17R23R24
  21354997.086    21354997.0764   21355004.1954  112221298.780 8  87445166.05845
       595.034         463.660          51.000          39.000
  24437459.977    24437460.2534   24437468.8724  128419721.294 5 100067336.61541
      3364.846        2621.974          37.000          17.000
  20174535.546    20174535.7274   20174541.2554  106017911.900 8  82611401.37346
       343.011         267.280          51.000          43.000
  22660517.316    22660517.0694   22660523.4504  119081838.761 6  92791080.85943
     -1651.472       -1286.857          43.000          28.000
  22971707.730    22971706.5654   22971712.4764  120717130.714 6  94065329.08443
     -3020.233       -2353.432          43.000          29.000
  21348837.587    21348837.6454   21348843.8764  112188884.723 7  87419956.90345
      2575.301        2006.730          49.000          36.000
  24913015.992    24913016.2674   24913020.6094  130918779.551 5 102014663.88341
      4317.621        3364.400          37.000          16.000
  23678012.912    23678014.2404   23678020.9274  124428835.243 5  96957538.90341
      3306.251        2576.312          38.000          19.000
  24169056.719    24169056.7294   24169062.5184  127009251.973 5  98968267.69841
     -1299.372       -1012.509          35.000          15.000
  21993456.917    21993457.3974   21993464.1364  115576403.299 6  90059556.50544
      2161.518        1684.300          44.000          30.000
  19834008.806    19834009.510    19834009.061   106061383.336 8  82492208.580 7
     -1262.385        -981.859          53.000          45.000
  20131546.837    20131547.012    20131547.166   107614613.476 8  83700362.884 6
      2296.567        1786.218          50.000          44.000
  23400754.264    23400754.814    23400753.726   125309959.190 5  97463335.095 4
     -3190.816       -2481.746          37.000          33.000
  19976688.566    19976689.659    19976690.210   106936782.307 8  83173096.980 5
      1595.987        1241.319          51.000          38.000
  24259459.218    24259459.713    24259459.252   130135892.953 5 101216828.833 3
     -4228.641       -3288.972          35.000          29.000
  20390899.233    20390900.352    20390901.113   109077584.160 7  84838153.681 6
     -2657.920       -2067.265          47.000          43.000
 05  9 30  0 50 30.0000000  0 16G01G07G11G14G19G20G23G24G28G31R01R02
                                R08R17R23R24
  21351657.414    21351657.4624   21351664.8844  112203748.941 8  87431490.86345
       574.974         448.033          50.000          39.000
  24418274.866    24418275.1044   24418281.8224  128318899.966 5  99988774.51341
      3356.688        2615.611          38.000          17.000
  20172617.164    20172617.2224   20172622.6774  106007829.725 8  82603545.12946
       329.146         256.475          51.000          43.000
  22669991.058    22669991.2754   22669998.0894  119131625.693 6  92829875.87643
     -1667.654       -1299.473          43.000          28.000
  22988971.779    22988971.0044   22988976.8084  120807853.167 6  94136021.88343
     -3027.912       -2359.415          43.000          29.000
  21334168.003    21334167.8524   21334174.5144  112111795.071 7  87359887.04745
      2564.029        1997.945          49.000          37.000
  24888367.639    24888367.3284   24888371.9994  130789250.879 5 101913732.44541
      4317.652        3364.403          36.000          16.000
  23659145.348    23659145.8484   23659154.2034  124329686.244 5  96880279.96641
      3303.662        2574.259          38.000          18.000
  24176514.117    24176514.2414   24176519.3714  127048431.630 5  98998797.27241
     -1312.572       -1022.766          37.000          16.000
  21981169.146    21981169.4474   21981175.5644  115511829.768 6  90009239.45844
      2143.356        1670.147          44.000          30.000
  19841125.740    19841126.565    19841126.433   106099442.219 8  82521809.931 7
     -1274.825        -991.537          53.000          45.000
  20118700.164    20118700.061    20118700.526   107545939.290 8  83646949.631 6
      2281.770        1774.712          50.000          44.000
  23418627.763    23418628.895    23418629.547   125405683.368 5  97537787.225 4
     -3190.748       -2481.690          36.000          33.000
  19967818.020    19967819.132    19967819.652   106889294.633 8  83136162.107 5
      1569.867        1221.008          52.000          39.000
  24283105.066    24283107.856    24283109.887   130262756.332 4 101315500.384 3
     -4229.015       -3289.230          33.000          27.000
  20405861.529    20405861.890    20405862.850   109157615.713 7  84900400.435 6
     -2677.492       -2082.493          47.000          43.000
 05  9 30  0 51  0.0000000  0 16G01G07G11G14G19G20G23G24G28G31R01R02
                                R08R17R23R24
  21348433.223    21348433.0104   21348440.5874  112186804.681 8  87418287.55245
       554.995         432.467          51.000          39.000
  24399137.003    24399135.4364   24399142.3734  128218329.621 5  99910407.95741
      3348.399        2609.149          37.000          16.000
  20170778.617    20170778.9354   20170784.1514  105998168.919 8  82596017.22346
       315.241         245.645          51.000          43.000
  22679558.879    22679558.4314   22679564.8684  119181901.015 6  92869051.45343
     -1683.675       -1311.951          43.000          27.000
  23006279.930    23006279.9254   23006285.1934  120898809.790 6  94206897.16043
     -3035.485       -2365.307          43.000          29.000
  21319564.622    21319563.9614   21319570.3824  112035050.196 8  87300085.86345
      2552.674        1989.098          50.000          37.000
  24863721.398    24863721.1844   24863724.6104  130659727.406 5 101812805.11341
      4317.721        3364.469          36.000          16.000
  23640295.347    23640294.5654   23640301.8344  124230618.565 5  96803084.39741
      3301.102        2572.300          39.000          19.000
  24184045.070    24184044.6924   24184051.2794  127088009.454 5  99029637.09741
     -1325.620       -1032.930          37.000          15.000
  21968986.148    21968985.7864   21968993.1454  115447808.334 6  89959352.61844
      2125.086        1655.911          44.000          30.000
  19848314.297    19848314.896    19848314.114   106137879.226 8  82551705.383 7
     -1287.258       -1001.207          53.000          45.000
  20105937.165    20105937.246    20105937.598   107477714.679 8  83593886.057 7
      2266.927        1763.167          51.000          45.000
  23436502.282    23436504.593    23436507.163   125501406.943 5  97612238.865 4
     -3190.508       -2481.493          35.000          33.000
  19959093.154    19959094.739    19959095.370   106842594.633 8  83099839.887 5
      1543.827        1200.755          52.000          39.000
  24306757.987    24306760.069    24306759.659   130389632.048 4 101414181.366 4
     -4229.065       -3289.279          32.000          32.000
  20420932.689    20420932.926    20420933.680   109238236.314 7  84963105.345 6
     -2696.906       -2097.590          47.000          43.000
 05  9 30  0 51 30.0000000  0 16G01G07G11G14G19G20G23G24G28G31R01R02
                                R08R17R23R24
  21345322.483    21345322.2994   21345329.4084  112170457.274 8  87405549.32445
       534.605         416.574          50.000          39.000
  24380044.933    24380044.7394   24380053.1994  128118003.721 5  99832231.96641
      3339.680        2602.367          37.000          17.000
  20169018.611    20169018.9124   20169024.3254  105988920.952 7  82588811.01046
       301.014         234.557          49.000          43.000
  22689217.830    22689216.6844   22689222.5144  119232653.500 6  92908598.84343
     -1700.030       -1324.703          43.000          27.000
  23023631.115    23023630.0964   23023635.4964  120989989.167 6  94277946.01143
     -3043.400       -2371.482          42.000          29.000
  21305024.696    21305024.1934   21305030.6024  111958642.203 7  87240547.17245
      2540.923        1979.945          48.000          37.000
  24839072.225    24839072.9014   24839075.7964  130530202.793 5 101711876.89841
      4317.140        3364.010          35.000          13.000
  23621456.878    23621455.4634   23621464.8774  124131624.431 5  96725946.13541
      3298.194        2570.019          39.000          19.000
  24191650.243    24191651.6674   24191655.6604  127127974.108 5  99060778.39041
     -1339.025       -1043.403          37.000          15.000
  21956907.042    21956906.8384   21956912.8014  115384332.023 6  89909890.56044
      2106.390        1641.343          44.000          30.000
  19855570.051    19855571.034    19855570.848   106176683.318 8  82581886.338 7
     -1299.949       -1011.070          53.000          45.000
  20093257.077    20093257.025    20093257.631   107409930.883 8  83541165.344 6
      2251.736        1751.351          51.000          44.000
  23454376.795    23454378.020    23454380.096   125597119.471 5  97686681.877 4
     -3190.559       -2481.543          35.000          34.000
  19950514.756    19950516.323    19950517.196   106796674.555 8  83064124.260 5
      1517.249        1180.088          52.000          39.000
  24330414.156    24330411.671    24330412.409   130516507.913 4 101512862.553 4
     -4229.530       -3289.629          34.000          30.000
  20436111.554    20436111.660    20436112.345   109319434.540 7  85026259.514 6
     -2716.550       -2112.871          47.000          43.000
 05  9 30  0 52  0.0000000  0 16G01G07G11G14G19G20G23G24G28G31R01R02
                                R08R17R23R24
  21342326.908    21342326.6354   21342333.7964  112154715.621 8  87393283.10745
       514.636         401.019          51.000          39.000
  24361002.118    24361000.9584   24361009.4404  128017933.707 5  99754255.32741
      3331.388        2595.915          38.000          18.000
  20167339.341    20167339.4154   20167344.9634  105980095.291 8  82581933.86746
       287.152         223.755          51.000          43.000
  22698965.875    22698966.1394   22698972.4754  119283890.103 6  92948523.47243
     -1715.931       -1337.098          43.000          27.000
  23041025.494    23041024.6064   23041029.9734  121081398.102 6  94349173.74343
     -3050.760       -2377.220          42.000          28.000
  21290550.504    21290550.1494   21290556.4214  111882580.572 8  87181278.37745
      2529.619        1971.139          50.000          37.000
  24814427.515    24814429.5894   24814430.4904  130400688.582 5 101610956.76841
      4316.983        3363.884          35.000          14.000
  23602633.706    23602633.2364   23602642.9084  124032713.802 5  96648872.90941
      3295.625        2568.034          37.000          19.000
  24199328.878    24199330.2844   24199334.9274  127168332.169 5  99092226.18641
     -1351.722       -1053.304          36.000          15.000
  21944933.517    21944933.8504   21944940.1414  115321411.894 6  89860861.89044
      2088.059        1627.055          44.000          30.000
  19862896.898    19862897.363    19862897.648   106215861.659 8  82612358.378 7
     -1312.183       -1020.592          52.000          45.000
  20080660.949    20080661.102    20080661.447   107342597.470 8  83488794.916 6
      2236.947        1739.849          51.000          44.000
  23472251.867    23472252.426    23472252.901   125692828.039 5  97761121.827 5
     -3190.240       -2481.301          37.000          35.000
  19942085.058    19942086.535    19942087.059   106751547.243 8  83029025.235 5
      1491.116        1159.758          52.000          39.000
  24354064.221    24354064.573    24354065.250   130643389.410 4 101611548.179 3
     -4229.377       -3289.522          33.000          25.000
  20451400.141    20451399.960    20451401.268   109401215.287 7  85089866.742 6
     -2735.710       -2127.775          47.000          43.000
 05  9 30  0 52 30.0000000  0 16G01G07G11G14G19G20G23G24G28G31R01R02
                                R08R17R23R24
  21339445.894    21339446.1604   21339453.4814  112139578.579 8  87381488.02045
       494.189         385.084          51.000          39.000
  24342007.564    24342005.5804   24342017.2104  127918120.629 5  99676478.92641
      3322.524        2588.945          37.000          17.000
  20165739.903    20165740.2154   20165745.8164  105971691.155 8  82575385.18246
       272.808         212.582          51.000          43.000
  22708807.892    22708808.0684   22708813.2244  119335607.500 6  92988822.74743
     -1732.139       -1349.725          43.000          27.000
  23058463.660    23058462.4884   23058467.6894  121173032.953 6  94420577.53143
     -3058.524       -2383.269          43.000          28.000
  21276141.912    21276141.6524   21276148.0574  111806864.746 7  87122279.05045
      2517.774        1961.905          49.000          37.000
  24789784.709    24789783.3614   24789787.6614  130271185.769 5 101510045.47941
      4316.261        3363.345          36.000          14.000
  23583827.396    23583827.7454   23583835.6324  123933886.603 5  96571864.75442
      3292.580        2565.643          38.000          20.000
  24207080.888    24207084.1694   24207089.4924  127209080.232 5  99123977.94641
     -1365.010       -1063.655          36.000          14.000
  21933066.172    21933065.8314   21933073.4774  115259048.499 7  89812267.03444
      2069.172        1612.344          45.000          31.000
  19870293.142    19870293.431    19870293.550   106255411.239 8  82643119.160 7
     -1324.807       -1030.413          53.000          46.000
  20068148.906    20068148.264    20068149.355   107275713.397 8  83436773.990 7
      2221.717        1727.998          50.000          45.000
  23490123.358    23490123.852    23490124.685   125788531.339 5  97835557.684 5
     -3190.260       -2481.298          36.000          35.000
  19933803.134    19933804.500    19933805.198   106707211.524 8  82994541.889 5
      1464.302        1138.908          52.000          39.000
  24377715.985    24377717.909    24377718.851   130770272.374 4 101710234.873 4
     -4229.754       -3289.795          34.000          30.000
  20466795.629    20466796.301    20466797.097   109483574.428 7  85153923.842 6
     -2755.253       -2142.969          46.000          42.000
 05  9 30  0 53  0.0000000  0 15G01G07G11G14G19G20G23G24G28G31R01R02
                                R17R23R24
  21336679.881    21336679.8334   21336687.1514  112125041.594 8  87370160.50345
       474.879         370.037          51.000          39.000
  24323061.826    24323062.1894   24323070.0644  127818562.234 5  99598900.95341
      3314.668        2582.818          35.000          16.000
  20164220.400    20164220.4284   20164226.0204  105963704.771 8  82569162.01846
       259.557         202.253          51.000          43.000
  22718739.413    22718739.3674   22718745.3964  119387798.914 6  93029491.38543
     -1747.309       -1361.543          43.000          27.000
  23075942.315    23075941.6534   23075947.5424  121264886.870 6  94492151.99743
     -3065.135       -2388.403          42.000          29.000
  21261798.765    21261798.3904   21261804.8644  111731490.781 7  87063546.09745
      2507.058        1953.552          49.000          37.000
  24765141.749    24765143.3694   24765145.5354  130141692.145 5 101409141.43341
      4316.616        3363.586          35.000          15.000
  23565036.375    23565035.7344   23565045.4174  123835139.017 5  96494918.58341
      3290.523        2564.071          38.000          19.000
  24214910.568    24214910.0364   24214915.8984  127250210.816 5  99156027.78141
     -1377.047       -1073.055          36.000          15.000
  21921305.069    21921304.9194   21921311.6914  115197239.217 7  89764103.95844
      2051.374        1598.468          45.000          31.000
  19877757.321    19877757.639    19877757.499   106295325.218 8  82674163.364 7
     -1336.207       -1039.276          53.000          45.000
  20055720.718    20055720.454    20055720.752   107209274.388 8  83385099.218 7
      2207.566        1716.994          51.000          45.000
  19925668.808    19925669.993    19925670.649   106663667.723 8  82960674.484 5
      1438.548        1118.864          52.000          39.000
  24401373.388    24401370.531    24401368.984   130897149.371 4 101808916.969 3
     -4228.854       -3289.124          30.000          26.000
  20482297.754    20482298.665    20482299.615   109566503.815 7  85218424.460 6
     -2773.427       -2157.104          46.000          43.000
 05  9 30  0 53 30.0000000  0 15G01G07G11G14G19G20G23G24G28G31R01R02
                                R08R17R24
  21334028.990    21334028.7184   21334036.1064  112111110.279 8  87359304.94346
       454.516         354.165          51.000          40.000
  24304166.683    24304166.8784   24304175.0864  127719266.811 5  99521527.87641
      3305.629        2575.782          37.000          16.000
  20162780.983    20162781.3534   20162786.8944  105956142.109 8  82563269.02946
       245.253         191.107          51.000          43.000
  22728761.912    22728762.3314   22728767.9194  119440467.861 6  93070532.12643
     -1763.327       -1374.020          42.000          27.000
  23093463.052    23093463.2644   23093468.9444  121356962.987 6  94563899.59143
     -3072.674       -2394.289          42.000          28.000
  21247521.831    21247521.5664   21247527.8744  111656465.106 8  87005084.53945
      2495.256        1944.356          50.000          37.000
  24740502.355    24740502.1634   24740506.5494  130012216.236 5 101308251.13241
      4315.752        3362.919          35.000          15.000
  23546260.439    23546261.1944   23546270.3474  123736477.711 5  96418039.66842
      3287.466        2561.662          38.000          20.000
  24222810.311    24222810.0914   24222819.0914  127291727.273 5  99188378.20041
     -1390.068       -1083.214          37.000          14.000
  21909649.788    21909649.5074   21909656.8794  115135991.651 6  89716378.58844
      2032.442        1583.720          44.000          31.000
  19885290.396    19885290.672    19885290.663   106335607.238 8  82705493.822 7
     -1348.635       -1048.940          53.000          45.000
  20043376.431    20043375.694    20043376.337   107143286.347 8  83333775.205 7
      2192.317        1705.132          51.000          45.000
  23525860.983    23525861.990    23525862.525   125979906.573 5  97984405.003 4
     -3189.102       -2480.410          36.000          34.000
  19917683.295    19917684.761    19917685.465   106620922.624 8  82927428.293 5
      1411.818        1098.077          52.000          39.000
  20497908.615    20497908.949    20497910.106   109650006.070 7  85283370.644 6
     -2792.688       -2172.089          46.000          43.000
 05  9 30  0 54  0.0000000  0 15G01G07G11G14G19G20G23G24G28G31R01R02
                                R08R17R24
  21331491.135    21331490.9804   21331498.2864  112097773.925 8  87348912.98445
       434.426         338.513          51.000          39.000
  24285321.184    24285319.6094   24285326.6994  127620226.014 5  99444353.20741
      3296.898        2569.003          38.000          17.000
  20161420.544    20161420.8194   20161426.4404  105948993.010 8  82557698.29746
       231.193         180.148          50.000          43.000
  22738872.674    22738872.6734   22738879.4534  119493601.482 6  93111934.94843
     -1779.022       -1386.261          43.000          27.000
  23111025.627    23111024.2654   23111029.3374  121449248.607 6  94635810.44843
     -3079.864       -2399.905          43.000          28.000
  21233309.050    21233308.9414   21233315.3954  111581777.657 7  86946886.54945
      2483.721        1935.362          49.000          37.000
  24715863.930    24715865.9654   24715868.7964  129882749.911 5 101207368.31641
      4315.217        3362.513          35.000          15.000
  23527500.922    23527501.5624   23527509.8424  123637893.024 5  96341220.43642
      3284.603        2559.418          38.000          20.000
  24230781.893    24230782.6734   24230789.0974  127333616.716 5  99221019.30941
     -1402.750       -1093.097          35.000          13.000
  21898099.876    21898099.8554   21898106.0414  115075296.985 7  89669084.04144
      2013.709        1569.116          45.000          30.000
  19892889.549    19892890.212    19892890.159   106376244.870 8  82737100.868 7
     -1360.707       -1058.336          53.000          45.000
  20031113.564    20031113.626    20031114.101   107077739.150 8  83282794.068 7
      2177.354        1693.494          51.000          45.000
  23543724.898    23543726.171    23543727.870   126075570.867 5  98058810.524 5
     -3188.744       -2480.138          37.000          35.000
  19909845.197    19909846.623    19909847.053   106578963.197 8  82894793.175 5
      1385.234        1077.401          52.000          39.000
  20513623.483    20513623.204    20513623.830   109734066.993 7  85348751.348 6
     -2811.453       -2186.690          47.000          42.000
 05  9 30  0 54 30.0000000  0 15G01G07G11G14G19G20G23G24G28G31R01R02
                                R08R17R24
  21329067.895    21329067.7464   21329075.0524  112085040.180 8  87338990.59145
       414.164         322.723          50.000          39.000
  24266525.186    24266524.2534   24266532.4934  127521449.834 5  99367384.75242
      3287.784        2561.911          39.000          20.000
  20160140.740    20160140.7364   20160146.2854  105942265.544 7  82552456.11146
       216.947         169.049          49.000          43.000
  22749073.145    22749073.8524   22749079.7874  119547204.878 6  93153703.82543
     -1794.808       -1398.543          41.000          26.000
  23128628.017    23128627.3324   23128632.2104  121541748.951 6  94707888.65443
     -3087.153       -2405.577          43.000          28.000
  21219162.773    21219162.4204   21219168.9714  111507437.054 8  86888958.82045
      2471.961        1926.206          50.000          38.000
  24691234.249    24691233.8194   24691238.4454  129753302.747 5 101106500.45041
      4314.307        3361.791          35.000          15.000
  23508756.816    23508758.2444   23508766.6344  123539394.093 5  96264468.04942
      3281.614        2557.093          38.000          20.000
  24238825.649    24238824.7034   24238830.9564  127375884.160 5  99253954.93741
     -1415.426       -1102.903          36.000          12.000
  21886657.082    21886656.8734   21886663.7564  115015164.469 7  89622227.54444
      1994.774        1554.357          45.000          31.000
  19900556.909    19900557.094    19900556.932   106417243.570 8  82768988.741 7
     -1372.872       -1067.794          53.000          45.000
  20018935.847    20018935.751    20018935.987   107012640.580 8  83232161.861 6
      2162.208        1681.718          51.000          44.000
  23561588.029    23561588.944    23561589.714   126171222.033 5  98133205.823 5
     -3188.409       -2479.872          36.000          35.000
  19902155.653    19902157.129    19902158.137   106537802.197 8  82862779.057 5
      1358.444        1056.572          52.000          39.000
  20529442.734    20529443.130    20529443.816   109818690.757 7  85414569.827 6
     -2830.416       -2201.432          47.000          42.000
 05  9 30  0 55  0.0000000  0 15G01G07G11G14G19G20G23G24G28G31R01R02
                                R08R17R24
  21326760.432    21326760.6124   21326767.4954  112072914.991 8  87329542.40246
       394.380         307.309          51.000          40.000
  24247778.208    24247779.1464   24247787.6804  127422946.513 5  99290628.95341
      3279.186        2555.197          37.000          18.000
  20158941.932    20158941.9834   20158947.6064  105935966.254 8  82547547.56846
       203.187         158.328          51.000          43.000
  22759364.698    22759363.6504   22759369.7454  119601281.875 6  93195841.74443
     -1810.085       -1410.450          43.000          26.000
  23146270.796    23146270.4314   23146276.0744  121634467.737 6  94780137.04643
     -3093.909       -2410.835          41.000          28.000
  21205083.218    21205083.0364   21205089.5004  111433449.723 8  86831306.36545
      2460.711        1917.438          50.000          37.000
  24666607.112    24666605.9884   24666609.1004  129623883.399 5 101005654.24241
      4313.872        3361.448          36.000          16.000
  23490031.280    23490030.4444   23490039.4334  123440987.924 5  96187787.90941
      3279.041        2555.102          38.000          19.000
  24246940.388    24246940.3724   24246942.8074  127418533.036 5  99287187.81441
     -1427.597       -1112.414          36.000          14.000
  21875322.221    21875322.7434   21875329.2844  114955602.054 6  89575815.27144
      1976.246        1539.932          44.000          30.000
  19908291.526    19908292.363    19908292.173   106458607.704 8  82801160.840 7
     -1384.495       -1076.834          53.000          45.000
  20006842.738    20006842.690    20006843.213   106947996.996 8  83181883.528 6
      2147.519        1670.293          51.000          44.000
  23579447.658    23579448.996    23579450.286   126266864.845 5  98207594.637 5
     -3187.622       -2479.260          35.000          35.000
  19894617.118    19894618.943    19894619.493   106497449.696 8  82831393.770 5
      1332.036        1036.029          52.000          39.000
  20545367.624    20545368.365    20545369.079   109903880.593 7  85480828.585 6
     -2848.667       -2215.628          46.000          42.000
 05  9 30  0 55 30.0000000  0 15G01G07G11G14G19G20G23G24G28G31R01R02
                                R08R17R24
  21324567.308    21324567.2234   21324574.5274  112061389.065 8  87320561.16945
       374.097         291.507          50.000          39.000
  24229086.180    24229084.9734   24229092.3754  127324709.600 5  99214080.74841
      3269.988        2548.036          36.000          17.000
  20157822.642    20157823.1154   20157828.5834  105930086.553 7  82542965.97446
       188.884         147.186          49.000          43.000
  22769743.080    22769743.0194   22769748.2994  119655821.615 6  93238340.24543
     -1825.790       -1422.676          43.000          26.000
  23163954.596    23163953.6534   23163959.6264  121727393.503 6  94852546.70243
     -3101.040       -2416.387          41.000          27.000
  21191069.706    21191069.2264   21191075.6864  111359807.506 7  86773922.84045
      2448.872        1908.209          49.000          37.000
  24641982.712    24641982.2224   24641986.4844  129494485.623 5 100904824.83341
      4312.764        3360.557          36.000          16.000
  23471322.179    23471322.1784   23471329.6094  123342666.495 6  96111173.81242
      3275.853        2552.615          40.000          21.000
  24255128.341    24255126.6934   24255134.2684  127461552.041 5  99320709.12941
     -1440.196       -1122.231          36.000          14.000
  21864096.197    21864096.0914   21864101.5434  114896602.377 7  89529841.48544
      1957.123        1525.033          45.000          31.000
  19916092.753    19916093.542    19916093.788   106500326.492 8  82833608.780 7
     -1396.616       -1086.260          53.000          45.000
  19994833.800    19994833.210    19994833.802   106883799.450 8  83131952.116 7
      2132.367        1658.507          51.000          45.000
  23597308.480    23597306.309    23597307.418   126362489.567 5  98281969.355 4
     -3187.355       -2479.055          35.000          34.000
  19887228.584    19887229.656    19887230.378   106457894.668 8  82800628.744 5
      1304.967        1014.976          52.000          39.000
  20561398.070    20561396.671    20561397.674   109989623.617 7  85547517.593 6
     -2867.437       -2230.229          46.000          43.000
 05  9 30  0 56  0.0000000  0 15G01G07G11G14G19G20G23G24G28G31R01R02
                                R08R17R24
  21322488.550    21322488.6204   21322495.9594  112050465.985 8  87312049.68646
       354.295         276.072          51.000          40.000
  24210442.904    24210444.1784   24210450.6544  127226745.253 5  99137744.86441
      3261.098        2541.124          38.000          16.000
  20156784.592    20156784.8754   20156790.4934  105924630.698 8  82538714.65346
       174.995         136.358          51.000          43.000
  22780209.257    22780209.0234   22780214.7454  119710825.285 6  93281200.25043
     -1840.930       -1434.497          42.000          26.000
  23181676.941    23181676.3654   23181682.2934  121820527.679 6  94925118.77343
     -3107.719       -2421.595          41.000          27.000
  21177122.756    21177122.1764   21177128.6994  111286514.742 7  86716811.60245
      2437.482        1899.334          49.000          37.000
  24617362.962    24617363.2484   24617368.7304  129365115.461 5 100804016.91341
      4311.960        3359.976          35.000          14.000
  23452628.942    23452629.8884   23452638.3684  123244434.421 6  96034629.36342
      3273.100        2550.473          40.000          22.000
  24263382.645    24263383.8104   24263391.5474  127504942.312 5  99354519.71241
     -1452.252       -1131.597          35.000          14.000
  21852976.362    21852976.3294   21852982.7234  114838171.091 6  89484310.62144
      1938.434        1510.463          44.000          31.000
  19923961.248    19923961.872    19923961.977   106542400.857 8  82866333.281 7
     -1408.168       -1095.248          52.000          45.000
  19982908.780    19982908.171    19982908.394   106820052.505 8  83082371.164 6
      2117.624        1647.040          51.000          44.000
  23615158.353    23615160.218    23615160.582   126458097.954 4  98356331.382 4
     -3186.415       -2478.314          34.000          33.000
  19879989.919    19879991.113    19879991.700   106419145.068 8  82770490.160 5
      1278.414         994.319          52.000          39.000
  20577527.150    20577528.304    20577529.547   110075920.859 7  85614637.661 6
     -2885.499       -2244.274          46.000          43.000
 05  9 30  0 56 30.0000000  0 15G01G07G11G14G19G20G23G24G28G31R01R02
                                R08R17R24
  21320524.190    21320523.9934   21320531.6244  112040142.726 8  87304005.59145
       333.709         260.036          51.000          39.000
  24191853.960    24191853.7284   24191858.4154  127129052.839 5  99061620.85441
      3251.445        2533.589          39.000          17.000
  20155826.593    20155826.9614   20155832.4954  105919596.334 8  82534791.76446
       160.377         124.969          51.000          43.000
  22790763.419    22790763.4994   22790770.3354  119766287.796 6  93324417.80043
     -1856.774       -1446.836          42.000          26.000
  23199438.504    23199438.2264   23199443.7914  121913864.963 6  94997849.13443
     -3115.026       -2427.286          41.000          26.000
  21163241.566    21163240.9814   21163247.4904  111213569.178 8  86659970.91945
      2425.303        1889.850          50.000          38.000
  24592747.761    24592750.4554   24592753.6644  129235772.713 4 100703230.40741
      4310.536        3358.834          34.000          12.000
  23433952.491    23433952.8614   23433960.7654  123146290.304 5  95958153.45442
      3269.628        2547.757          39.000          20.000
  24271711.482    24271710.4164   24271716.7004  127548698.468 5  99388615.39341
     -1465.030       -1141.594          35.000          14.000
  21841965.715    21841965.5424   21841971.6834  114780306.904 7  89439221.64844
      1918.883        1495.239          45.000          31.000
  19931895.176    19931895.593    19931895.612   106584826.759 8  82899331.199 7
     -1420.465       -1104.806          52.000          45.000
  19971066.638    19971066.454    19971066.872   106756752.877 8  83033138.139 6
      2102.081        1634.952          51.000          44.000
  23633010.278    23633011.404    23633011.987   126553686.272 5  98430677.843 4
     -3186.344       -2478.267          36.000          33.000
  19872899.768    19872901.884    19872902.338   106381198.119 8  82740975.863 5
      1251.102         973.081          52.000          39.000
  20593763.376    20593763.632    20593765.106   110162765.151 7  85682183.207 6
     -2904.299       -2258.897          46.000          42.000
 05  9 30  0 57  0.0000000  0 15G01G07G11G14G19G20G23G24G28G31R01R02
                                R08R17R24
  21318674.992    21318675.1004   21318682.3024  112030425.999 7  87296434.12045
       313.596         244.357          49.000          39.000
  24173316.177    24173316.7814   24173323.3884  127031641.714 5  98985716.07641
      3242.155        2526.351          38.000          18.000
  20154950.438    20154950.4824   20154955.8684  105914990.581 8  82531202.86046
       146.215         113.934          50.000          43.000
  22801406.025    22801406.1514   22801412.0124  119822214.065 6  93367996.71243
     -1872.106       -1458.790          42.000          26.000
  23217238.603    23217238.6534   23217243.9194  122007410.273 6  95070741.57543
     -3121.792       -2432.550          40.000          25.000
  21149427.376    21149427.2834   21149433.9214  111140978.150 8  86603406.49345
      2413.599        1880.728          50.000          38.000
  24568144.839    24568144.9774   24568147.3114  129106466.935 5 100602472.65741
      4309.360        3357.959          35.000          12.000
  23415295.163    23415295.2124   23415303.2264  123048242.106 5  95881752.28442
      3266.460        2545.277          39.000          21.000
  24280107.331    24280105.7824   24280113.0684  127592824.831 4  99422999.58841
     -1477.199       -1151.046          34.000          13.000
  21831063.414    21831063.5994   21831070.3854  114723018.622 6  89394581.42944
      1899.804        1480.376          44.000          31.000
  19939895.560    19939896.332    19939896.354   106627608.925 8  82932606.220 7
     -1432.171       -1113.915          53.000          45.000
  19959309.988    19959310.013    19959310.501   106693908.272 8  82984259.016 7
      2087.047        1623.261          52.000          45.000
  23650858.128    23650859.258    23650861.073   126649260.662 5  98505013.447 5
     -3185.699       -2477.756          37.000          35.000
  19865964.038    19865965.317    19865965.869   106344063.901 8  82712093.684 5
      1224.005         952.001          52.000          39.000
  20610101.376    20610101.730    20610102.822   110250159.688 7  85750156.724 6
     -2922.462       -2273.023          46.000          42.000
 05  9 30  0 57 30.0000000  0 15G01G07G11G14G19G20G23G24G28G31R01R02
                                R08R17R24
  21316940.904    21316941.0124   21316948.0694  112021313.447 8  87289333.43545
       293.776         228.916          51.000          39.000
  24154832.348    24154834.2884   24154841.8274  126934512.155 5  98910030.72742
      3232.920        2519.174          37.000          20.000
  20154155.152    20154155.2794   20154160.8124  105910811.651 8  82527946.54446
       132.267         103.065          51.000          43.000
  22812135.845    22812136.6294   22812142.1654  119878599.430 6  93411933.36243
     -1887.052       -1470.434          42.000          25.000
  23235078.977    23235079.1734   23235084.4634  122101159.067 6  95143792.58543
     -3128.164       -2437.538          40.000          25.000
  21135680.844    21135680.9054   21135687.4054  111068740.131 8  86547117.14245
      2402.132        1871.786          50.000          37.000
  24543543.340    24543545.9154   24543549.6334  128977198.026 5 100501743.66441
      4308.426        3357.250          35.000          14.000
  23396654.579    23396655.0394   23396662.7234  122950288.512 5  95805424.81642
      3263.582        2543.047          39.000          21.000
  24288574.721    24288574.5154   24288582.6244  127637316.601 5  99457668.44641
     -1489.084       -1160.303          35.000          12.000
  21820272.421    21820271.6854   21820277.7814  114666306.040 6  89350389.80944
      1880.891        1465.629          44.000          31.000
  19947962.031    19947962.905    19947962.770   106670743.612 8  82966155.410 7
     -1443.566       -1122.778          53.000          45.000
  19947638.262    19947638.179    19947638.691   106631516.520 8  82935732.109 7
      2072.222        1611.726          51.000          45.000
  23668704.640    23668704.479    23668705.223   126744816.957 5  98579334.985 5
     -3184.816       -2477.073          36.000          35.000
  19859178.860    19859180.075    19859180.669   106307742.132 8  82683843.411 5
      1197.230         931.181          52.000          39.000
  20626541.206    20626540.661    20626542.120   110338099.265 7  85818554.157 6
     -2940.282       -2286.885          46.000          43.000
 05  9 30  0 58  0.0000000  0 15G01G07G11G14G19G20G23G24G28G31R01R02
                                R08R17R24
  21315321.192    21315321.0114   21315328.1224  112012800.512 8  87282699.98545
       274.309         213.749          51.000          39.000
  24136403.350    24136403.2694   24136411.4154  126837662.017 5  98834563.16841
      3224.193        2512.330          37.000          19.000
  20153440.580    20153440.6904   20153446.2424  105907055.975 8  82525020.03846
       118.652          92.459          51.000          43.000
  22822951.469    22822951.6094   22822957.5464  119935437.189 6  93456222.51043
     -1901.624       -1481.783          42.000          26.000
  23252956.277    23252955.9734   23252961.9814  122195103.957 6  95216996.38643
     -3134.228       -2442.250          41.000          27.000
  21122001.147    21122000.8814   21122007.5354  110996851.803 8  86491100.27545
      2390.969        1863.093          50.000          38.000
  24518952.187    24518952.6454   24518954.0034  128847964.435 5 100401042.20141
      4307.625        3356.635          35.000          14.000
  23378031.931    23378032.6794   23378041.4884  122852426.531 5  95729168.73142
      3261.035        2541.080          39.000          21.000
  24297110.946    24297110.4744   24297115.5474  127682167.051 5  99492616.86341
     -1500.444       -1169.172          35.000          13.000
  21809588.654    21809588.5154   21809594.7324  114610166.361 7  89306644.60644
      1862.272        1451.123          46.000          31.000
  19956093.743    19956094.046    19956093.982   106714224.181 8  82999973.626 7
     -1454.537       -1131.311          53.000          45.000
  19936050.758    19936050.633    19936051.109   106569573.484 8  82887554.208 7
      2057.848        1600.545          51.000          45.000
  23686543.234    23686544.173    23686545.285   126840350.251 4  98653638.578 5
     -3183.536       -2476.083          34.000          35.000
  19852544.788    19852546.061    19852546.838   106272231.163 8  82656223.758 5
      1170.765         910.600          53.000          39.000
  20643079.044    20643080.410    20643081.534   110426575.928 7  85887369.310 6
     -2957.593       -2300.344          46.000          43.000
 05  9 30  0 58 30.0000000  0 15G01G07G11G14G19G20G23G24G28G31R01R02
                                R08R17R24
  21313815.855    21313815.7864   21313822.9854  112004890.575 8  87276536.40445
       253.113         197.236          51.000          39.000
  24118028.647    24118027.2574   24118034.9424  126741097.689 5  98759318.21441
      3213.521        2504.037          38.000          19.000
  20152807.187    20152807.3094   20152812.8014  105903727.724 8  82522426.59146
       103.325          80.513          51.000          43.000
  22833854.116    22833853.8014   22833859.4634  119992728.733 6  93500865.28543
     -1917.748       -1494.362          41.000          26.000
  23270871.621    23270870.9214   23270876.5524  122289246.720 6  95290354.37743
     -3141.834       -2448.188          41.000          26.000
  21108388.633    21108388.3554   21108394.8894  110925317.358 7  86435359.15345
      2378.095        1853.059          49.000          38.000
  24494368.660    24494368.6304   24494372.7934  128718772.325 5 100300373.04941
      4305.294        3354.768          36.000          15.000
  23359428.398    23359428.2574   23359435.0594  122754661.040 5  95652987.84842
      3256.726        2537.684          39.000          21.000
  24305711.837    24305713.4014   24305719.6414  127727377.127 4  99527845.39741
     -1513.468       -1179.319          34.000          11.000
  21799015.787    21799015.4524   21799021.8734  114554604.946 7  89263349.99444
      1841.917        1435.265          45.000          31.000
  19964289.431    19964290.014    19964289.816   106758052.411 8  83034062.249 7
     -1467.215       -1141.173          52.000          45.000
  19924547.563    19924547.528    19924548.231   106508083.082 8  82839728.355 7
      2041.670        1587.966          51.000          45.000
  23704380.250    23704380.345    23704380.579   126935863.577 5  98727926.659 4
     -3183.948       -2476.394          35.000          34.000
  19846063.098    19846064.381    19846065.137   106237532.575 8  82629235.965 5
      1142.547         888.648          53.000          39.000
  20659719.455    20659720.708    20659721.312   110515590.772 7  85956603.071 6
     -2976.520       -2315.070          46.000          42.000
 05  9 30  0 59  0.0000000  0 15G01G07G11G14G19G20G23G24G28G31R01R02
                                R08R17R24
  21312425.587    21312425.3644   21312432.3204  111997583.179 8  87270842.33945
       233.544         181.986          50.000          39.000
  24099706.977    24099706.1854   24099713.5504  126644821.129 5  98684297.50541
      3204.492        2496.969          38.000          18.000
  20152255.396    20152255.1874   20152260.8294  105900826.777 7  82520166.10746
        89.550          69.778          49.000          43.000
  22844841.917    22844842.2924   22844848.2434  120050471.443 6  93545859.59643
     -1932.257       -1505.656          42.000          25.000
  23288822.445    23288822.4954   23288828.8714  122383584.756 6  95363864.53243
     -3147.830       -2452.863          40.000          25.000
  21094843.949    21094843.3064   21094849.8994  110854136.971 7  86379893.92845
      2366.761        1844.230          49.000          38.000
  24469792.484    24469791.0024   24469795.6384  128589624.140 5 100199738.12041
      4304.182        3353.898          38.000          17.000
  23340842.197    23340842.0564   23340850.0364  122656992.743 5  95576882.69142
      3253.990        2535.588          39.000          21.000
  24314382.042    24314382.1184   24314390.8514  127772944.099 4  99563352.20541
     -1524.873       -1188.198          34.000          13.000
  21788552.259    21788552.8614   21788559.4934  114499622.986 7  89220506.91244
      1823.035        1420.538          45.000          31.000
  19972549.789    19972550.481    19972550.662   106802226.322 8  83068419.735 6
     -1478.213       -1149.725          52.000          44.000
  19913129.534    19913129.224    19913129.503   106447045.183 8  82792254.451 7
      2027.074        1576.615          51.000          45.000
  23722211.037    23722212.547    23722213.656   127031354.390 5  98802197.242 4
     -3182.647       -2475.374          36.000          33.000
  19839733.385    19839734.724    19839735.741   106203650.477 8  82602883.213 5
      1115.793         867.838          52.000          39.000
  20676460.341    20676461.022    20676462.288   110605138.970 7  86026251.655 6
     -2993.763       -2328.483          45.000          43.000
 05  9 30  0 59 30.0000000  0 15G01G07G11G14G19G20G23G24G28G31R01R02
                                R08R17R24
  21311148.558    21311148.7224   21311155.8604  111990874.710 8  87265614.97145
       213.202         166.134          50.000          39.000
  24081439.654    24081440.4104   24081448.3254  126548831.360 5  98609500.22341
      3194.490        2489.222          38.000          17.000
  20151783.897    20151783.9184   20151789.4884  105898350.245 8  82518236.33546
        75.066          58.491          51.000          43.000
  22855915.738    22855914.7114   22855921.0934  120108659.824 6  93591201.19643
     -1947.470       -1517.524          42.000          25.000
  23306811.233    23306810.8654   23306815.4224  122478112.429 6  95437522.43242
     -3154.476       -2458.042          40.000          24.000
  21081365.456    21081365.1964   21081371.3184  110783307.947 7  86324702.48745
      2354.680        1834.816          49.000          38.000
  24445224.807    24445225.1614   24445228.2994  128460519.025 5 100099136.69541
      4302.347        3352.493          37.000          18.000
  23322275.162    23322274.0014   23322282.0254  122559419.383 6  95500851.51942
      3250.443        2532.828          40.000          21.000
  24323119.397    24323121.1854   24323126.2084  127818862.216 4  99599132.53441
     -1536.754       -1197.499          34.000          13.000
  21778199.847    21778200.0034   21778207.1224  114445218.983 7  89178114.17944
      1803.388        1405.248          45.000          32.000
  19980874.164    19980874.851    19980875.019   106846740.284 8  83103041.701 7
     -1489.895       -1158.810          52.000          45.000
  19901795.626    19901795.173    19901794.857   106386456.653 8  82745130.046 7
      2011.701        1564.654          52.000          45.000
  23740037.831    23740039.707    23740039.983   127126818.223 5  98876446.913 4
     -3182.109       -2474.972          36.000          31.000
  19833555.663    19833557.041    19833558.282   106170581.748 8  82577163.087 5
      1088.209         846.383          52.000          39.000
  20693299.354    20693298.849    20693300.876   110695213.605 7  86096309.689 6
     -3011.656       -2342.400          45.000          43.000
 05  9 30  1  0  0.0000000  1 15G01G07G11G14G19G20G23G24G28G31R01R02
                                R08R17R24
  21309987.323    21309987.1164   21309994.5574  111984772.017 8  87260859.63245
       192.892         150.309          50.000          39.000
  24063230.312    24063231.1284   24063237.7324  126453138.101 5  98534934.09541
      3184.351        2481.309          38.000          18.000
  20151394.987    20151394.9284   20151400.5854  105896305.902 8  82516643.33746
        60.485          47.132          50.000          43.000
  22867074.080    22867073.5234   22867079.9464  120167298.748 6  93636893.86543
     -1962.599       -1529.297          42.000          25.000
  23324836.528    23324835.9994   23324841.0224  122572834.568 6  95511331.89543
     -3161.075       -2463.179          40.000          25.000
  21067955.053    21067955.1364   21067961.5744  110712838.131 8  86269790.95245
      2342.542        1825.355          50.000          38.000
  24420666.278    24420666.1794   24420670.9314  128331466.273 5  99998576.14741
      4300.518        3351.071          37.000          17.000
  23303726.118    23303727.2014   23303733.5124  122461949.575 5  95424901.03542
      3246.812        2529.967          39.000          22.000
  24331926.369    24331927.5294   24331934.5134  127865136.040 5  99635189.99741
     -1548.869       -1206.903          35.000          12.000
  21767959.567    21767958.8244   21767965.5824  114391401.986 7  89136178.85744
      1783.659        1389.870          46.000          32.000
  19989262.932    19989263.746    19989263.829   106891599.931 8  83137932.541 7
     -1501.528       -1167.861          52.000          45.000
  19890546.217    19890545.872    19890546.274   106326325.079 8  82698361.050 7
      1996.318        1552.689          51.000          45.000
  23757862.552    23757862.422    23757864.464   127222261.476 4  98950680.566 4
     -3181.582       -2474.556          34.000          32.000
  19827532.142    19827533.377    19827534.510   106138336.221 8  82552083.232 5
      1060.659         824.956          52.000          39.000
  20710235.057    20710236.198    20710238.310   110785818.679 7  86166780.277 6
     -3029.428       -2356.223          45.000          43.000
 05  9 30  1  0 30.0000000  0 15G01G07G11G14G19G20G23G24G28G31R01R02
                                R08R17R24
  21308938.974    21308939.1464   21308946.0334  111979262.301 7  87256566.35845
       173.622         135.287          49.000          39.000
  24045076.212    24045076.5314   24045082.1364  126357731.191 5  98460591.07341
      3175.279        2474.245          38.000          19.000
  20151085.769    20151085.8754   20151091.3434  105894681.621 7  82515377.65846
        47.000          36.622          49.000          43.000
  22878314.098    22878315.2734   22878320.4844  120226373.120 6  93682925.83943
     -1976.625       -1540.234          41.000          25.000
  23342896.015    23342895.6634   23342901.2984  122667736.822 6  95585281.71343
     -3166.535       -2467.418          40.000          25.000
  21054611.395    21054611.0414   21054617.6634  110642715.779 7  86215150.16645
      2331.454        1816.716          49.000          37.000
  24396116.412    24396116.8294   24396122.0994  128202456.411 5  99898048.98341
      4299.440        3350.238          37.000          17.000
  23285196.830    23285196.2564   23285205.6524  122364571.849 5  95349022.30842
      3244.239        2527.985          39.000          22.000
  24340798.465    24340795.8334   24340802.6514  127911750.462 4  99671512.92041
     -1559.541       -1215.252          34.000          12.000
  21757828.076    21757828.1854   21757834.2624  114338161.017 7  89094692.38744
      1764.940        1375.273          45.000          32.000
  19997714.180    19997714.780    19997714.603   106936790.501 8  83173080.759 7
     -1512.032       -1176.025          52.000          45.000
  19879380.440    19879380.495    19879380.665   106266638.024 8  82651937.792 7
      1981.996        1541.552          52.000          45.000
  23775680.986    23775681.032    23775681.066   127317670.882 4  99024887.777 4
     -3179.906       -2473.254          34.000          33.000
  19821660.294    19821661.646    19821661.966   106106901.997 8  82527634.383 5
      1034.101         804.305          52.000          39.000
  20727271.077    20727270.708    20727272.815   110876939.266 7  86237651.828 6
     -3046.009       -2369.118          45.000          42.000
 05  9 30  1  1  0.0000000  0 15G01G07G11G14G19G20G23G24G28G31R01R02
                                R08R17R24
  21308004.430    21308004.5264   21308011.6954  111974351.519 8  87252739.78445
       153.517         119.623          50.000          39.000
  24026977.476    24026975.8024   24026985.3384  126262619.238 5  98386477.89542
      3165.211        2466.403          39.000          21.000
  20150857.724    20150857.8744   20150863.5734  105893483.917 8  82514444.37846
        32.586          25.391          51.000          43.000
  22889639.936    22889639.9724   22889645.7514  120285887.489 6  93729300.67843
     -1991.366       -1551.716          42.000          25.000
  23360990.186    23360988.9914   23360995.2234  122762822.524 6  95659374.44543
     -3172.805       -2472.304          41.000          25.000
  21041334.643    21041334.6044   21041341.3034  110572947.790 7  86160785.50545
      2319.502        1807.406          49.000          38.000
  24371575.032    24371576.0214   24371580.6564  128073498.109 5  99797561.98641
      4297.438        3348.643          37.000          18.000
  23266684.930    23266685.1954   23266693.4304  122267293.737 6  95273221.18942
      3240.750        2525.277          40.000          22.000
  24349733.337    24349731.7694   24349736.8564  127958709.148 4  99708104.05541
     -1571.240       -1224.336          34.000          12.000
  21747806.786    21747806.8454   21747813.3904  114285504.121 7  89053661.03844
      1745.278        1359.961          45.000          31.000
  20006228.021    20006228.625    20006228.263   106982316.911 8  83208490.188 7
     -1523.353       -1184.832          52.000          45.000
  19868298.782    19868298.772    19868299.411   106207402.005 8  82605865.338 7
      1966.796        1529.730          51.000          45.000
  23793489.812    23793493.223    23793493.629   127413051.707 5  99099072.792 4
     -3179.070       -2472.602          36.000          33.000
  19815940.411    19815941.989    19815942.952   106076286.880 8  82503822.618 5
      1006.595         782.910          52.000          39.000
  20744402.593    20744401.453    20744403.128   110968576.778 7  86308925.434 6
     -3063.382       -2382.633          45.000          42.000
